     2.11           OBSERVATION DATA    G (GPS)             RINEX VERSION / TYPE
teqc 2010Oct21 OPUS Account 20111028 16:14:36UTC            PGM / RUN BY / DATE
F 4                                                         MARKER NAME
2045                                                        MARKER NUMBER
CSMIDDLETON NGS                                             OBSERVER / AGENCY
4624K01648 TRIMBLE NETR5 4.41                               REC # / TYPE / VERS
12611996 TRM41249.00 NONE                                   ANT # / TYPE
  -720518.7238 -5592123.0118  2971524.2686                  APPROX POSITION XYZ
        2.0000        0.0000        0.0000                  ANTENNA: DELTA H/E/N
     1     1                                                WAVELENGTH FACT L1/2
     5    L1    L2    C1    P1    P2                        # / TYPES OF OBSERV
    15                                                      LEAP SECONDS
  2011     8    24    14    54    0.0000000     GPS         TIME OF FIRST OBS
                                                            END OF HEADER
 11  8 24 14 54  0.0000000  0 10G10G23G07G16G06G03G32G20G13G19
 127454670.72415  99315411.46353  24253827.773                    24253838.418
 105081194.80418  81881470.29157  19996287.000                    19996292.457
 123411538.07717  96164871.37216  23484434.969                    23484444.238
 112220842.89418  87444842.14056  21354916.633                    21354923.742
 115545775.91817  90035704.24255  21987630.516                    21987639.352
 109877786.39717  85619092.13556  20909048.391                    20909056.965
 125835627.52616  98053775.40553  23945723.531                    23945734.855
 120959198.85817  94253956.61054  23017771.344                    23017780.055
 109622519.69118  85420176.11556  20860471.953                    20860479.996
 117681931.10717  91700233.23855  22394127.570                    22394134.605
 11  8 24 14 54 30.0000000  0 10G10G23G07G16G06G03G32G20G13G19
 127412041.507 6  99282193.91143  24245716.375                    24245726.789
 105066126.055 8  81869728.40547  19993419.766                    19993425.191
 123354780.870 7  96120645.033 6  23473634.172                    23473643.801
 112293604.975 8  87501539.84446  21368762.609                    21368770.059
 115551772.066 7  90040376.58445  21988770.984                    21988780.254
 109849635.567 8  85597156.42546  20903691.016                    20903699.742
 125928837.131 6  98126406.16543  23963461.578                    23963471.258
 121044025.362 7  94320055.12944  23033913.750                    23033921.922
 109560461.877 8  85371819.38546  20848663.023                    20848671.000
 117600353.425 7  91636666.25145  22378603.578                    22378611.152
 11  8 24 14 55  0.0000000  0 10G10G23G07G16G06G03G32G20G13G19
 127369892.423 6  99249350.51743  24237695.953                    24237706.293
 105051568.216 8  81858384.63847  19990649.328                    19990654.699
 123298032.853 7  96076425.841 6  23462835.914                    23462844.367
 112366654.391 8  87558461.44546  21382663.547                    21382671.004
 115558317.156 7  90045476.67345  21990016.656                    21990026.008
 109822064.669 8  85575672.61546  20898444.789                    20898452.738
 126022047.180 6  98199037.23144  23981198.898                    23981209.160
 121128968.672 7  94386244.66744  23050077.836                    23050085.855
 109498745.145 8  85323728.43946  20836918.984                    20836925.977
 117519036.709 7  91573302.59445  22363130.000                    22363136.715
 11  8 24 14 55 30.0000000  0 10G10G23G07G16G06G03G32G20G13G19
 127328224.395 6  99216881.96343  24229766.203                    24229776.875
 105037522.875 8  81847440.22247  19987976.680                    19987982.031
 123241293.505 7  96032213.406 6  23452037.977                    23452047.211
 112439987.514 8  87615604.11046  21396618.539                    21396625.883
 115565411.029 7  90051004.38345  21991366.859                    21991375.555
 109795074.782 8  85554641.53846  20893308.813                    20893317.152
 126115255.870 6  98271667.31843  23998937.125                    23998945.664
 121214026.379 7  94452523.34744  23066263.250                    23066271.836
 109437371.685 8  85275904.97646  20825239.977                    20825247.441
 117437984.737 7  91510145.24145  22347705.766                    22347712.660
 11  8 24 14 56  0.0000000  0 10G10G23G07G16G06G03G32G20G13G19
 127287037.933 6  99184788.60043  24221928.742                    24221939.695
 105023991.023 8  81836895.91647  19985401.648                    19985407.215
 123184562.309 6  95988007.324 6  23441242.836                    23441251.219
 112513601.783 8  87672965.86746  21410626.773                    21410633.906
 115573053.620 7  90056959.66845  21992821.250                    21992829.855
 109768667.162 8  85534064.17146  20888283.875                    20888292.035
 126208459.732 7  98344293.61343  24016672.188                    24016682.148
 121299194.677 7  94518888.16944  23082470.711                    23082479.098
 109376343.474 8  85228350.54446  20813626.547                    20813633.887
 117357199.958 7  91447196.09545  22332333.078                    22332340.223
 11  8 24 14 56 30.0000000  0 10G10G23G07G16G06G03G32G20G13G19
 127246333.560 6  99153070.94843  24214183.883                    24214193.879
 105010973.944 8  81826752.74447  19982924.484                    19982929.938
 123127838.566 6  95943807.028 6  23430448.289                    23430457.320
 112587494.323 8  87730544.44146  21424688.117                    21424695.070
 115581245.215 7  90063342.74645  21994379.602                    21994388.793
 109742843.376 8  85513941.74646  20883369.336                    20883378.199
 126301656.026 6  98416914.02743  24034407.055                    24034416.973
 121384470.423 7  94585336.75144  23098697.867                    23098706.570
 109315662.897 8  85181066.99846  20802078.945                    20802086.613
 117276685.633 7  91384457.69245  22317011.188                    22317019.020
 11  8 24 14 57  0.0000000  0 10G10G23G07G16G06G03G32G20G13G19
 127206112.523 6  99121729.89243  24206528.844                    24206540.676
 104998473.311 8  81817011.98147  19980546.023                    19980551.211
 123071122.433 6  95899612.687 6  23419655.578                    23419664.770
 112661662.564 8  87788337.86145  21438802.281                    21438809.137
 115589986.201 7  90070153.92345  21996043.172                    21996052.363
 109717605.161 8  85494275.60946  20878566.609                    20878575.313
 126394842.556 6  98489526.82143  24052139.484                    24052150.406
 121469850.855 7  94651866.89844  23114945.125                    23114953.730
 109255332.902 8  85134056.62446  20790598.813                    20790606.480
 117196445.210 7  91321932.73145  22301742.352                    22301750.410
 11  8 24 14 57 30.0000000  0 10G10G23G07G16G06G03G32G20G13G19
 127166376.064 5  99090766.45843  24198968.141                    24198978.309
 104986491.106 8  81807675.19547  19978265.742                    19978271.500
 123014413.871 6  95855424.259 6  23408864.188                    23408873.621
 112736104.284 8  87846344.38146  21452967.477                    21452974.406
 115599277.158 7  90077393.64545  21997811.289                    21997820.012
 109692954.390 8  85475067.23346  20873875.500                    20873884.707
 126488016.905 6  98562130.09443  24069869.891                    24069880.797
 121555333.758 7  94718476.90344  23131212.469                    23131221.004
 109195356.441 8  85087321.72846  20779186.039                    20779193.641
 117116482.402 7  91259624.08245  22286525.867                    22286533.508
 11  8 24 14 58  0.0000000  0 10G10G23G07G16G06G03G32G20G13G19
 127127124.236 6  99060180.63943  24191498.680                    24191508.770
 104975028.149 8  81798743.02647  19976084.273                    19976089.801
 122957711.963 6  95811241.009 6  23398073.805                    23398082.863
 112810815.839 8  87904561.16146  21467184.953                    21467192.223
 115609117.576 7  90085061.51245  21999683.930                    21999692.535
 109668892.000 8  85456317.32646  20869297.078                    20869305.582
 126581175.990 6  98634721.47243  24087597.586                    24087608.477
 121640915.071 7  94785163.57444  23147498.430                    23147506.184
 109135735.298 8  85040863.72246  20767840.414                    20767847.922
 117036799.741 7  91197533.73545  22271362.570                    22271370.133
 11  8 24 14 58 30.0000000  0 10G10G23G07G16G06G03G32G20G13G19
 127088358.344 6  99029973.44943  24184121.391                    24184132.453
 104964085.946 8  81790216.62447  19974002.148                    19974007.664
 122901016.635 7  95767062.862 6  23387285.750                    23387294.352
 112885794.900 8  87962986.38446  21481452.750                    21481460.328
 115619507.836 7  90093157.82345  22001661.031                    22001669.547
 109645419.653 8  85438027.19246  20864830.375                    20864838.645
 126674317.234 6  98707298.92943  24105322.430                    24105333.070
 121726591.943 7  94851924.72744  23163801.453                    23163810.055
 109076472.173 8  84994684.66546  20756562.969                    20756570.477
 116957400.535 7  91135664.27545  22256253.734                    22256260.891
 11  8 24 14 59  0.0000000  0 10G10G23G07G16G06G03G32G20G13G19
 127050079.233 6  99000145.62843  24176837.578                    24176847.660
 104953666.541 8  81782097.66247  19972019.414                    19972024.941
 122844328.154 7  95722890.142 6  23376498.031                    23376506.672
 112961039.409 8  88021618.50646  21495771.297                    21495778.629
 115630448.559 7  90101683.11245  22003742.641                    22003751.676
 109622538.950 8  85420198.14846  20860476.359                    20860484.750
 126767438.778 6  98779861.12743  24123042.164                    24123052.699
 121812362.162 7  94918758.67244  23180123.156                    23180130.301
 109017570.322 8  84948787.19146  20745353.914                    20745361.539
 116878288.689 7  91074018.78345  22241198.969                    22241206.133
 11  8 24 14 59 30.0000000  0 10G10G23G07G16G06G03G32G20G13G19
 127012287.787 6  98970697.81243  24169645.906                    24169656.227
 104943770.836 8  81774386.72447  19970136.188                    19970141.715
 122787645.911 6  95678722.222 6  23365711.648                    23365721.004
 113036546.405 8  88080455.11245  21510139.961                    21510147.223
 115641939.471 7  90110637.07945  22005929.195                    22005938.090
 109600251.603 8  85402831.40146  20856235.102                    20856244.047
 126860537.726 6  98852405.62843  24140759.094                    24140769.055
 121898222.488 7  94985662.77644  23196461.672                    23196469.195
 108959031.753 8  84903172.73946  20734214.539                    20734222.188
 116799467.094 7  91012599.39845  22226199.688                    22226206.910
 11  8 24 15  0  0.0000000  0 10G10G23G07G16G06G03G32G20G13G19
 126974984.140 6  98941629.98743  24162547.242                    24162557.660
 104934399.629 8  81767084.48547  19968352.844                    19968358.516
 122730968.997 7  95634558.428 6  23354926.094                    23354935.258
 113112312.636 8  88139493.71645  21524557.672                    21524564.586
 115653980.047 7  90120019.33745  22008220.445                    22008229.652
 109578558.228 8  85385927.47546  20852106.758                    20852115.699
 126953610.800 6  98924929.96343  24158470.891                    24158480.402
 121984169.208 7  95052634.15744  23212817.133                    23212824.133
 108900858.334 8  84857842.80846  20723144.133                    20723151.949
 116720938.412 7  90951408.25745  22211256.023                    22211263.238
 11  8 24 15  0 30.0000000  0 10G10G23G07G16G06G03G32G20G13G19
 126938169.178 6  98912943.01443  24155541.648                    24155552.031
 104925554.930 8  81760192.51047  19966669.875                    19966675.438
 122674297.623 7  95590398.966 6  23344141.789                    23344151.539
 113188335.897 8  88198732.60545  21539024.391                    21539031.715
 115666570.895 7  90129830.38845  22010616.406                    22010625.723
 109557460.431 8  85369487.63946  20848091.953                    20848100.227
 127046655.989 6  98997432.58743  24176176.781                    24176186.762
 122070199.910 6  95119671.00144  23229188.586                    23229195.105
 108843053.153 8  84812799.82246  20712144.672                    20712152.047
 116642706.069 7  90890448.02345  22196369.102                    22196375.898
 11  8 24 15  1  0.0000000  0 10G10G23G07G16G06G03G32G20G13G19
 126901843.661 6  98884637.40543  24148628.922                    24148638.637
 104917237.857 8  81753711.68047  19965087.156                    19965092.383
 122617631.603 7  95546243.662 6  23333358.961                    23333367.297
 113264613.252 8  88258169.48646  21553539.813                    21553546.887
 115679712.014 7  90140070.21845  22013117.102                    22013126.395
 109536959.727 8  85353513.09346  20844190.938                    20844199.508
 127139670.695 6  99069911.44743  24193877.086                    24193887.578
 122156311.701 7  95186771.00944  23245574.992                    23245583.977
 108785618.763 8  84768045.75646  20701215.172                    20701222.520
 116564773.636 7  90829721.48845  22181539.070                    22181545.977
 11  8 24 15  1 30.0000000  0 10G10G23G07G16G06G03G32G20G13G19
 126866008.431 6  98856713.83943  24141809.898                    24141820.133
 104909449.840 8  81747643.08747  19963605.039                    19963610.609
 122560970.931 7  95502092.529 6  23322576.953                    23322584.902
 113341142.069 8  88317802.30845  21568102.813                    21568109.563
 115693403.539 7  90150738.92745  22015723.117                    22015731.859
 109517057.543 8  85338004.91146  20840403.859                    20840412.613
 127232652.431 6  99142364.65743  24211570.734                    24211581.215
 122242501.532 7  95253931.84944  23261975.734                    23261985.352
 108728557.856 8  84723582.71246  20690356.766                    20690364.313
 116487144.106 7  90769230.96945  22166766.719                    22166773.887
 11  8 24 15  2  0.0000000  0 10G10G23G07G16G06G03G32G20G13G19
 126830664.327 6  98829173.00643  24135084.672                    24135093.695
 104902192.477 8  81741987.99647  19962224.156                    19962229.867
 122504315.497 7  95457945.479 6  23311795.758                    23311804.484
 113417919.773 8  88377629.07645  21582712.844                    21582720.297
 115707645.408 7  90161836.48145  22018432.852                    22018441.691
 109497755.094 8  85322964.05446  20836730.336                    20836738.840
 127325598.836 6  99214790.29443  24229257.195                    24229268.430
 122328766.628 6  95321151.33444  23278392.172                    23278400.691
 108671872.978 8  84679412.69646  20679570.133                    20679577.539
 116409821.026 7  90708979.24345  22152052.703                    22152059.695
 11  8 24 15  2 30.0000000  0 10G10G23G07G16G06G03G32G20G13G19
 126795811.718 6  98802015.12743  24128452.172                    24128461.586
 104895466.698 8  81736747.12347  19960944.047                    19960949.578
 122447664.494 7  95413801.885 6  23301014.953                    23301024.281
 113494943.935 8  88437647.87845  21597370.391                    21597377.676
 115722437.551 7  90173362.81845  22021247.781                    22021256.938
 109479053.757 8  85308391.59546  20833171.930                    20833180.133
 127418507.250 6  99287186.34943  24246937.789                    24246948.270
 122415104.220 7  95388427.30244  23294822.016                    23294830.402
 108615566.427 8  84635537.47746  20668855.117                    20668862.918
 116332807.391 7  90648968.63645  22137397.320                    22137403.730
 11  8 24 15  3  0.0000000  0 10G10G23G07G16G06G03G32G20G13G19
 126761451.352 6  98775240.81243  24121913.195                    24121923.105
 104889273.446 8  81731921.19647  19959765.547                    19959771.145
 122391017.798 7  95369661.628 6  23290235.266                    23290244.109
 113572211.667 8  88497856.48246  21612073.742                    21612080.973
 115737779.736 7  90185317.75645  22024167.313                    22024176.098
 109460954.550 8  85294288.33746  20829727.891                    20829736.039
 127511374.944 6  99359550.66343  24264609.938                    24264621.094
 122501510.838 6  95455757.06744  23311264.508                    23311272.977
 108559640.509 8  84591958.86146  20658213.305                    20658220.859
 116256106.007 7  90589201.33545  22122801.953                    22122808.527
 11  8 24 15  3 30.0000000  0 10G10G23G07G16G06G03G32G20G13G19
 126727583.755 6  98748850.52543  24115468.336                    24115478.227
 104883614.382 8  81727511.52547  19958688.742                    19958694.410
 122334375.548 7  95325524.835 6  23279456.969                    23279465.953
 113649720.579 8  88558253.02345  21626823.422                    21626830.398
 115753671.992 7  90197701.31245  22027191.844                    22027200.559
 109443459.016 8  85280655.47146  20826398.273                    20826407.059
 127604199.565 6  99431881.40043  24282273.742                    24282284.977
 122587983.635 6  95523138.41744  23327719.953                    23327728.289
 108504098.233 8  84548679.17946  20647643.461                    20647651.508
 116179720.649 7  90529680.27545  22108265.891                    22108272.691
 11  8 24 15  4  0.0000000  0 10G10G23G07G16G06G03G32G20G13G19
 126694209.843 6  98722844.86643  24109117.289                    24109127.625
 104878490.979 8  81723519.25047  19957713.789                    19957719.379
 122277737.559 6  95281391.372 6  23268678.836                    23268687.836
 113727467.828 8  88618835.28145  21641618.172                    21641625.402
 115770114.436 7  90210513.58745  22030320.906                    22030329.605
 109426568.083 8  85267493.72046  20823184.047                    20823192.648
 127696978.905 6  99504176.87443  24299929.172                    24299939.578
 122674520.189 6  95590569.42744  23344187.016                    23344195.598
 108448942.123 8  84505700.39346  20637147.508                    20637155.172
 116103654.516 7  90470407.97745  22093791.156                    22093797.813
 11  8 24 15  4 30.0000000  0 10G10G23G07G16G06G03G32G20G13G19
 126661330.239 6  98697224.40343  24102861.711                    24102870.738
 104873904.299 8  81719945.21047  19956840.906                    19956846.605
 122221103.508 7  95237260.969 6  23257902.148                    23257910.313
 113805450.977 8  88679601.35245  21656457.875                    21656464.738
 115787106.850 7  90223754.42445  22033554.234                    22033562.738
 109410282.955 8  85254804.02746  20820084.914                    20820093.770
 127789710.238 6  99576434.93343  24317575.273                    24317586.684
 122761117.454 7  95658047.76544  23360666.063                    23360674.797
 108394174.684 8  84463024.48746  20626725.906                    20626733.301
 116027910.727 7  90411386.85545  22079377.305                    22079383.973
 11  8 24 15  5  0.0000000  0 10G10G23G07G16G06G03G32G20G13G19
 126628944.986 6  98671989.12943  24096698.531                    24096708.449
 104869855.120 8  81716789.98547  19956070.602                    19956076.102
 122164473.075 7  95193133.393 6  23247125.164                    23247134.070
 113883667.231 8  88740549.07745  21671341.469                    21671349.227
 115804648.927 7  90237423.56245  22036892.742                    22036901.645
 109394604.968 8  85242587.43346  20817101.555                    20817109.805
 127882391.040 6  99648653.59243  24335212.242                    24335222.969
 122847772.249 7  95725570.89744  23377155.711                    23377164.168
 108339798.173 8  84420653.19446  20616378.367                    20616385.758
 115952492.204 7  90352619.18745  22065025.883                    22065032.777
 11  8 24 15  5 30.0000000  0 10G10G23G07G16G06G03G32G20G13G19
 126597054.910 6  98647139.72543  24090629.852                    24090639.793
 104866345.107 8  81714054.90047  19955402.563                    19955407.844
 122107846.238 7  95149008.627 6  23236349.594                    23236358.598
 113962114.042 8  88801676.43745  21686269.891                    21686277.133
 115822740.590 7  90251520.95345  22040334.688                    22040343.660
 109379535.371 8  85230844.89446  20814233.922                    20814242.262
 127975018.834 6  99720830.97943  24352838.500                    24352849.645
 122934481.929 6  95793136.81843  23393656.336                    23393664.859
 108285815.102 8  84378588.47246  20606105.336                    20606113.020
 115877402.478 7  90294107.72645  22050736.375                    22050743.250
 11  8 24 15  6  0.0000000  0 10G10G23G07G16G06G03G32G20G13G19
 126565660.458 6  98622676.55443  24084655.469                    24084666.051
 104863375.306 8  81711740.76047  19954837.484                    19954843.027
 122051223.007 7  95104886.680 6  23225574.359                    23225583.945
 114040788.781 7  88862981.41245  21701240.945                    21701247.902
 115841381.793 7  90266046.55545  22043882.305                    22043891.012
 109365075.185 8  85219577.23146  20811482.219                    20811491.094
 128067591.398 6  99792965.31943  24370454.719                    24370466.051
 123021243.668 7  95860743.30944  23410166.180                    23410175.305
 108232228.149 8  84336832.42146  20595908.539                    20595916.258
 115802644.705 7  90235854.92845  22036510.672                    22036517.430
 11  8 24 15  6 30.0000000  0 10G10G23G07G16G06G03G32G20G13G19
 126534761.950 6  98598599.77243  24078775.844                    24078785.449
 104860946.515 8  81709848.18147  19954375.422                    19954381.020
 121994603.271 7  95060767.430 6  23214799.672                    23214808.594
 114119688.688 8  88924461.83145  21716254.984                    21716262.336
 115860572.039 7  90280999.98545  22047534.422                    22047542.973
 109351224.899 8  85208784.80646  20808846.805                    20808854.961
 128160105.862 6  99865054.35543  24388060.063                    24388071.012
 123108054.355 6  95928387.92744  23426686.250                    23426695.098
 108179039.626 8  84295386.83846  20585786.953                    20585794.801
 115728221.840 7  90177863.09845  22022348.602                    22022355.352
 11  8 24 15  7  0.0000000  0 10G10G23G07G16G06G03G32G20G13G19
 126504360.445 6  98574910.30543  24072990.250                    24073000.699
 104859060.753 8  81708378.74047  19954016.383                    19954021.922
 121937986.799 7  95016650.741 6  23204025.836                    23204035.234
 114198811.661 7  88986116.07145  21731312.203                    21731319.230
 115880311.442 7  90296381.31545  22051290.859                    22051299.648
 109337986.498 8  85198469.16946  20806327.406                    20806335.711
 128252560.307 6  99937096.64143  24405653.281                    24405664.336
 123194911.456 6  95996068.71544  23443214.281                    23443223.121
 108126252.374 8  84254253.92946  20575741.836                    20575749.586
 115654137.219 7  90120134.84945  22008250.781                    22008257.844
 11  8 24 15  7 30.0000000  0 10G10G23G07G16G06G03G32G20G13G19
 126474455.720 6  98551607.93243  24067299.914                    24067310.730
 104857718.104 8  81707332.50847  19953761.039                    19953766.648
 121881373.584 7  94972536.577 7  23193253.078                    23193262.176
 114278154.498 7  89047941.63145  21746410.695                    21746417.930
 115900599.338 7  90312190.06445  22055150.813                    22055159.133
 109325360.479 8  85188630.71346  20803924.664                    20803932.969
 128344951.826 6 100009089.87943  24423234.797                    24423246.121
 123281811.827 6  96063783.22944  23459751.148                    23459759.395
 108073868.614 8  84213435.42946  20565773.398                    20565781.391
 115580394.109 7  90062672.70745  21994217.789                    21994224.813
 11  8 24 15  8  0.0000000  0 10G10G23G07G16G06G03G32G20G13G19
 126445048.361 6  98528693.13443  24061703.875                    24061714.262
 104856919.779 8  81706710.41947  19953608.961                    19953614.637
 121824763.101 7  94928424.559 6  23182480.523                    23182489.328
 114357714.766 7  89109936.61545  21761550.063                    21761557.836
 115921435.436 7  90328425.98345  22059116.180                    22059125.070
 109313347.285 8  85179269.79146  20801639.055                    20801647.309
 128437278.036 6 100081032.29143  24440804.398                    24440815.574
 123368752.621 6  96131529.23444  23476295.328                    23476304.699
 108021890.627 8  84172933.11446  20555882.492                    20555890.090
 115506995.467 7  90005478.98745  21980250.219                    21980257.547
 11  8 24 15  8 30.0000000  0 10G10G23G07G16G06G03G32G20G13G19
 126416138.935 6  98506166.31743  24056202.508                    24056212.680
 104856667.330 8  81706513.69047  19953560.922                    19953566.930
 121768155.592 6  94884314.843 6  23171708.688                    23171717.316
 114437490.126 8  89172099.19245  21776731.016                    21776738.664
 115942819.660 7  90345089.01445  22063185.094                    22063194.492
 109301948.975 8  85170387.99246  20799469.578                    20799478.043
 128529536.655 6 100152921.93643  24458360.891                    24458371.695
 123455731.115 7  96199304.60844  23492846.828                    23492855.863
 107970321.137 8  84132749.10246  20546069.094                    20546076.840
 115433944.631 7  89948556.28845  21966348.984                    21966356.266
 11  8 24 15  9  0.0000000  0 10G10G23G07G16G06G03G32G20G13G19
 126387727.710 6  98484027.72144  24050796.078                    24050806.133
 104856961.082 8  81706742.57947  19953617.070                    19953622.750
 121711550.194 7  94840206.780 6  23160936.719                    23160945.598
 114517477.818 7  89234427.22745  21791952.148                    21791959.469
 115964751.362 7  90362178.64245  22067358.852                    22067367.359
 109291165.395 8  85161985.20246  20797418.094                    20797426.176
 128621724.754 6 100224756.67343  24475904.375                    24475915.414
 123542743.852 6  96267106.67344  23509405.008                    23509413.785
 107919161.978 8  84092884.83546  20536333.867                    20536341.414
 115361244.220 7  89891906.64945  21952514.875                    21952521.836
 11  8 24 15  9 30.0000000  0 10G10G23G07G16G06G03G32G20G13G19
 126359815.208 6  98462277.73943  24045484.031                    24045494.395
 104857802.374 8  81707398.11247  19953776.742                    19953782.695
 121654947.395 7  94796100.731 6  23150165.141                    23150174.105
 114597675.281 7  89296918.71445  21807213.375                    21807220.418
 115987230.283 7  90379694.69045  22071636.164                    22071645.332
 109280998.222 8  85154062.72346  20795483.023                    20795491.547
 128713840.571 6 100296535.09143  24493432.672                    24493444.098
 123629788.453 6  96334933.56344  23525969.086                    23525977.750
 107868416.213 8  84053342.68846  20526677.063                    20526684.836
 115288897.758 7  89835532.80845  21938747.992                    21938754.652
 11  8 24 15 10  0.0000000  0 10G10G23G07G16G06G03G32G20G13G19
 126332401.759 6  98440916.63343  24040267.898                    24040277.672
 104859192.157 8  81708481.04547  19954041.711                    19954046.938
 121598347.018 6  94751996.583 6  23139394.656                    23139403.754
 114678079.964 7  89359571.68145  21822513.648                    21822520.957
 116010256.071 7  90397636.85645  22076018.320                    22076027.172
 109271447.860 8  85146620.87746  20793665.523                    20793674.230
 128805881.214 6 100368254.92643  24510947.172                    24510958.625
 123716862.107 6  96402783.08044  23542538.344                    23542547.891
 107818086.190 8  84014124.49946  20517099.461                    20517107.398
 115216908.149 7  89779437.04145  21925048.633                    21925055.184
 11  8 24 15 10 30.0000000  0 10G10G23G07G16G06G03G32G20G13G19
 126305487.677 6  98419944.64943  24035146.242                    24035156.848
 104861131.670 8  81709992.34947  19954410.508                    19954416.500
 121541749.141 7  94707894.383 6  23128624.781                    23128633.883
 114758689.253 7  89422384.07845  21837853.320                    21837860.535
 116033828.521 7  90416004.99245  22080503.953                    22080512.457
 109262515.683 8  85139660.74146  20791965.938                    20791974.109
 128897844.552 6 100439914.51243  24528447.797                    24528458.828
 123803962.118 6  96470653.14144  23559113.094                    23559122.535
 107768174.441 8  83975232.23346  20507601.523                    20507609.434
 115145279.042 7  89723622.18646  21911418.063                    21911424.484
 11  8 24 15 11  0.0000000  0 10G10G23G07G16G06G03G32G20G13G19
 126279073.218 6  98399361.98843  24030119.086                    24030130.211
 104863621.738 8  81711932.65747  19954884.531                    19954889.723
 121485153.524 7  94663793.928 6  23117854.992                    23117863.418
 114839500.578 7  89485353.91645  21853230.922                    21853238.355
 116057946.977 7  90434798.60745  22085093.172                    22085102.156
 109254202.302 7  85133182.77646  20790383.586                    20790392.215
 128989728.143 6 100511511.96243  24545933.102                    24545944.324
 123891085.435 6  96538541.36843  23575692.758                    23575701.535
 107718683.406 8  83936667.78746  20498183.703                    20498191.535
 115074013.299 7  89668090.48545  21897856.469                    21897863.742
 11  8 24 15 11 30.0000000  0 10G10G23G07G16G06G03G32G20G13G19
 126253158.608 6  98379168.81743  24025187.922                    24025198.820
 104866663.038 8  81714302.48947  19955463.219                    19955469.027
 121428560.096 7  94619695.185 6  23107084.992                    23107094.137
 114920511.721 7  89548479.44745  21868647.203                    21868654.813
 116082610.760 7  90454017.11845  22089786.461                    22089795.797
 109246507.969 8  85127187.19846  20788919.703                    20788928.402
 129081529.444 6 100583045.31643  24563402.555                    24563413.188
 123978229.373 6  96606445.65943  23592275.430                    23592283.820
 107669615.304 8  83898432.90946  20488846.734                    20488854.047
 115003113.668 7  89612844.05245  21884364.945                    21884371.785
 11  8 24 15 12  0.0000000  0 10G10G23G07G16G06G03G32G20G13G19
 126227744.033 6  98359365.22743  24020351.203                    24020361.910
 104870256.429 8  81717102.51647  19956147.047                    19956152.652
 121371968.597 7  94575597.959 6  23096316.305                    23096325.715
 115001719.704 7  89611758.36145  21884100.742                    21884108.176
 116107819.452 7  90473660.24445  22094583.758                    22094592.785
 109239433.742 8  85121674.81146  20787573.484                    20787581.844
 129173246.04516                  24580854.906
 124065390.681 6  96674363.50143  23608861.711                    23608870.594
 107620972.447 8  83860529.39346  20479590.258                    20479597.480
 114932583.539 7  89557885.55846  21870943.680                    21870950.168
 11  8 24 15 12 30.0000000  0 10G10G23G07G16G06G03G32G20G13G19
 126202829.960 6  98339951.70743  24015610.227                    24015621.230
 104874403.466 8  81720333.97647  19956935.930                    19956941.598
 121315379.623 7  94531502.684 6  23085548.000                    23085556.035
 115083122.324 7  89675188.94445  21899590.961                    21899598.430
 116133572.988 7  90493727.92945  22099484.148                    22099492.824
 109232981.163 8  85116646.83046  20786345.617                    20786353.961
 129264876.17115                  24598292.125
 124152567.246 6  96742293.24444  23625450.680                    23625460.000
 107572757.883 8  83822959.61246  20470415.227                    20470422.813
 114862426.097 8  89503217.45946  21857592.453                    21857599.969
 11  8 24 15 13  0.0000000  0 10G10G23G07G16G06G03G32G20G13G19
 126178416.218 6  98320928.01744  24010965.008                    24010975.547
 104879103.989 8  81723996.70847  19957830.516                    19957836.406
 121258792.258 7  94487408.637 6  23074779.320                    23074788.180
 115164716.745 7  89738768.98245  21915118.008                    21915125.523
 116159870.459 7  90514219.43845  22104489.313                    22104497.703
 109227149.817 7  85112102.92946  20785236.313                    20785244.730
 129356416.68215                  24615710.977
 124239755.814 6  96810232.30844  23642042.617                    23642051.758
 107524973.317 8  83785724.89346  20461322.117                    20461329.746
 114792643.980 7  89448841.83945  21844313.758                    21844320.594
 11  8 24 15 13 30.0000000  0 10G10G23G07G16G06G03G32G20G13G19
 126154502.861 6  98302294.24243  24006415.109                    24006425.441
 104884358.976 8  81728091.47947  19958830.734                    19958836.281
 121202206.779 7  94443316.090 6  23064011.805                    23064021.250
 115246500.262 7  89802496.37345  21930680.820                    21930688.488
 116186711.169 7  90535134.26045  22109596.477                    22109604.973
 109221940.388 8  85108043.63346  20784244.469                    20784253.383
 129447865.05716 100868525.02052  24633113.828                    24633124.945
 124326953.508 7  96878178.49343  23658635.672                    23658644.547
 107477620.761 8  83748826.79546  20452310.953                    20452318.484
 114723240.120 8  89394760.94445  21831106.570                    21831113.320
 11  8 24 15 14  0.0000000  0 10G10G23G07G16G06G03G32G20G13G19
 126131091.676 6  98284051.77743  24001959.539                    24001969.855
 104890170.638 8  81732620.04447  19959936.508                    19959942.254
 121145624.480 7  94399226.011 6  23053244.398                    23053253.258
 115328471.972 7  89866370.40245  21946279.570                    21946286.699
 116214095.906 7  90556473.01245  22114807.758                    22114816.387
 109217355.142 8  85104470.71746  20783372.398                    20783380.176
 129539201.33915 100939694.09052  24650497.781                    24650507.078
 124414158.983 6  96946130.74243  23675230.125                    23675239.391
 107430704.588 8  83712268.74146  20443383.320                    20443390.578
 114654219.407 8  89340978.61845  21817972.164                    21817979.250
 11  8 24 15 14 30.0000000  0 10G10G23G07G16G06G03G32G20G13G19
 126108179.985 6  98266198.50643  23997599.430                    23997609.535
 104896537.278 8  81737581.04847  19961148.375                    19961153.559
 121089042.149 7  94355135.904 6  23042477.328                    23042485.594
 115410626.598 8  89930386.95645  21961913.211                    21961920.438
 116242021.262 7  90578233.01645  22120122.242                    22120130.367
 109213392.034 8  85101382.58946  20782618.398                    20782626.512
 129630458.374 6 101010803.87843  24667864.195                    24667875.602
 124501366.437 6  97014084.55243  23691825.531                    23691834.699
 107384224.111 8  83676050.18146  20434538.266                    20434545.809
 114585581.895 8  89287494.88645  21804911.078                    21804917.457
 11  8 24 15 15  0.0000000  0 10G10G23G07G16G06G03G32G20G13G19
 126085769.515 6  98248735.84643  23993335.156                    23993345.078
 104903461.224 8  81742976.31447  19962465.719                    19962471.578
 121032461.486 7  94311047.085 6  23031710.219                    23031718.891
 115492963.175 7  89994545.30745  21977581.148                    21977588.656
 116270488.295 7  90600415.10445  22125538.555                    22125547.484
 109210053.160 7  85098780.88346  20781982.398                    20781991.027
 129721617.250 6 101081836.58242  24685211.758                    24685223.129
 124588574.724 6  97082038.96344  23708420.430                    23708429.875
 107338183.490 8  83640174.38246  20425777.102                    20425784.977
 114517332.395 8  89234313.48446  21791923.781                    21791929.977
 11  8 24 15 15 30.0000000  0 10G10G23G07G16G06G03G32G20G13G19
 126063860.257 6  98231663.72743  23989165.148                    23989176.184
 104910942.933 8  81748806.20947  19963889.289                    19963894.934
 120975882.807 7  94266959.846 6  23020943.281                    23020952.461
 115575479.084 8  90058843.38845  21993283.500                    21993290.504
 116299496.408 7  90623018.81645  22131058.469                    22131067.004
 109207338.792 8  85096665.79645  20781465.766                    20781474.184
 129812675.021 5 101152790.55742  24702539.766                    24702551.449
 124675780.999 6  97149991.83443  23725015.617                    23725024.520
 107292585.000 8  83604643.09746  20417100.430                    20417108.012
 114449473.485 8  89181436.47146  21779010.320                    21779017.266
 11  8 24 15 16  0.0000000  0 10G10G23G07G16G06G03G32G20G13G19
 126042452.135 6  98214982.08243  23985092.109                    23985102.199
 104918983.224 8  81755071.35547  19965419.750                    19965425.137
 120919306.089 7  94222874.116 6  23010177.500                    23010186.094
 115658171.705 8  90123279.17045  22009019.320                    22009026.543
 116329044.638 7  90646043.42045  22136681.836                    22136690.188
 109205249.549 8  85095037.81046  20781068.594                    20781076.758
 129903629.60815 101223663.71852  24719845.977                    24719859.430
 124762982.548 6  97217941.02243  23741609.977                    23741618.465
 107247430.682 8  83569457.92746  20408507.602                    20408515.090
 114382008.328 8  89128866.25446  21766172.313                    21766178.797
 11  8 24 15 16 30.0000000  0 10G10G23G07G16G06G03G32G20G13G19
 126021545.760 6  98198691.36643  23981113.922                    23981124.047
 104927582.961 8  81761772.43446  19967056.063                    19967061.582
 120862731.385 7  94178789.937 6  22999412.078                    22999420.402
 115741039.235 8  90187851.26245  22024788.320                    22024795.738
 116359132.693 7  90669488.62045  22142407.172                    22142416.004
 109203786.038 8  85093897.45646  20780789.688                    20780798.777
 129994477.97915                  24737134.828
 124850177.422 6  97285884.98344  23758202.398                    23758211.516
 107202723.596 8  83534621.22746  20400000.250                    20400007.676
 114314940.367 8  89076605.55745  21753409.055                    21753415.906
 11  8 24 15 17  0.0000000  0  9G10G23G07G16G06G03G20G13G19
 126001140.597 6  98182791.29143  23977231.047                    23977241.090
 104936742.248 8  81768909.53347  19968798.586                    19968804.754
 120806158.202 7  94134706.985 6  22988646.531                    22988654.875
 115824078.636 7  90252557.24945  22040590.430                    22040598.020
 116389759.503 7  90693353.67845  22148235.391                    22148243.520
 109202948.613 8  85093244.92146  20780630.484                    20780639.203
 124937361.668 6  97353820.69643  23774792.867                    23774801.805
 107158465.147 8  83500134.13746  20391578.305                    20391585.707
 114248271.912 8  89024656.12245  21740722.945                    21740729.227
 11  8 24 15 17 30.0000000  0 10G10G23G07G16G06G03G32G20G13G19
 125981236.992 6  98167281.99443  23973443.398                    23973452.820
 104946462.072 8  81776483.41447  19970648.688                    19970654.090
 120749586.816 7  94090625.418 6  22977880.828                    22977889.461
 115907287.284 7  90317395.13345  22056424.117                    22056431.961
 116420924.276 7  90717637.91145  22154166.461                    22154174.883
 109202737.868 8  85093080.70946  20780590.727                    20780598.781
 130175844.40616 101435804.21453  24771649.008                    24771659.875
 125024532.898 6  97421746.24143  23791380.734                    23791390.391
 107114657.910 8  83465998.63146  20383241.484                    20383249.094
 114182006.217 8  88973020.54646  21728113.211                    21728119.762
 11  8 24 15 18  0.0000000  0  9G10G23G07G16G06G03G20G13G19
 125961834.681 7  98152163.30944  23969751.102                    23969761.520
 104956742.879 8  81784494.41646  19972604.992                    19972610.504
 120693017.091 7  94046545.146 6  22967115.805                    22967124.422
 115990662.873 8  90382363.09645  22072290.344                    22072298.016
 116452626.286 7  90742340.77445  22160198.914                    22160207.574
 109203153.911 8  85093404.90646  20780669.594                    20780678.043
 125111688.513 6  97489659.59043  23807966.445                    23807975.035
 107071304.257 8  83432216.56846  20374991.852                    20374999.098
 114116146.089 8  88921700.98946  21715580.016                    21715586.375
 11  8 24 15 18 30.0000000  0 10G10G23G08G07G16G06G03G20G13G19
 125942933.783 7  98137435.35643  23966154.188                    23966164.367
 104967585.290 8  81792943.03347  19974668.086                    19974673.898
 131290969.93516 102304831.78953  24983875.023                    24983886.000
 120636449.088 7  94002466.215 6  22956351.898                    22956360.301
 116074202.979 8  90447459.25145  22088187.602                    22088194.879
 116484864.769 7  90767461.67445  22166333.172                    22166341.754
 109204196.982 8  85094217.69046  20780868.055                    20780876.602
 125198825.474 6  97557558.42843  23824548.039                    23824557.469
 107028406.218 8  83398789.52546  20366828.586                    20366835.777
 114050694.401 7  88870699.70846  21703124.945                    21703131.156
 11  8 24 15 19  0.0000000  0 10G10G23G08G07G16G06G03G20G13G19
 125924533.652 6  98123097.62043  23962653.313                    23962663.043
 104978989.635 8  81801829.51347  19976838.445                    19976844.285
 131228923.156 6 102256483.67543  24972067.781                    24972079.004
 120579882.791 7  93958388.606 6  22945587.070                    22945595.266
 116157904.846 7  90512681.45945  22104115.641                    22104122.746
 116517638.539 7  90792999.68145  22172569.813                    22172578.574
 109205867.477 8  85095519.37246  20781186.195                    20781194.168
 125285941.113 6  97625440.67943  23841125.648                    23841134.980
 106985966.191 8  83365719.37846  20358752.469                    20358759.344
 113985654.195 7  88820019.04145  21690748.289                    21690754.402
 11  8 24 15 19 30.0000000  0 10G10G23G08G07G16G06G03G20G13G19
 125906634.760 6  98109150.42943  23959246.750                    23959256.633
 104990956.909 8  81811154.65047  19979115.750                    19979121.840
 131166824.554 6 102208095.17243  24960251.594                    24960262.125
 120523318.321 7  93914312.435 6  22934823.445                    22934832.156
 116241766.431 7  90578028.11745  22120074.000                    22120081.406
 116550947.302 7  90818954.53545  22178908.242                    22178917.289
 109208166.034 7  85097310.45746  20781623.367                    20781631.813
 125373032.850 6  97693304.29743  23857698.531                    23857707.816
 106943986.769 8  83333008.14746  20350763.859                    20350771.184
 113921028.365 7  88769661.27446  21678450.688                    21678456.977
 11  8 24 15 20  0.0000000  0 10G10G23G08G07G16G06G03G20G13G19
 125889236.665 7  98095593.49443  23955936.094                    23955945.313
 105003487.255 8  81820918.53847  19981500.203                    19981505.316
 131104673.569 6 102159665.89043  24948423.758                    24948434.820
 120466755.509 7  93870237.562 6  22924059.461                    22924068.277
 116325785.082 7  90643497.16845  22136061.945                    22136069.254
 116584790.010 7  90845325.47445  22185348.680                    22185357.441
 109211092.633 8  85099590.92946  20782180.258                    20782188.617
 125460097.966 6  97761147.15743  23874266.289                    23874275.578
 106902469.890 8  83300657.33246  20342863.406                    20342871.090
 113856819.986 7  88719628.79646  21666231.813                    21666238.629
 11  8 24 15 20 30.0000000  0 10G10G23G08G07G16G06G03G20G13G19
 125872339.650 7  98082426.96643  23952720.563                    23952730.090
 105016581.573 8  81831121.87047  19983992.023                    19983997.367
 131042469.682 6 102111195.42343  24936587.102                    24936598.406
 120410194.716 7  93826164.245 7  22913296.281                    22913305.039
 116409958.671 7  90709086.95645  22152080.352                    22152087.063
 116619165.779 7  90872111.79245  22191889.242                    22191898.617
 109214647.761 8  85102361.14946  20782856.406                    20782865.305
 125547133.868 6  97828967.25543  23890828.906                    23890838.297
 106861417.829 8  83268668.70546  20335051.828                    20335059.195
 113793031.903 8  88669923.81746  21654093.539                    21654100.371
 11  8 24 15 21  0.0000000  0 10G10G23G08G07G16G06G03G20G13G19
 125855943.465 7  98069650.72543  23949600.750                    23949610.313
 105030239.929 8  81841764.73547  19986590.938                    19986596.770
 130980212.687 5 102062683.52143  24924739.648                    24924751.008
 120353635.839 7  93782092.426 7  22902534.000                    22902542.820
 116494284.426 7  90774795.29845  22168126.594                    22168134.105
 116654073.615 7  90899312.68545  22198532.594                    22198541.363
 109218831.495 8  85105621.20946  20783652.742                    20783661.523
 125634137.763 6  97896762.42243  23907385.367                    23907394.617
 106820832.877 8  83237044.07246  20327328.789                    20327336.277
 113729666.826 7  88620548.45346  21642035.414                    21642042.051
 11  8 24 15 21 30.0000000  0 10G10G23G08G07G16G06G03G20G13G19
 125840047.782 6  98057264.47843  23946576.328                    23946585.668
 105044463.076 8  81852847.68847  19989297.430                    19989303.309
 130917901.887 6 102014129.71843  24912882.516                    24912893.645
 120297079.312 7  93738022.450 7  22891771.672                    22891780.105
 116578760.150 7  90840620.50145  22184201.828                    22184209.164
 116689512.633 7  90926927.51945  22205276.398                    22205285.316
 109223644.282 8  85109371.42446  20784568.680                    20784577.309
 125721106.931 6  97964530.54243  23923935.383                    23923944.887
 106780717.175 8  83205785.08646  20319694.516                    20319702.906
 113666727.849 7  88571505.11546  21630058.633                    21630064.918
 11  8 24 15 22  0.0000000  0 10G10G23G08G07G16G06G03G20G13G19
 125824652.760 7  98045268.35343  23943646.094                    23943655.961
 105059251.374 8  81864371.01047  19992111.930                    19992117.504
 130855536.668 5 101965533.49442  24901013.570                    24901025.859
 120240525.157 7  93693954.291 7  22881009.500                    22881017.938
 116663383.319 7  90906560.59845  22200304.906                    22200312.309
 116725481.985 7  90954955.58845  22212121.180                    22212130.313
 109229086.280 8  85113611.92946  20785604.203                    20785612.578
 125808038.721 6  98032269.50843  23940477.445                    23940487.145
 106741073.257 8  83174893.71846  20312151.234                    20312158.414
 113604218.430 8  88522796.48946  21618163.258                    21618169.766
 11  8 24 15 22 30.0000000  0 10G10G23G08G07G16G06G03G20G13G19
 125809757.700 7  98033661.77143  23940811.680                    23940821.289
 105074604.857 8  81876334.73847  19995033.172                    19995039.340
 130793116.742 6 101916894.62942  24889135.508                    24889147.324
 120183973.155 7  93649887.829 7  22870248.500                    22870256.781
 116748151.741 7  90972613.86945  22216436.555                    22216443.297
 116761980.449 7  90983395.93345  22219066.641                    22219075.129
 109235157.089 8  85118342.42146  20786759.469                    20786767.902
 125894930.208 6  98099977.06243  23957012.984                    23957022.129
 106701902.740 8  83144371.23746  20304696.719                    20304704.352
 113542140.600 7  88474424.18446  21606350.008                    21606357.191
 11  8 24 15 23  0.0000000  0 10G10G23G08G07G16G06G03G20G13G19
 125795362.623 7  98022444.82443  23938072.992                    23938082.066
 105090524.333 8  81888739.50347  19998062.633                    19998068.430
 130730641.659 6 101868212.81042  24877247.773                    24877258.914
 120127423.614 7  93605823.281 7  22859487.000                    22859495.844
 116833063.248 7  91038778.64745  22232594.008                    22232601.801
 116799007.112 7  91012247.87445  22226112.086                    22226121.230
 109241856.954 8  85123563.08946  20788034.641                    20788043.117
 125981778.993 6  98167651.31643  23973539.125                    23973548.992
 106663207.974 8  83114219.46646  20297333.578                    20297340.523
 113480497.223 8  88426390.40446  21594619.836                    21594626.043
 11  8 24 15 23 30.0000000  0 10G10G23G08G07G16G06G03G20G13G19
 125781467.254 7  98011617.26843  23935428.586                    23935438.074
 105107010.261 8  81901585.66447  20001200.047                    20001206.039
 130668111.417 6 101819487.97542  24865348.758                    24865359.539
 120070876.386 7  93561760.521 7  22848726.539                    22848734.680
 116918114.737 7  91105052.48245  22248778.813                    22248786.215
 116836561.154 7  91041510.75845  22233259.102                    22233266.938
 109249185.991 8  85129274.01446  20789428.992                    20789437.484
 126068582.567 6  98235290.38943  23990057.523                    23990067.270
 106624991.365 8  83084440.28846  20290061.359                    20290068.734
 113419291.570 8  88378697.70946  21582972.867                    21582979.531
 11  8 24 15 24  0.0000000  0 10G10G23G08G07G16G06G03G20G13G19
 125768071.513 7  98001179.03543  23932878.867                    23932888.762
 105124062.835 8  81914873.35947  20004445.117                    20004450.453
 130605525.375 5 101770719.64742  24853438.656                    24853449.691
 120014331.914 7  93517699.927 7  22837965.930                    22837974.965
 117003304.535 7  91171434.10745  22264989.531                    22264997.559
 116874641.727 7  91071183.92545  22240505.500                    22240513.969
 109257145.003 8  85135475.83146  20790943.773                    20790951.918
 126155338.178 6  98302892.05143  24006566.883                    24006576.488
 106587255.333 8  83055035.59546  20282880.258                    20282887.941
 113358525.975 8  88331347.91446  21571409.313                    21571416.379
 11  8 24 15 24 30.0000000  0 10G10G23G08G07G16G06G03G20G13G19
 125755174.750 6  97991129.60543  23930425.055                    23930434.930
 105141681.813 8  81928602.40947  20007798.039                    20007803.164
 130542882.339 5 101721906.95742  24841517.531                    24841529.641
 119957789.865 7  93473641.220 7  22827206.523                    22827215.547
 117088629.750 7  91237921.23845  22281227.039                    22281234.727
 116913247.311 7  91101266.17645  22247851.672                    22247860.281
 109265733.071 8  85142167.81346  20792578.070                    20792586.984
 126242042.889 6  98370454.05343  24023065.867                    24023075.863
 106550001.291 8  83026006.47846  20275790.820                    20275798.477
 113298203.443 8  88284343.36546  21559930.320                    21559936.879
 11  8 24 15 25  0.0000000  0 10G10G23G08G07G16G06G03G20G13G19
 125742776.817 7  97981468.87343  23928065.766                    23928075.293
 105159867.887 8  81942773.35347  20011258.594                    20011264.359
 130480182.586 5 101673050.10142  24829586.602                    24829597.898
 119901250.612 7  93429584.686 7  22816447.641                    22816455.996
 117174088.253 7  91304512.23445  22297489.063                    22297496.461
 116952376.779 7  91131756.67545  22255297.602                    22255306.180
 109274950.298 8  85149350.05245  20794331.992                    20794340.105
 126328694.051 6  98437974.31344  24039556.039                    24039565.164
 106513231.570 8  82997354.74946  20268793.930                    20268801.777
 113238326.725 8  88237686.20646  21548536.219                    21548542.828
 11  8 24 15 25 30.0000000  0 10G10G23G08G07G16G06G03G20G13G19
 125730877.195 7  97972196.43943  23925801.289                    23925811.445
 105178621.356 8  81957386.43347  20014827.234                    20014833.156
 130417425.610 6 101624148.62242  24817643.570                    24817655.418
 119844714.390 7  93385530.528 6  22805688.930                    22805697.293
 117259677.842 7  91371205.38845  22313776.445                    22313783.824
 116992029.357 7  91162654.77745  22262843.313                    22262852.047
 109284797.118 8  85157022.87646  20796205.836                    20796214.031
 126415289.345 6  98505451.08743  24056033.953                    24056044.297
 106476948.608 8  82969082.30946  20261889.750                    20261896.969
 113178898.759 8  88191378.72046  21537227.680                    21537234.094
 11  8 24 15 26  0.0000000  0 10G10G23G08G07G16G06G03G20G13G19
 125719475.553 6  97963312.04743  23923631.305                    23923641.930
 105197942.130 8  81972441.55746  20018503.820                    20018509.785
 130354611.058 6 101575202.23942  24805691.297                    24805702.445
 119788181.001 7  93341478.572 6  22794931.031                    22794939.480
 117345395.896 7  91437998.62945  22330087.938                    22330095.266
 117032203.508 7  91193959.28745  22270488.102                    22270497.414
 109295273.154 8  85165186.00146  20798199.531                    20798208.250
 126501825.954 6  98572882.08943  24072501.641                    24072511.207
 106441154.123 8  82941190.49746  20255078.422                    20255085.801
 113119921.897 8  88145422.74546  21526004.344                    21526011.652
 11  8 24 15 26 30.0000000  0 10G10G23G08G07G16G06G03G20G13G19
 125708571.571 6  97954815.43343  23921557.125                    23921566.598
 105217830.818 8  81987939.21346  20022288.516                    20022294.418
 130291738.439 6 101526210.60442  24793726.906                    24793737.387
 119731650.956 7  93297429.221 6  22784173.719                    22784182.176
 117431240.289 7  91504890.32145  22346423.625                    22346430.891
 117072898.339 7  91225669.51945  22278232.023                    22278240.527
 109306378.238 8  85173839.29746  20800312.328                    20800321.359
 126588301.284 6  98640265.35243  24088957.625                    24088966.922
 106405850.245 8  82913680.98246  20248359.969                    20248367.645
 113061399.114 8  88099820.58246  21514868.109                    21514874.809
 11  8 24 15 27  0.0000000  0 10G10G23G08G07G16G06G03G20G13G19
 125698164.747 6  97946706.24643  23919576.445                    23919586.266
 105238287.697 8  82003879.62046  20026181.508                    20026187.242
 130228807.139 6 101477173.23642  24781750.953                    24781761.949
 119675124.290 7  93253382.501 6  22773417.156                    22773425.156
 117517208.668 7  91571878.64245  22362783.031                    22362790.266
 117114112.814 7  91257784.67745  22286075.383                    22286083.715
 109318112.460 8  85182982.82046  20802545.523                    20802553.367
 126674712.794 6  98707598.93544  24105401.227                    24105410.836
 106371039.048 8  82886555.36646  20241735.781                    20241742.949
 113003333.252 8  88054574.47546  21503818.266                    21503824.965
 11  8 24 15 27 30.0000000  0 10G10G23G08G07G16G06G03G20G13G19
 125688254.832 6  97938984.19543  23917690.844                    23917700.457
 105259312.625 8  82020262.66447  20030182.188                    20030188.051
 130165816.969 6 101428090.02543  24769764.680                    24769774.898
 119618601.234 7  93209338.592 6  22762661.070                    22762669.551
 117603298.867 7  91638961.88945  22379165.141                    22379172.391
 117155845.564 7  91290303.66345  22294016.617                    22294025.977
 109330475.549 8  85192616.38646  20804897.711                    20804906.617
 126761057.760 6  98774880.63343  24121832.875                    24121841.895
 106336722.693 8  82859815.34546  20235205.227                    20235212.789
 112945726.824 7  88009686.36746  21492856.422                    21492862.992
 11  8 24 15 28  0.0000000  0 10G10G23G08G07G16G06G03G20G13G19
 125678840.911 7  97931648.68543  23915899.031                    23915908.574
 105280905.404 8  82037088.18947  20034291.250                    20034297.031
 130102767.630 6 101378960.72143  24757767.633                    24757777.910
 119562081.880 7  93165297.576 7  22751905.727                    22751914.516
 117689508.410 7  91706138.12045  22395570.766                    22395578.289
 117198095.378 7  91323225.59645  22302056.359                    22302065.297
 109343467.120 8  85202739.67346  20807370.656                    20807379.031
 126847333.562 6  98842108.43143  24138250.055                    24138258.918
 106302903.257 7  82833462.53246  20228769.961                    20228777.328
 112888582.415 8  87965158.27246  21481981.977                    21481988.672
 11  8 24 15 28 30.0000000  0 10G10G23G08G07G16G06G03G20G13G19
 125669922.656 6  97924699.37943  23914201.703                    23914212.223
 105303066.456 8  82054356.51646  20038508.500                    20038514.398
 130039658.816 6 101329785.03043  24745758.031                    24745768.801
 119505566.566 7  93121259.704 6  22741151.109                    22741159.758
 117775834.912 7  91773405.49645  22411997.773                    22412005.438
 117240860.964 7  91356549.40145  22310195.031                    22310203.250
 109357086.981 8  85213352.54346  20809962.359                    20809970.680
 126933537.695 6  98909280.37343  24154654.078                    24154664.105
 106269582.576 8  82807498.36246  20222429.375                    20222436.695
 112831902.914 8  87920992.43846  21471196.383                    21471202.969
 11  8 24 15 29  0.0000000  0 10G10G23G08G07G16G06G03G20G13G19
 125661499.496 6  97918135.87643  23912599.492                    23912608.770
 105325795.904 8  82072067.75646  20042833.672                    20042839.512
 129976490.115 6 101280562.70543  24733737.313                    24733747.754
 119449055.382 7  93077225.048 6  22730397.172                    22730406.113
 117862276.325 7  91840762.40145  22428446.898                    22428454.672
 117284141.157 7  91390274.21145  22318430.578                    22318439.879
 109371335.081 8  85224454.94945  20812673.422                    20812682.125
 127019667.669 6  98976394.56943  24171043.906                    24171054.027
 106236762.744 8  82781924.46046  20216183.750                    20216191.035
 112775690.947 8  87877190.92046  21460499.523                    21460506.656
 11  8 24 15 29 30.0000000  0 10G10G23G08G07G16G06G03G20G13G19
 125653571.149 6  97911957.92843  23911091.219                    23911100.395
 105349093.582 8  82090221.76846  20047266.992                    20047272.895
 129913261.193 6 101231293.49143  24721705.648                    24721715.672
 119392548.471 7  93033193.713 7  22719644.688                    22719652.656
 117948830.095 7  91908206.86145  22444917.977                    22444925.383
 117327934.688 7  91424399.02445  22326764.180                    22326772.828
 109386211.037 8  85236046.59246  20815504.461                    20815512.879
 127105720.620 6  99043448.69643  24187419.180                    24187429.680
 106204445.741 7  82756742.37646  20210034.141                    20210041.563
 112719949.119 8  87833755.73946  21449892.297                    21449898.824
 11  8 24 15 30  0.0000000  0 10G10G23G08G07G16G06G03G20G13G19
 125646137.244 6  97906165.25743  23909675.984                    23909685.656
 105372960.059 8  82108819.00346  20051808.969                    20051814.445
 129849971.613 6 101181976.98843  24709661.367                    24709672.246
 119336046.241 7  92989166.016 6  22708892.344                    22708900.754
 118035494.331 7  91975737.40445  22461409.609                    22461417.035
 117372240.360 7  91458922.91145  22335194.953                    22335204.277
 109401714.337 8  85248127.07646  20818454.383                    20818462.805
 127191694.284 6  99110441.02543  24203780.234                    24203789.078
 106172633.581 8  82731953.68446  20203980.461                    20203988.219
 112664680.005 8  87790688.91846  21439374.922                    21439381.285
 11  8 24 15 30 30.0000000  0 10G10G23G08G07G16G06G03G20G13G19
 125639196.785 6  97900757.14143  23908355.625                    23908365.008
 105397394.614 8  82127858.89446  20056458.383                    20056464.258
 129786620.814 6 101132612.79043  24697605.148                    24697616.684
 119279548.498 7  92945141.835 6  22698141.336                    22698149.270
 118122266.349 7  92043351.92445  22477922.000                    22477929.566
 117417056.520 7  91493844.58445  22343723.234                    22343732.496
 109417844.914 8  85260696.34346  20821524.078                    20821532.707
 127277585.951 6  99177369.52343  24220124.188                    24220133.715
 106141327.970 8  82707559.70046  20198023.203                    20198030.676
 112609886.281 8  87747992.52246  21428947.945                    21428954.434
 11  8 24 15 31  0.0000000  0 10G10G23G08G07G16G06G03G20G13G19
 125632749.166 6  97895732.99443  23907128.727                    23907138.043
 105422397.404 8  82147341.56346  20061216.477                    20061222.066
 129723208.596 6 101083200.74143  24685539.305                    24685549.406
 119223055.852 7  92901121.626 7  22687391.180                    22687399.438
 118209144.136 7  92111048.87745  22494454.281                    22494461.699
 117462382.084 7  91529163.19045  22352348.875                    22352357.887
 109434602.628 8  85273754.29246  20824713.023                    20824721.574
 127363392.983 6  99244232.00643  24236453.203                    24236462.852
 106110530.987 8  82683562.04746  20192162.922                    20192169.945
 112555570.378 8  87705668.45146  21418612.078                    21418618.766
 11  8 24 15 31 30.0000000  0 10G10G23G08G07G16G06G03G20G13G19
 125626793.836 6  97891092.46543  23905994.477                    23906004.684
 105447968.936 8  82167267.41046  20066082.414                    20066088.020
 129659734.965 6 101033740.85044  24673460.586                    24673471.434
 119166568.281 7  92857105.373 7  22676641.359                    22676650.309
 118296125.688 7  92178826.67645  22511006.336                    22511013.789
 117508215.704 7  91564877.69145  22361070.320                    22361079.250
 109451986.847 8  85287300.42746  20828020.789                    20828029.598
 127449113.163 6  99311026.87743  24252765.180                    24252775.254
 106080244.817 8  82659962.42846  20186399.164                    20186406.719
 112501735.216 8  87663718.99646  21408367.484                    21408374.184
 11  8 24 15 32  0.0000000  0 10G10G23G08G07G16G06G03G20G13G19
 125621330.382 6  97886835.22643  23904955.227                    23904965.449
 105474108.492 8  82187635.86646  20071057.109                    20071062.770
 129596198.933 6 100984232.31543  24661369.781                    24661380.262
 119110086.174 7  92813093.376 7  22665893.414                    22665901.883
 118383208.423 7  92246683.32145  22527577.398                    22527584.977
 117554555.861 7  91600986.87445  22369888.961                    22369898.180
 109469996.893 8  85301334.22646  20831448.391                    20831456.691
 127534743.663 6  99377751.77443  24269061.055                    24269070.512
 106050470.913 8  82636761.96746  20180733.750                    20180741.020
 112448382.998 8  87622145.85146  21398215.070                    21398221.457
 11  8 24 15 32 30.0000000  0 10G10G23G08G07G16G06G03G20G13G19
 125616358.057 6  97882960.68743  23904009.445                    23904019.250
 105500816.097 8  82208446.96546  20076138.828                    20076144.742
 129532600.115 6 100934674.88543  24649267.359                    24649277.922
 119053610.181 7  92769086.146 7  22655146.539                    22655155.285
 118470390.259 7  92314617.17945  22544167.578                    22544175.176
 117601401.448 7  91637489.92345  22378803.320                    22378812.191
 109488632.641 8  85315855.57746  20834994.586                    20835003.434
 127620281.908 6  99444404.81243  24285338.219                    24285347.770
 106021211.490 8  82613962.39746  20175165.867                    20175172.828
 112395516.453 8  87580951.14546  21388154.961                    21388161.098
 11  8 24 15 33  0.0000000  0 10G10G23G08G07G16G06G03G20G13G19
 125611875.867 6  97879468.06744  23903156.398                    23903166.703
 105528091.505 8  82229700.51046  20081329.281                    20081335.188
 129468938.825 6 100885068.77043  24637152.594                    24637163.746
 118997140.070 7  92725083.486 7  22644400.500                    22644408.930
 118557668.742 7  92382626.34444  22560775.914                    22560783.750
 117648750.664 7  91674385.40145  22387813.508                    22387822.152
 109507893.068 8  85330863.69146  20838660.031                    20838668.344
 127705725.613 6  99510984.18243  24301597.398                    24301607.699
 105992468.133 8  82591564.96646  20169695.984                    20169703.426
 112343137.820 8  87540136.64646  21378187.242                    21378194.020
 11  8 24 15 33 30.0000000  0 10G10G23G08G07G16G06G03G20G13G19
 125607883.511 6  97876357.13943  23902396.531                    23902406.777
 105555934.867 8  82251396.60446  20086627.766                    20086633.504
 129405214.423 6 100835413.44843  24625026.945                    24625037.461
 118940676.212 7  92681085.713 7  22633655.672                    22633664.125
 118645041.895 7  92450709.28545  22577402.969                    22577410.461
 117696602.141 7  91711672.25945  22396919.016                    22396927.930
 109527778.507 8  85346358.83046  20842443.961                    20842452.168
 127791072.071 6  99577487.77843  24317838.414                    24317848.344
 105964242.804 8  82569571.19446  20164325.023                    20164332.773
 112291249.715 8  87499704.37746  21368313.156                    21368319.582
 11  8 24 15 34  0.0000000  0 10G10G23G08G07G16G06G03G20G13G19
 125604379.957 6  97873627.07343  23901730.398                    23901740.066
 105584345.738 8  82273534.91846  20092034.281                    20092040.156
 129341426.417 6 100785708.56643  24612886.805                    24612898.484
 118884218.613 7  92637092.812 7  22622912.242                    22622920.766
 118732507.622 7  92518864.33945  22594046.773                    22594054.645
 117744954.446 7  91749349.36545  22406120.578                    22406129.430
 109548287.788 8  85362340.08446  20846346.734                    20846355.426
 127876319.047 6  99643913.85443  24334060.500                    24334070.184
 105936537.281 8  82547982.46246  20159052.711                    20159060.109
 112239854.852 8  87459656.43446  21358533.320                    21358539.852
 11  8 24 15 34 30.0000000  0 10G10G23G08G07G16G06G03G20G13G19
 125601364.538 6  97871277.40443  23901156.289                    23901166.590
 105613324.317 8  82296115.60246  20097548.664                    20097554.453
 129277574.710 6 100735954.07043  24600737.234                    24600748.168
 118827767.846 7  92593105.235 7  22612170.227                    22612178.680
 118820063.834 7  92587089.92945  22610708.484                    22610716.227
 117793806.438 7  91787415.82545  22415416.813                    22415425.719
 109569420.455 7  85378807.08646  20850368.359                    20850376.504
 127961464.157 6  99710260.52643  24350263.680                    24350273.430
 105909353.711 7  82526800.45846  20153880.250                    20153887.570
 112188955.493 8  87419994.61146  21348847.453                    21348854.043
 11  8 24 15 35  0.0000000  0 10G10G23G08G07G16G06G03G20G13G19
 125598836.653 6  97869307.60943  23900674.898                    23900684.965
 105642870.163 8  82319138.32046  20103170.961                    20103176.699
 129213659.249 6 100686149.89843  24588574.367                    24588585.520
 118771324.675 7  92549123.571 7  22601429.047                    22601437.828
 118907708.289 7  92655384.26745  22627386.977                    22627394.703
 117843156.521 7  91825870.42145  22424808.094                    22424816.625
 109591176.151 8  85395759.56846  20854508.156                    20854516.563
 128046504.707 6  99776525.76543  24366446.195                    24366456.191
 105882694.025 8  82506026.67946  20148806.852                    20148813.977
 112138554.174 8  87380720.87446  21339256.289                    21339262.824
 11  8 24 15 35 30.0000000  0 10G10G23G08G07G16G06G03G20G13G19
 125596795.267 6  97867716.91043  23900286.344                    23900296.207
 105672983.149 8  82342602.95546  20108901.281                    20108906.965
 129149679.602 6 100636295.72543  24576399.195                    24576410.355
 118714888.862 7  92505147.647 7  22590690.078                    22590698.328
 118995438.603 7  92723745.50845  22644081.180                    22644088.980
 117893003.116 7  91864711.90645  22434292.906                    22434301.988
 109613554.110 8  85413196.93146  20858766.344                    20858774.938
 128131438.263 6  99842707.62643  24382608.703                    24382618.832
 105856559.546 8  82485662.15146  20143833.789                    20143840.898
 112088653.354 8  87341837.12846  21329760.633                    21329767.191
 11  8 24 15 36  0.0000000  0 10G10G23G08G07G16G06G03G20G13G19
 125595239.589 6  97866504.66343  23899989.727                    23900000.016
 105703662.285 8  82366508.74046  20114739.477                    20114745.672
 129085635.413 6 100586391.21043  24564212.156                    24564222.641
 118658460.747 7  92461177.719 7  22579951.891                    22579960.449
 119083252.728 7  92792172.05645  22660792.078                    22660799.738
 117943344.469 7  91903938.91045  22443873.156                    22443882.516
 109636553.727 8  85431118.71245  20863143.453                    20863151.738
 128216262.210 6  99908804.05843  24398749.906                    24398760.430
 105830952.386 8  82465708.52146  20138960.891                    20138968.129
 112039255.562 8  87303345.35446  21320360.547                    21320367.133
 11  8 24 15 36 30.0000000  0 10G10G23G08G07G16G06G03G20G13G19
 125594168.867 6  97865670.34843  23899786.766                    23899796.727
 105734908.011 8  82390856.04146  20120685.383                    20120691.344
 129021526.059 6 100536435.91443  24552012.234                    24552022.836
 118602040.537 7  92417213.958 7  22569215.453                    22569224.023
 119171148.409 7  92860662.16445  22677517.711                    22677525.777
 117994179.076 7  91943550.26845  22453546.555                    22453555.316
 109660174.273 8  85449524.33546  20867637.813                    20867646.777
 128300973.945 6  99974813.05443  24414870.172                    24414880.379
 105805873.337 8  82446166.41046  20134188.453                    20134196.070
 111990362.607 8  87265246.95846  21311056.344                    21311062.910
 11  8 24 15 37  0.0000000  0 10G10G23G08G07G16G06G03G20G13G19
 125593582.417 6  97865213.36143  23899675.359                    23899685.230
 105766719.872 8  82415644.47946  20126738.914                    20126744.906
 128957351.674 6 100486429.96643  24539799.422                    24539811.125
 118545629.065 7  92373256.999 7  22558481.109                    22558489.141
 119259123.954 7  92929214.50145  22694258.938                    22694266.941
 118045505.695 7  91983545.02245  22463313.758                    22463322.668
 109684415.027 8  85468413.22846  20872250.516                    20872259.523
 128385571.617 6 100040733.16843  24430968.961                    24430978.773
 105781325.426 8  82427038.17446  20129516.891                    20129524.051
 111941977.415 8  87227544.22846  21301849.070                    21301855.668
 11  8 24 15 37 30.0000000  0 10G10G23G08G07G16G06G03G20G13G19
 125593479.280 6  97865132.97443  23899655.125                    23899665.188
 105799097.745 8  82440873.97046  20132900.500                    20132905.762
 128893112.059 6 100436373.20843  24527575.945                    24527586.496
 118489226.454 7  92329306.946 7  22547747.859                    22547756.262
 119347177.204 7  92997827.38944  22711015.273                    22711022.730
 118097322.751 7  92023921.91645  22473173.789                    22473183.449
 109709275.156 7  85487784.75446  20876981.703                    20876990.219
 128470052.501 6 100106562.26243  24447044.984                    24447055.738
 105757310.068 8  82408324.90846  20124947.063                    20124954.262
 111894102.158 8  87190238.83146  21292738.867                    21292745.781
 11  8 24 15 38  0.0000000  0 10G10G23G08G07G16G06G03G20G13G19
 125593858.203 6  97865428.23444  23899727.828                    23899736.992
 105832040.861 8  82466543.90246  20139169.242                    20139174.922
 128828806.970 6 100386265.40743  24515338.805                    24515349.164
 118432833.033 7  92285364.052 7  22537016.695                    22537024.918
 119435305.728 7  93066498.92644  22727785.109                    22727793.145
 118149628.408 7  92064679.53645  22483127.633                    22483136.750
 109734753.957 8  85507638.36646  20881830.227                    20881838.477
 128554414.153 6 100172298.44743  24463098.383                    24463109.176
 105733828.588 8  82390027.64646  20120478.656                    20120486.172
 111846739.285 8  87153332.70546  21283725.844                    21283732.398
 11  8 24 15 38 30.0000000  0 10G10G23G08G07G16G06G03G20G13G19
 125594718.481 6  97866098.55844  23899891.375                    23899901.215
 105865548.868 8  82492654.00646  20145545.445                    20145551.867
 128764435.776 6 100336106.10743  24503090.125                    24503099.805
 118376449.163 7  92241428.605 7  22526287.094                    22526295.672
 119523507.526 7  93135227.55945  22744569.188                    22744577.582
 118202421.016 7  92105816.61245  22493173.766                    22493182.473
 109760850.534 8  85527973.36545  20886796.203                    20886804.801
 128638654.046 6 100237939.76043  24479128.711                    24479138.922
 105710882.725 8  82372147.75146  20116112.344                    20116119.664
 111799890.996 8  87116827.56246  21274810.555                    21274817.617
 11  8 24 15 39  0.0000000  0 10G10G23G08G07G16G06G03G20G13G19
 125596059.046 6  97867143.14743  23900146.656                    23900156.621
 105899621.167 8  82519203.82746  20152029.273                    20152035.250
 128699998.310 6 100285895.14543  24490827.156                    24490838.133
 118320074.959 7  92197500.690 7  22515559.148                    22515567.773
 119611780.454 7  93204011.61144  22761368.047                    22761375.633
 118255698.937 7  92147331.85745  22503312.438                    22503321.391
 109787563.978 8  85548789.02745  20891879.727                    20891888.039
 128722769.808 6 100303484.37443  24495136.930                    24495146.367
 105688473.819 8  82354686.26346  20111848.219                    20111855.570
 111753559.477 8  87080725.08946  21265993.969                    21266000.727
 11  8 24 15 39 30.0000000  0 10G10G23G08G07G16G06G03G20G13G19
 125597878.941 6  97868561.23043  23900493.258                    23900503.484
 105934257.417 8  82546193.08946  20158620.539                    20158626.117
 128635494.685 6 100235632.66843  24478552.945                    24478564.199
 118263710.508 7  92153580.368 7  22504833.391                    22504841.602
 119700122.412 7  93272849.46344  22778178.156                    22778186.023
 118309460.567 7  92189223.98445  22513542.703                    22513552.082
 109814893.565 7  85570084.81145  20897080.250                    20897088.387
 128806758.967 6 100368930.30243  24511118.570                    24511128.828
 105666603.890 8  82337644.76246  20107686.164                    20107693.754
 111707747.194 8  87045027.22046  21257276.633                    21257283.277
 11  8 24 15 40  0.0000000  0 10G10G23G08G07G16G06G03G20G13G19
 125600177.287 6  97870352.12843  23900930.711                    23900940.527
 105969457.423 8  82573621.63546  20165318.773                    20165324.469
 128570924.858 6 100185318.53443  24466265.453                    24466276.363
 118207357.414 7  92109668.890 7  22494109.570                    22494118.055
 119788531.459 7  93341739.58244  22795002.242                    22795009.832
 118363704.348 7  92231491.85444  22523864.820                    22523873.691
 109842838.586 7  85591860.14445  20902397.633                    20902406.332
 128890619.287 6 100434275.86342  24527077.141                    24527086.500
 105645274.844 8  82321024.72046  20103627.586                    20103634.809
 111662456.369 8  87009735.67646  21248657.531                    21248664.738
 11  8 24 15 40 30.0000000  0 10G10G23G08G07G16G06G03G20G13G19
 125602953.153 6  97872515.12944  23901458.563                    23901468.551
 106005220.431 8  82601488.88346  20172124.258                    20172130.258
 128506287.815 6 100134952.04543  24453966.297                    24453975.594
 118151015.519 7  92065766.155 7  22483387.859                    22483396.820
 119877005.717 7  93410680.52344  22811838.266                    22811845.918
 118418428.514 7  92274134.03945  22534278.484                    22534287.930
 109871398.310 7  85614114.46445  20907832.734                    20907841.152
 128974348.276 6 100499519.09443  24543010.297                    24543020.102
 105624487.792 8  82304827.00346  20099672.141                    20099679.109
 111617688.860 8  86974851.92246  21240138.992                    21240145.500
 11  8 24 15 41  0.0000000  0 10G10G23G08G07G16G06G03G20G13G19
 125606205.556 6  97875049.43144  23902077.508                    23902087.367
 106041545.982 8  82629794.48546  20179036.852                    20179043.047
 128441583.455 6 100084533.08943  24441653.422                    24441663.344
 118094685.248 7  92021872.459 7  22472668.766                    22472677.340
 119965542.898 7  93479670.49544  22828686.461                    22828693.902
 118473631.566 7  92317149.37344  22544783.164                    22544792.668
 109900571.680 8  85636846.95345  20913384.008                    20913392.523
 129057943.817 6 100564658.35743  24558918.219                    24558927.852
 105604244.680 8  82289053.14846  20095819.805                    20095827.141
 111573447.335 8  86940378.01046  21231720.117                    21231726.645
 11  8 24 15 41 30.0000000  0 10G10G23G08G07G16G06G03G20G13G19
 125609933.380 6  97877954.22644  23902786.750                    23902796.996
 106078433.620 8  82658538.06746  20186056.250                    20186062.113
 128376811.905 6 100034061.81943  24429327.289                    24429337.719
 118038366.688 7  91977987.897 7  22461951.547                    22461960.270
 120054141.040 7  93548707.97044  22845545.906                    22845553.738
 118529311.471 7  92360536.29945  22555378.883                    22555387.441
 109930357.206 7  85660056.44945  20919051.930                    20919060.551
 129141403.352 6 100629691.58143  24574800.078                    24574810.004
 105584546.733 8  82273704.10246  20092071.109                    20092078.906
 111529733.713 8  86906315.47046  21223401.398                    21223408.254
 11  8 24 15 42  0.0000000  0 10G10G23G08G07G16G06G03G20G13G19
 125614135.561 6  97881228.63743  23903586.430                    23903596.438
 106115882.718 8  82687719.16146  20193182.867                    20193188.492
 128311972.866 6  99983537.94043  24416988.625                    24416999.629
 117982060.665 7  91934113.105 7  22451237.125                    22451245.344
 120142798.114 7  93617791.37944  22862416.422                    22862424.398
 118585466.621 7  92404293.54145  22566064.820                    22566074.098
 109960754.273 8  85683742.46745  20924836.602                    20924844.715
 129224724.467 6 100694616.98743  24590655.891                    24590665.652
 105565395.608 8  82258781.14746  20088426.859                    20088434.527
 111486550.305 8  86872666.07246  21215183.797                    21215190.656
 11  8 24 15 42 30.0000000  0 10G10G23G08G07G16G06G03G20G13G19
 125618810.784 6  97884871.63644  23904476.695                    23904486.664
 106153892.295 8  82717336.99046  20200415.398                    20200421.504
 128247065.982 7  99932961.17943  24404637.422                    24404647.680
 117925767.140 7  91890248.048 7  22440524.781                    22440533.160
 120231511.977 7  93686919.01644  22879298.430                    22879306.492
 118642095.000 7  92448419.50944  22576840.945                    22576850.262
 109991761.737 8  85707904.12046  20930737.102                    20930745.719
 129307904.759 6 100759432.63143  24606483.766                    24606494.641
 105546792.326 8  82244285.07046  20084887.102                    20084894.273
 111443899.056 8  86839431.33746  21207068.227                    21207074.316
 11  8 24 15 43  0.0000000  0 10G10G23G08G07G16G06G03G20G13G19
 125623958.134 6  97888882.55043  23905455.727                    23905465.426
 106192462.037 8  82747391.30346  20207755.297                    20207761.238
 128182091.315 7  99882331.65043  24392272.961                    24392283.141
 117869486.983 7  91846393.401 7  22429814.508                    22429823.238
 120320280.660 7  93756089.38644  22896190.445                    22896198.281
 118699195.242 7  92492913.19244  22587707.523                    22587716.082
 110023378.736 8  85732540.73345  20936753.609                    20936762.203
 129390942.211 6 100824136.95543  24622285.742                    24622296.258
 105528739.048 8  82230217.57446  20081451.445                    20081458.660
 111401782.321 8  86806613.11646  21199053.289                    21199059.480
 11  8 24 15 43 30.0000000  0 10G10G23G08G07G16G06G03G20G13G19
 125629576.478 6  97893260.45644  23906524.922                    23906534.859
 106231591.297 8  82777881.61146  20215201.578                    20215206.797
 128117048.490 7  99831648.96243  24379895.805                    24379905.121
 117813220.578 7  91802549.472 7  22419107.414                    22419115.582
 120409102.242 7  93825300.97444  22913092.133                    22913100.699
 118756765.323 7  92537772.98744  22598662.242                    22598670.820
 110055603.942 7  85757651.27745  20942885.586                    20942893.875
 129473834.489 6 100888728.19143  24638059.539                    24638070.543
 105511237.108 8  82216579.70246  20078121.086                    20078128.551
 111360202.038 8  86774212.90446  21191140.359                    21191147.035
 11  8 24 15 44  0.0000000  0 10G10G23G08G07G16G06G03G20G13G19
 125635664.736 6  97898004.51543  23907683.617                    23907693.949
 106271279.747 8  82808807.65846  20222753.703                    20222759.703
 128051937.667 6  99780913.29243  24367505.641                    24367515.371
 117756968.589 7  91758716.773 7  22408403.258                    22408411.988
 120497975.114 7  93894552.51544  22930004.906                    22930013.082
 118814803.796 7  92582997.74444  22609706.352                    22609715.148
 110088436.423 7  85783235.01745  20949133.633                    20949141.711
 129556579.043 6 100953204.28843  24653805.594                    24653816.020
 105494288.263 8  82203372.80946  20074895.875                    20074903.102
 111319160.636 8  86742232.60846  21183330.859                    21183337.152
 11  8 24 15 44 30.0000000  0 10G10G23G08G07G16G06G03G20G13G19
 125642221.548 6  97903113.71743  23908931.078                    23908941.008
 106311526.266 8  82840168.55646  20230412.445                    20230418.387
 127986758.543 6  99730124.41943  24355101.727                    24355112.516
 117700731.238 7  91714895.485 7  22397701.039                    22397710.305
 120586896.772 7  93963842.06844  22946926.336                    22946933.730
 118873308.480 7  92628585.79445  22620839.563                    22620848.242
 110121875.037 8  85809291.08245  20955496.930                    20955505.570
 129639173.557 6 101017563.45743  24669522.914                    24669533.387
 105477893.482 8  82190597.65446  20071776.109                    20071783.555
 111278659.868 8  86710673.58346  21175623.898                    21175630.742
 11  8 24 15 45  0.0000000  0 10G10G23G08G07G16G06G03G20G13G19
 125649245.616 6  97908586.98643  23910267.648                    23910277.332
 106352330.020 8  82871963.66646  20238177.273                    20238183.332
 127921510.874 6  99679282.15443  24342686.039                    24342696.277
 117644508.835 7  91671085.850 7  22387002.758                    22387010.984
 120675865.450 7  94033168.27544  22963856.656                    22963864.449
 118932277.387 7  92674535.56045  22632061.070                    22632069.789
 110155918.690 8  85835818.59845  20961974.930                    20961983.352
 129721615.881 6 101081804.06343  24685211.492                    24685221.840
 105462054.051 8  82178255.24446  20068761.391                    20068769.348
 111238701.219 8  86679536.98846  21168019.938                    21168026.422
 11  8 24 15 45 30.0000000  0 10G10G23G08G07G16G06G03G20G13G19
 125656736.041 6  97914423.66143  23911693.461                    23911702.672
 106393690.485 8  82904192.57546  20246047.992                    20246053.770
 127856194.503 6  99628386.34443  24330257.109                    24330267.078
 117588302.317 7  91627288.583 7  22376307.555                    22376315.621
 120764879.186 7  94102529.56444  22980795.773                    22980802.988
 118991709.079 7  92720845.95144  22643370.047                    22643379.316
 110190566.364 7  85862816.77945  20968568.086                    20968576.805
 129803903.520 6 101145924.11643  24700870.430                    24700881.391
 105446771.844 8  82166347.02646  20065853.609                    20065861.086
 111199287.451 8  86648824.97846  21160519.539                    21160526.305
 11  8 24 15 46  0.0000000  0 10G10G23G08G07G16G06G03G20G13G19
 125664691.598 6  97920622.80343  23913206.516                    23913216.980
 106435607.051 8  82936854.81046  20254024.398                    20254029.895
 127790809.230 6  99577436.85743  24317813.992                    24317824.758
 117532111.921 7  91583503.881 7  22365614.383                    22365622.516
 120853936.116 7  94171924.52244  22997742.078                    22997749.852
 119051601.791 7  92767515.57244  22654767.813                    22654776.934
 110225816.818 8  85890284.67445  20975276.031                    20975284.332
 129886034.551 6 101209922.10942  24716499.250                    24716510.324
 105432048.266 8  82154874.09746  20063051.859                    20063059.398
 111160420.629 8  86618539.15946  21153123.531                    21153130.051
 11  8 24 15 46 30.0000000  0 10G10G23G08G07G16G06G03G20G13G19
 125673110.566 6  97927182.97843  23914809.039                    23914819.227
 106478078.364 8  82969949.31746  20262106.516                    20262112.242
 127725354.714 6  99526433.38343  24305358.633                    24305368.703
 117475937.923 7  91539731.960 7  22354925.055                    22354933.367
 120943034.010 7  94241351.39544  23014696.969                    23014705.125
 119111952.923 7  92814542.38644  22666252.000                    22666261.367
 110261668.465 7  85918221.01445  20982098.391                    20982107.172
 129968006.337 6 101273796.04043  24732098.578                    24732108.945
 105417883.749 8  82143836.80646  20060356.914                    20060364.160
 111122102.318 8  86588680.75346  21145831.570                    21145838.008
 11  8 24 15 47  0.0000000  0 10G10G23G08G07G16G06G03G20G13G19
 125681991.835 6  97934103.43443  23916498.758                    23916509.301
 106521103.575 8  83003475.43446  20270293.742                    20270300.133
 127659831.067 6  99475376.06043  24292890.031                    24292899.621
 117419781.169 7  91495973.476 7  22344238.133                    22344247.203
 121032171.017 7  94310808.74744  23031658.961                    23031667.492
 119172760.922 7  92861925.21344  22677823.656                    22677832.625
 110298120.278 8  85946625.01045  20989035.125                    20989043.418
 130049816.734 6 101337544.19342  24747666.156                    24747677.648
 105404279.977 8  82133236.45546  20057767.859                    20057775.273
 111084334.328 8  86559251.17046  21138644.406                    21138650.969
 11  8 24 15 47 30.0000000  0 10G10G23G08G07G16G06G03G20G13G19
 125691334.325 6  97941383.25343  23918276.578                    23918287.301
 106564682.736 8  83037433.20146  20278586.781                    20278592.660
 127594238.419 6  99424264.96443  24280407.789                    24280418.133
 117363642.238 7  91452228.879 7  22333555.953                    22333564.406
 121121345.719 7  94380295.48244  23048628.813                    23048636.727
 119234024.275 7  92909662.86145  22689481.273                    22689490.531
 110335170.954 8  85975495.66545  20996085.805                    20996093.867
 130131463.570 6 101401164.85942  24763203.305                    24763214.723
 105391238.689 8  82123074.40646  20055286.063                    20055293.598
 111047118.802 8  86530252.07746  21131562.609                    21131569.492
 11  8 24 15 48  0.0000000  0 10G10G23G08G07G16G06G03G20G13G19
 125701136.560 6  97949021.32144  23920142.773                    23920152.883
 106608814.497 8  83071821.55446  20286985.008                    20286990.684
 127528576.488 6  99373099.90643  24267912.648                    24267923.906
 117307521.805 7  91408498.703 7  22322876.336                    22322884.867
 121210556.009 7  94449809.93644  23065604.945                    23065612.891
 119295740.741 7  92957753.57744  22701226.195                    22701235.234
 110372819.321 8  86004832.03845  21003249.883                    21003258.598
 130212944.744 6 101464656.47042  24778710.172                    24778720.336
 105378761.198 8  82113351.68546  20052911.922                    20052919.273
 111010457.752 8  86501685.04546  21124586.719                    21124593.066
 11  8 24 15 48 30.0000000  0  9G10G23G08G07G16G06G03G13G19
 125711396.723 6  97957016.24344  23922094.695                    23922105.328
 106653497.484 8  83106639.44246  20295487.516                    20295493.078
 127462844.592 6  99321880.33343  24255403.719                    24255414.797
 117251419.866 7  91364782.930 7  22312200.063                    22312208.750
 121299799.635 7  94519350.37544  23082586.938                    23082595.387
 119357908.145 7  93006195.66944  22713056.141                    22713065.340
 110411063.632 8  86034632.79745  21010527.531                    21010535.898
 105366848.145 8  82104068.77246  20050644.758                    20050652.164
 110974352.727 8  86473551.28246  21117715.805                    21117722.367
 11  8 24 15 49  0.0000000  0  9G10G23G08G07G16G06G03G13G19
 125722114.308 6  97965367.56244  23924134.367                    23924145.195
 106698731.607 8  83141886.78946  20304095.516                    20304101.770
 127397043.321 6  99270606.65643  24242882.891                    24242892.781
 117195337.781 7  91321082.622 7  22301528.266                    22301536.879
 121389075.220 7  94588915.69844  23099576.141                    23099584.008
 119420525.131 7  93054988.12044  22724971.531                    22724980.680
 110449903.431 8  86064897.56445  21017918.500                    21017926.406
 105355501.540 8  82095227.24946  20048485.508                    20048492.898
 110938805.984 8  86445852.54446  21110951.367                    21110957.891
 11  8 24 15 49 30.0000000  0  9G10G23G08G07G16G06G03G13G19
 125733287.849 6  97974074.15344  23926260.078                    23926271.039
 106744515.528 8  83177562.54646  20312807.914                    20312813.801
 127331172.388 6  99219278.70243  24230347.883                    24230357.938
 117139275.783 7  91277397.976 7  22290860.195                    22290868.695
 121478380.909 7  94658504.51944  23116570.203                    23116578.336
 119483589.565 7  93104129.21044  22736971.969                    22736981.590
 110489336.892 8  86095624.92745  21025422.391                    21025430.949
 105344722.399 8  82086827.91346  20046434.422                    20046442.195
 110903819.210 8  86418590.14446  21104293.797                    21104300.406
 11  8 24 15 50  0.0000000  0  9G10G23G08G07G16G06G03G13G19
 125744915.759 7  97983134.85644  23928473.195                    23928484.008
 106790848.194 8  83213665.90246  20321624.711                    20321630.664
 127265231.691 6  99167896.41343  24217799.164                    24217810.039
 117083234.271 7  91233729.282 7  22280196.008                    22280204.051
 121567714.513 7  94728115.06344  23133570.070                    23133578.012
 119547099.122 7  93153617.12244  22749057.211                    22749066.961
 110529362.027 8  86126813.33145  21033038.938                    21033047.547
 105334511.562 8  82078871.41246  20044491.102                    20044499.137
 110869394.013 8  86391765.32146  21097742.750                    21097749.406
 11  8 24 15 50 30.0000000  0  9G10G23G08G07G16G06G03G13G19
 125756996.569 6  97992548.41644  23930771.945                    23930783.070
 106837728.837 8  83250196.24246  20330545.859                    20330551.738
 127199221.278 6  99116459.80243  24205238.266                    24205248.277
 117027214.149 7  91190077.271 7  22269535.445                    22269543.789
 121657074.349 7  94797746.05944  23150574.953                    23150582.844
 119611052.119 7  93203450.57944  22761227.711                    22761236.379
 110569977.809 8  86158461.98845  21040768.359                    21040776.344
 105324870.442 8  82071358.84446  20042656.977                    20042664.262
 110835532.401 8  86365379.67746  21091299.070                    21091305.762
 11  8 24 15 51  0.0000000  0  9G10G23G08G07G16G06G03G13G19
 125769528.578 6  98002313.58644  23933157.094                    23933167.508
 106885155.985 8  83287152.42746  20339570.961                    20339577.145
 127133140.683 6  99064968.47343  24192664.156                    24192673.602
 116971215.500 7  91146441.982 7  22258879.352                    22258887.523
 121746458.188 7  94867395.74244  23167584.117                    23167592.199
 119675446.039 7  93253627.62644  22773481.227                    22773490.379
 110611182.617 8  86190569.62445  21048608.648                    21048617.520
 105315799.431 8  82064290.51246  20040930.820                    20040938.102
 110802235.580 8  86339434.11846  21084962.898                    21084969.590
 11  8 24 15 51 30.0000000  0  9G10G23G08G07G16G06G03G13G19
 125782510.757 6  98012429.53443  23935627.266                    23935638.250
 106933129.160 8  83324534.11046  20348700.141                    20348706.180
 127066990.486 6  99013422.91943  24180075.992                    24180085.184
 116915239.580 7  91102824.400 7  22248227.484                    22248235.215
 121835864.945 7  94937063.30044  23184597.492                    23184605.457
 119740279.566 7  93304147.20844  22785819.375                    22785828.316
 110652975.621 8  86223135.59745  21056561.516                    21056570.297
 105307300.771 8  82057668.16746  20039313.414                    20039320.648
 110769506.065 7  86313930.62146  21078734.680                    21078741.383
 11  8 24 15 52  0.0000000  0 10G10G23G08G07G16G11G06G03G13G19
 125795941.352 6  98022894.88743  23938183.328                    23938194.074
 106981646.995 8  83362340.17746  20357932.617                    20357938.766
 127000770.288 6  98961822.84543  24167474.320                    24167484.840
 116859286.630 7  91059224.722 7  22237579.563                    22237588.039
 121925292.325 7  95006746.90044  23201614.539                    23201623.395
 130223010.72116 101472574.42653  24780628.570                    24780639.219
 119805550.296 7  93355007.49144  22798239.992                    22798249.078
 110695355.188 8  86256158.62745  21064626.680                    21064634.676
 105299374.995 8  82051492.23046  20037804.945                    20037812.371
 110737345.224 8  86288870.23846  21072615.016                    21072621.371
 11  8 24 15 52 30.0000000  0 10G10G23G08G07G16G11G06G03G13G19
 125809819.431 6  98033708.96543  23940824.055                    23940834.270
 107030708.835 8  83400570.15546  20367268.656                    20367274.691
 126934480.544 6  98910168.55843  24154859.922                    24154869.242
 116803357.766 7  91015643.808 7  22226937.172                    22226944.973
 122014739.375 7  95076445.83244  23218636.516                    23218644.383
 130150434.733 6 101416021.85343  24766817.734                    24766828.090
 119871256.765 7  93406207.29744  22810743.086                    22810752.398
 110738319.895 8  86289637.60645  21072802.211                    21072810.813
 105292023.617 8  82045763.86946  20036406.438                    20036413.969
 110705755.092 8  86264254.55646  21066603.430                    21066609.707
 11  8 24 15 53  0.0000000  0 10G10G23G08G07G16G11G06G03G13G19
 125824143.549 6  98044870.59043  23943550.758                    23943559.980
 107080313.749 8  83439223.31046  20376708.102                    20376714.211
 126868121.014 7  98858459.87543  24142232.383                    24142241.652
 116747453.860 7  90972082.344 7  22216298.711                    22216307.336
 122104204.006 7  95146158.47444  23235661.055                    23235669.074
 130077697.595 6 101359343.63443  24752976.102                    24752986.879
 119937396.944 7  93457745.05545  22823329.383                    22823338.578
 110781867.930 8  86323571.11845  21081089.359                    21081098.148
 105285247.812 8  82040484.00046  20035116.844                    20035124.598
 110674737.554 8  86240085.07046  21060700.609                    21060707.305
 11  8 24 15 53 30.0000000  0 10G10G23G08G07G16G11G06G03G13G19
 125838911.841 7  98056378.31443  23946360.711                    23946370.258
 107130459.799 8  83478298.13246  20386250.969                    20386256.891
 126801691.211 6  98806696.46443  24129590.172                    24129600.719
 116691574.701 7  90928540.167 7  22205665.281                    22205673.988
 122193684.036 7  95215883.09744  23252688.547                    23252696.113
 130004801.205 6 101302541.39143  24739104.430                    24739114.941
 120003967.833 7  93509618.44144  22835997.242                    22836006.770
 110825997.552 8  86357957.83145  21089486.547                    21089495.543
 105279048.116 8  82035653.05546  20033937.227                    20033944.598
 110644293.123 8  86216362.14746  21054907.664                    21054914.273
 11  8 24 15 54  0.0000000  0 11G10G23G08G07G16G11G28G06G03G13G19
 125854122.446 6  98068230.71343  23949254.539                    23949265.082
 107181145.938 8  83517793.79746  20395896.203                    20395901.957
 126735191.046 6  98754878.20443  24116936.602                    24116946.371
 116635721.329 7  90885018.088 7  22195036.961                    22195044.930
 122283177.582 7  95285618.26844  23269718.461                    23269726.637
 129931747.726 6 101245616.71343  24725202.398                    24725214.535
 129664686.73215 101037555.43452  24674393.984                    24674403.684
 120070967.705 7  93561826.07944  22848747.039                    22848756.234
 110870707.397 8  86392796.64845  21097995.086                    21098003.707
 105273425.376 8  82031271.69046  20032867.227                    20032874.609
 110614423.755 8  86193087.31446  21049223.273                    21049230.086
 11  8 24 15 54 30.0000000  0 11G10G23G08G07G16G11G28G06G03G13G19
 125869773.953 7  98080426.67043  23952233.250                    23952243.559
 107232371.351 8  83557709.67646  20405643.844                    20405650.051
 126668620.652 6  98703005.20743  24104268.023                    24104277.840
 116579894.056 7  90841516.324 7  22184413.156                    22184421.523
 122372682.864 7  95355362.59244  23286750.867                    23286758.398
 129858539.570 6 101188571.51143  24711271.227                    24711282.965
 129591996.632 6 100980913.92642  24660560.820                    24660571.570
 120138394.208 7  93614366.19244  22861577.742                    22861586.648
 110915995.551 8  86428086.11045  21106613.180                    21106621.867
 105268380.599 8  82027340.67646  20031907.453                    20031914.574
 110585131.027 8  86170261.82846  21043649.164                    21043655.816
 11  8 24 15 55  0.0000000  0 11G10G23G08G07G16G11G28G06G03G13G19
 125885864.781 6  98092964.93743  23955294.844                    23955305.797
 107284134.822 8  83598044.81646  20415493.992                    20415500.008
 126601980.210 6  98651077.61643  24091587.055                    24091595.977
 116524093.986 7  90798035.773 7  22173794.484                    22173802.930
 122462198.593 7  95425115.06944  23303785.164                    23303792.910
 129785178.857 6 101131407.41942  24697310.969                    24697322.055
 129519522.056 6 100924440.27342  24646769.039                    24646779.777
 120206245.911 7  93667237.60844  22874489.500                    22874498.863
 110961860.456 8  86463824.97745  21115340.695                    21115349.344
 105263915.169 8  82023861.11246  20031057.430                    20031064.855
 110556416.986 8  86147887.25446  21038185.133                    21038191.625
 11  8 24 15 55 30.0000000  0 11G10G23G08G07G16G11G28G06G03G13G19
 125902393.217 6  98105844.19843  23958439.570                    23958450.730
 107336434.675 8  83638797.92046  20425446.766                    20425452.320
 126535269.496 6  98599095.31643  24078892.227                    24078901.793
 116468321.615 7  90754576.803 7  22163181.656                    22163189.625
 122551722.771 7  95494874.11744  23320821.555                    23320829.086
 129711667.637 6 101074126.05642  24683322.789                    24683333.172
 129447262.997 6 100868134.52942  24633018.328                    24633029.637
 120274520.118 7  93720438.23344  22887481.617                    22887491.164
 111008300.366 8  86500011.90145  21124178.164                    21124186.750
 105260029.534 8  82020833.32946  20030317.906                    20030325.469
 110528282.549 8  86125964.32846  21032831.492                    21032837.770
 11  8 24 15 56  0.0000000  0 11G10G23G08G07G16G11G28G06G03G13G19
 125919357.668 6  98119063.20843  23961667.961                    23961679.152
 107389269.885 8  83679968.19146  20435500.609                    20435507.160
 126468488.787 6  98547058.44343  24066183.719                    24066193.949
 116412577.533 7  90711139.873 7  22152574.039                    22152581.953
 122641253.507 7  95564638.29844  23337858.484                    23337865.906
 129638008.268 6 101016729.21843  24669304.883                    24669316.340
 129375219.919 6 100811997.12042  24619308.805                    24619319.828
 120343214.804 7  93773966.54544  22900553.492                    22900562.715
 111055313.727 8  86536645.67445  21133124.258                    21133133.375
 105256724.632 8  82018258.06846  20029688.938                    20029696.582
 110500729.112 7  86104494.12446  21027588.172                    21027594.660
 11  8 24 15 56 30.0000000  0 11G10G23G08G07G16G11G28G06G03G13G19
 125936756.620 6  98132620.77543  23964979.516                    23964990.027
 107442639.305 8  83721554.71046  20445656.789                    20445662.930
 126401637.854 6  98494966.86043  24053462.570                    24053472.957
 116356862.526 7  90667725.600 7  22141971.883                    22141980.082
 122730789.192 7  95634406.32044  23354896.508                    23354904.301
 129564203.078 6 100959218.76543  24655259.469                    24655271.512
 129303393.398 6 100756028.38942  24605640.727                    24605652.160
 120412327.835 7  93827820.81044  22913705.859                    22913714.930
 111102898.835 8  86573724.95545  21142179.703                    21142188.039
 105254001.449 8  82016136.09946  20029171.055                    20029178.695
 110473758.477 8  86083478.05546  21022455.727                    21022462.242
 11  8 24 15 57  0.0000000  0 11G10G23G08G07G16G11G28G06G03G13G19
 125954588.472 6  98146515.69643  23968372.750                    23968383.324
 107496541.410 8  83763556.31846  20455913.609                    20455920.219
 126334716.823 6  98442820.63343  24040727.602                    24040738.324
 116301177.420 7  90624334.622 7  22131375.109                    22131383.004
 122820328.316 7  95704177.01343  23371934.906                    23371942.883
 129490254.248 6 100901596.37142  24641187.898                    24641199.906
 129231783.534 6 100700228.53442  24592013.727                    24592024.625
 120481856.997 7  93881999.34244  22926936.883                    22926945.781
 111151053.619 8  86611248.15145  21151342.945                    21151351.738
 105251860.940 8  82014468.15746  20028763.773                    20028770.543
 110447372.065 8  86062917.22846  21017434.813                    21017440.801
 11  8 24 15 57 30.0000000  0 11G10G23G08G07G16G11G28G06G03G13G19
 125972851.306 6  98160746.43943  23971848.633                    23971858.363
 107550974.840 8  83805971.95046  20466271.992                    20466278.008
 126267725.630 6  98390619.75843  24027979.672                    24027990.070
 116245523.087 7  90580967.623 7  22120784.352                    22120792.512
 122909869.054 7  95773948.93344  23388973.828                    23388982.488
 129416164.138 6 100843863.89042  24627089.211                    24627100.859
 129160391.065 6 100644598.07043  24578428.195                    24578439.582
 120551800.173 7  93936500.48644  22940246.875                    22940255.746
 111199776.573 8  86649214.07045  21160614.766                    21160622.992
 105250303.501 8  82013254.55946  20028467.070                    20028474.848
 110421571.041 8  86042812.54146  21012525.102                    21012531.090
 11  8 24 15 58  0.0000000  0 11G10G23G08G07G16G11G28G06G03G13G19
 125991543.593 6  98175311.81943  23975405.836                    23975415.840
 107605938.192 8  83848800.50646  20476731.461                    20476737.273
 126200664.238 6  98338364.15243  24015218.672                    24015228.520
 116189899.934 7  90537624.924 7  22110199.727                    22110207.961
 122999409.702 7  95843720.79344  23406012.609                    23406021.418
 129341935.298 6 100786023.30943  24612964.430                    24612975.457
 129089216.274 6 100589137.22043  24564885.336                    24564895.074
 120622155.126 7  93991322.50244  22953634.391                    22953643.715
 111249065.838 8  86687621.26245  21169994.383                    21170002.965
 105249330.099 8  82012496.05846  20028282.148                    20028289.832
 110396356.907 8  86023165.16446  21007726.867                    21007733.199
 11  8 24 15 58 30.0000000  0 11G10G23G08G07G16G11G28G06G03G13G19
 126010663.784 6  98190210.65743  23979044.055                    23979054.605
 107661430.558 8  83892041.26146  20487291.492                    20487297.629
 126133532.944 6  98286054.08043  24002443.602                    24002453.434
 116134309.013 7  90494307.336 7  22099620.883                    22099629.203
 123088948.762 6  95913491.39544  23423051.625                    23423060.395
 129267569.564 6 100728076.01843  24598813.336                    24598824.633
 129018259.753 6 100533846.47342  24551381.609                    24551392.367
 120692919.957 7  94046463.88344  22967100.281                    22967110.277
 111298920.205 7  86726468.79545  21179480.891                    21179489.914
 105248942.083 8  82012193.70146  20028207.813                    20028215.410
 110371731.406 8  86003976.47046  21003040.609                    21003047.191
 11  8 24 15 59  0.0000000  0 11G10G23G08G07G16G11G28G06G03G13G19
 126030209.905 6  98205441.37244  23982763.328                    23982773.938
 107717450.375 8  83935693.03646  20497951.898                    20497958.059
 126066331.609 6  98233689.47944  23989655.883                    23989666.059
 116078750.894 7  90451015.311 7  22089048.648                    22089056.773
 123178484.540 7  95983259.44844  23440090.547                    23440098.668
 129193069.554 6 100670024.08143  24584635.688                    24584647.500
 128947521.665 6 100478725.91143  24537920.469                    24537931.078
 120764092.127 7  94101922.66144  22980644.430                    22980653.926
 111349337.235 7  86765754.75945  21189075.148                    21189083.711
 105249139.691 8  82012347.67146  20028245.953                    20028253.301
 110347695.471 8  85985247.18046  20998466.938                    20998473.289
 11  8 24 15 59 30.0000000  0 11G10G23G08G07G16G11G28G06G03G13G19
 126050180.081 7  98221002.50443  23986563.211                    23986574.434
 107773996.285 8  83979754.75446  20508711.609                    20508718.219
 125999060.453 6  98181270.45743  23976855.227                    23976864.555
 116023226.348 7  90407749.448 7  22078482.961                    22078491.055
 123268015.182 6  96053023.51544  23457127.867                    23457135.484
 129118437.441 6 100611869.22543  24570434.156                    24570445.355
 128877002.543 6 100423776.01243  24524501.461                    24524511.582
 120835669.554 7  94157697.25144  22994265.297                    22994274.516
 111400315.148 8  86805477.77945  21198776.148                    21198784.586
 105249923.707 8  82012958.57546  20028394.930                    20028402.012
 110324250.422 8  85966978.31346  20994004.992                    20994011.652
 11  8 24 16  0  0.0000000  0 11G10G23G08G07G16G11G28G06G03G13G19
 126070572.713 7  98236892.84444  23990444.125                    23990454.969
 107831066.672 8  84024225.14946  20519571.891                    20519578.359
 125931719.480 6  98128797.02244  23964040.047                    23964050.102
 115967736.228 7  90364510.407 7  22067923.000                    22067931.254
 123357539.217 6  96122782.43844  23474163.672                    23474171.438
 129043675.704 6 100553613.39343  24556207.492                    24556218.473
 128806702.539 6 100368996.80242  24511123.852                    24511134.441
 120907649.835 7  94213785.74344  23007962.547                    23007972.035
 111451852.010 8  86845636.35145  21208583.070                    21208591.883
 105251294.777 8  82014026.93546  20028655.875                    20028663.063
 110301397.390 8  85949170.76846  20989656.539                    20989663.375
 11  8 24 16  0 30.0000000  0 11G10G23G08G07G16G11G28G06G03G13G19
 126091386.309 6  98253111.20643  23994404.539                    23994415.129
 107888660.328 8  84069103.28146  20530531.789                    20530537.723
 125864308.975 7  98076269.43544  23951212.313                    23951222.738
 115912281.420 7  90321298.875 7  22057370.438                    22057378.379
 123447055.204 7  96192535.11444  23491197.750                    23491205.766
 128968786.634 6 100495258.30643  24541956.867                    24541967.359
 128736622.281 6 100314388.86842  24497788.727                    24497798.539
 120980031.091 7  94270186.68644  23021736.414                    23021745.922
 111503946.265 8  86886229.24245  21218496.445                    21218505.500
 105253254.122 8  82015553.68346  20029028.781                    20029036.445
 110279138.036 8  85931825.82146  20985420.867                    20985427.363
 11  8 24 16  1  0.0000000  0 11G10G23G08G07G16G11G28G06G03G13G19
 126112618.454 6  98269655.68843  23998444.680                    23998455.898
 107946775.371 8  84114387.69446  20541590.703                    20541597.184
 125796828.950 7  98023687.66144  23938370.797                    23938381.305
 115856862.399 7  90278115.237 7  22046824.680                    22046832.938
 123536561.217 7  96262279.98444  23508230.461                    23508237.691
 128893772.294 6 100436805.62643  24527681.680                    24527692.441
 128666761.934 6 100259952.23542  24484493.656                    24484504.445
 121052810.807 7  94326898.12544  23035586.211                    23035595.441
 111556595.635 8  86927254.69345  21228514.805                    21228523.711
 105255801.331 8  82017538.51646  20029513.359                    20029520.973
 110257473.281 8  85914944.20446  20981298.117                    20981304.449
 11  8 24 16  1 30.0000000  0 11G10G23G08G07G16G11G28G06G03G13G19
 126134267.595 6  98286525.09843  24002565.250                    24002576.320
 108005410.909 8  84160077.68946  20552748.680                    20552754.840
 125729279.580 7  97971051.83244  23925516.766                    23925526.355
 115801480.437 7  90234960.474 7  22036285.164                    22036294.191
 123626056.234 7  96332016.32844  23525260.344                    23525267.887
 128818635.582 6 100378257.56343  24513383.945                    24513394.602
 128597121.833 6 100205687.29842  24471242.273                    24471252.496
 121125986.745 7  94383918.29044  23049510.695                    23049519.984
 111609798.841 7  86968711.72145  21238639.305                    21238648.105
 105258937.996 8  82019982.65646  20030110.367                    20030117.410
 110236404.597 8  85898527.05846  20977288.547                    20977295.047
 11  8 24 16  2  0.0000000  0 11G10G23G08G07G16G11G28G06G03G13G19
 126156332.166 6  98303718.24343  24006763.789                    24006774.875
 108064565.121 8  84206171.84946  20564005.352                    20564011.840
 125661660.787 7  97918361.92643  23912649.133                    23912659.344
 115746136.207 8  90191835.107 7  22025753.836                    22025762.156
 123715538.109 7  96401742.39843  23542288.336                    23542295.914
 128743378.570 6 100319615.81043  24499062.336                    24499073.695
 128527702.339 6 100151594.26942  24458031.742                    24458042.367
 121199556.732 7  94441245.52244  23063510.172                    23063519.867
 111663553.870 7  87010598.73045  21248868.766                    21248877.523
 105262664.266 8  82022886.23146  20030819.359                    20030826.656
 110215932.889 8  85882575.09146  20973392.836                    20973399.668
 11  8 24 16  2 30.0000000  0 11G10G23G08G07G16G11G28G06G03G13G19
 126178809.989 6  98321233.36343  24011041.383                    24011052.219
 108124236.466 8  84252668.96846  20575360.602                    20575366.508
 125593972.921 6  97865618.17244  23899768.984                    23899779.227
 115690830.673 7  90148739.903 7  22015229.547                    22015237.992
 123805005.558 6  96471457.20843  23559313.680                    23559321.805
 128668003.812 6 100260882.28343  24484719.336                    24484729.949
 128458503.718 6 100097673.32643  24444864.008                    24444874.402
 121273518.506 7  94498878.03744  23077585.344                    23077594.340
 111717857.883 8  87052913.50945  21259202.680                    21259211.297
 105266980.781 8  82026249.72546  20031640.969                    20031648.145
 110196059.598 8  85867089.42246  20969611.219                    20969617.504
 11  8 24 16  3  0.0000000  0 11G10G23G08G07G16G11G28G06G03G13G19
 126201699.415 6  98339069.24144  24015396.836                    24015407.902
 108184423.224 8  84299567.70546  20586813.789                    20586820.125
 125526216.096 7  97812820.69244  23886875.203                    23886885.258
 115635564.264 7  90105675.184 7  22004712.719                    22004721.055
 123894456.997 6  96541159.56843  23576335.406                    23576343.750
 128592513.502 6 100202058.74243  24470354.594                    24470364.742
 128389526.335 6 100043924.73243  24431737.539                    24431747.793
 121347869.580 7  94556813.88944  23091733.805                    23091743.012
 111772709.594 7  87095655.08945  21269640.664                    21269648.738
 105271888.113 8  82030073.60846  20032574.867                    20032582.191
 110176785.713 8  85852070.82246  20965943.555                    20965950.168
 11  8 24 16  3 30.0000000  0 11G10G23G08G07G16G11G28G06G03G13G19
 126224998.977 6  98357224.70443  24019830.320                    24019841.617
 108245124.085 8  84346867.03446  20598364.703                    20598370.996
 125458390.608 7  97759969.70944  23873968.430                    23873978.852
 115580338.242 7  90062641.939 7  21994203.531                    21994212.281
 123983890.954 6  96610848.26843  23593354.094                    23593362.648
 128516909.753 6 100143146.77943  24455967.344                    24455977.938
 128320770.476 6  99990348.75142  24418653.391                    24418663.762
 121422608.036 7  94615051.59944  23105956.406                    23105965.223
 111828107.069 7  87138821.93645  21280182.117                    21280190.602
 105277387.009 8  82034358.44646  20033621.180                    20033628.723
 110158112.156 8  85837520.01446  20962390.313                    20962396.324
 11  8 24 16  4  0.0000000  0 11G10G23G08G07G16G11G28G06G03G13G19
 126248706.414 6  98375697.98944  24024342.055                    24024353.051
 108306337.552 8  84394565.81346  20610013.633                    20610019.465
 125390496.202 7  97707065.00543  23861048.852                    23861058.152
 115525153.427 7  90019640.802 7  21983702.063                    21983710.613
 124073305.615 6  96680521.95144  23610369.039                    23610378.000
 128441195.420 6 100084148.66442  24441559.008                    24441569.605
 128252236.612 6  99936945.79443  24405612.797                    24405622.742
 121497731.254 7  94673589.13744  23120251.742                    23120260.832
 111884048.059 7  87182412.29345  21290827.570                    21290836.379
 105283477.840 8  82039104.53446  20034780.320                    20034787.707
 110140040.032 8  85823437.85746  20958950.938                    20958957.297
 11  8 24 16  4 30.0000000  0 11G10G23G08G07G16G11G28G06G03G13G19
 126272819.316 6  98394487.21344  24028930.641                    24028941.496
 108368061.625 8  84442662.46046  20621759.211                    20621765.617
 125322533.126 7  97654106.80144  23848115.664                    23848125.445
 115470010.151 7  89976672.020 7  21973209.070                    21973217.074
 124162699.430 6  96750179.39344  23627381.086                    23627389.867
 128365372.928 6 100025066.28643  24427130.406                    24427141.043
 128183924.464 6  99883715.54043  24392612.344                    24392623.598
 121573237.154 7  94732424.86844  23134620.219                    23134629.363
 111940530.179 7  87226424.30045  21301576.078                    21301584.500
 105290160.652 8  82044311.89946  20036051.742                    20036059.012
 110122570.479 8  85809825.22946  20955627.102                    20955633.266
 11  8 24 16  5  0.0000000  0 11G10G23G08G07G16G11G28G06G03G13G19
 126297335.906 6  98413591.00743  24033596.086                    24033606.875
 108430294.775 8  84491155.78346  20633601.750                    20633607.848
 125254501.443 7  97601095.13844  23835169.422                    23835179.016
 115414909.759 7  89933736.668 7  21962723.883                    21962732.281
 124252071.195 6  96819819.65844  23644388.328                    23644396.520
 128289444.479 6  99965901.33342  24412681.227                    24412692.234
 128115834.562 6  99830658.46443  24379655.969                    24379665.922
 121649123.120 7  94791556.74244  23149060.578                    23149070.133
 111997551.611 7  87270856.56445  21312426.734                    21312435.125
 105297436.070 8  82049981.03046  20037436.406                    20037443.836
 110105704.236 8  85796682.72446  20952417.141                    20952423.422
 11  8 24 16  5 30.0000000  0 11G10G23G08G07G16G11G28G06G03G13G19
 126322254.967 6  98433008.41443  24038337.633                    24038348.973
 108493035.780 8  84540044.83246  20645540.609                    20645546.910
 125186401.712 7  97548030.45943  23822209.617                    23822220.238
 115359853.642 7  89890835.813 7  21952247.242                    21952255.227
 124341419.391 7  96889441.55344  23661390.367                    23661398.297
 128213412.704 6  99906655.80742  24398213.344                    24398224.012
 128047967.238 6  99777774.85443  24366741.305                    24366750.926
 121725387.082 7  94850983.16644  23163573.258                    23163582.496
 112055110.492 7  87315707.62145  21323379.492                    21323388.465
 105305305.038 8  82056112.67246  20038933.883                    20038941.320
 110089442.656 8  85784011.38446  20949322.633                    20949329.051
 11  8 24 16  6  0.0000000  0 11G10G23G08G07G16G11G28G06G03G13G19
 126347574.164 6  98452737.62743  24043155.828                    24043167.199
 108556282.578 8  84589328.00546  20657576.555                    20657582.547
 125118234.073 7  97494912.84243  23809238.109                    23809247.871
 115304842.016 7  89847969.624 7  21941778.813                    21941786.887
 124430742.463 7  96959043.88544  23678387.758                    23678395.688
 128137280.086 6  99847331.74943  24383725.664                    24383736.395
 127980322.560 6  99725064.73043  24353868.438                    24353878.238
 121802026.729 7  94910702.32944  23178156.609                    23178166.383
 112113204.655 7  87360975.76745  21334434.781                    21334443.582
 105313767.696 8  82062706.93446  20040544.297                    20040551.570
 110073786.469 8  85771811.75846  20946343.414                    20946349.672
 11  8 24 16  6 30.0000000  0 11G10G23G08G07G16G11G28G06G03G13G19
 126373291.661 6  98472777.16043  24048049.367                    24048060.738
 108620033.527 8  84639004.03346  20669707.984                    20669714.332
 125049998.527 7  97441742.32944  23796253.484                    23796263.816
 115249876.019 7  89805138.992 7  21931319.117                    21931326.672
 124520038.960 7  97028625.48244  23695380.352                    23695388.770
 128061048.597 6  99787930.62643  24369219.273                    24369229.570
 127912901.233 6  99672528.62243  24341038.258                    24341048.824
 121879039.432 7  94970712.18544  23192812.063                    23192821.785
 112171832.011 7  87406659.38445  21345590.883                    21345599.699
 105322824.261 8  82069763.98146  20042267.484                    20042274.852
 110058736.715 8  85760084.69446  20943479.719                    20943485.922
 11  8 24 16  7  0.0000000  0 11G10G23G08G07G16G11G28G06G03G13G19
 126399405.061 6  98493125.21543  24053019.555                    24053029.801
 108684286.975 8  84689071.62546  20681934.820                    20681941.223
 124981695.348 7  97388519.10444  23783256.367                    23783266.137
 115194956.359 7  89762344.463 7  21920868.172                    21920876.207
 124609307.448 6  97098185.29844  23712367.883                    23712376.117
 127984721.318 6  99728454.86943  24354694.867                    24354705.262
 127845703.225 6  99620166.57143  24328251.594                    24328262.102
 121956423.347 7  95031011.30344  23207537.633                    23207547.465
 112230990.320 7  87452756.70945  21356848.969                    21356857.484
 105332475.170 8  82077284.15446  20044104.031                    20044111.836
 110044294.387 8  85748830.94246  20940731.141                    20940737.789
 11  8 24 16  7 30.0000000  0 11G10G23G08G07G16G11G28G06G03G13G19
 126425912.581 6  98513780.38843  24058064.125                    24058074.438
 108749040.896 8  84739529.18246  20694257.242                    20694263.480
 124913324.783 7  97335243.39343  23770245.438                    23770254.879
 115140084.425 8  89719587.124 7  21910426.102                    21910434.227
 124698546.479 6  97167722.13643  23729349.094                    23729357.980
 127908300.360 6  99668906.11543  24340152.281                    24340162.434
 127778728.650 6  99567978.59043  24315506.484                    24315517.012
 122034175.845 7  95091597.60544  23222333.383                    23222343.699
 112290677.229 7  87499265.96545  21368206.516                    21368215.094
 105342720.603 8  82085267.59646  20046053.945                    20046061.313
 110030460.066 8  85738050.95446  20938098.461                    20938104.977
 11  8 24 16  8  0.0000000  0 11G10G23G08G07G16G11G28G06G03G13G19
 126452812.333 6  98534741.18243  24063182.297                    24063193.242
 108814293.953 8  84790375.67746  20706674.242                    20706681.008
 124844887.125 7  97281915.38644  23757221.930                    23757231.680
 115085260.970 8  89676867.556 7  21899993.875                    21900001.910
 124787754.747 6  97237235.01643  23746325.117                    23746333.523
 127831788.354 6  99609286.39543  24325592.484                    24325602.984
 127711977.671 6  99515964.85043  24302804.398                    24302814.227
 122112294.540 7  95152469.24444  23237198.961                    23237208.891
 112350890.929 7  87546185.69845  21379665.141                    21379673.563
 105353561.119 8  82093714.72546  20048116.695                    20048124.004
 110017234.869 8  85727745.61446  20935582.070                    20935588.250
 11  8 24 16  8 30.0000000  0 11G10G23G08G07G16G11G28G06G03G13G19
 126480101.954 6  98556005.78243  24068376.320                    24068386.293
 108880044.609 8  84841609.91546  20719186.234                    20719192.828
 124776382.513 7  97228535.21143  23744186.555                    23744196.340
 115030486.733 7  89634186.335 7  21889570.516                    21889578.797
 124876930.776 6  97306722.73743  23763294.430                    23763302.680
 127755187.967 6  99549597.81643  24311016.063                    24311026.605
 127645450.487 6  99464125.52943  24290144.641                    24290154.625
 122190776.766 7  95213624.17744  23252133.992                    23252143.977
 112411629.313 7  87593514.28345  21391223.211                    21391231.371
 105364996.808 8  82102625.63846  20050292.867                    20050299.988
 110004619.298 8  85717915.29546  20933181.563                    20933187.703
 11  8 24 16  9  0.0000000  0 11G10G23G08G07G16G11G28G06G03G13G19
 126507779.660 6  98577572.75743  24073642.031                    24073652.887
 108946290.259 8  84893229.86446  20731792.430                    20731798.664
 124707810.945 6  97175102.84343  23731137.273                    23731146.738
 114975762.826 8  89591544.343 7  21879156.992                    21879164.918
 124966072.637 6  97376183.84543  23780258.305                    23780265.512
 127678501.476 6  99489842.15143  24296422.680                    24296433.434
 127579147.475 6  99412460.83643  24277526.844                    24277538.418
 122269620.242 7  95275060.59544  23267137.695                    23267148.023
 112472889.506 7  87641249.44645  21402880.703                    21402889.191
 105377027.642 8  82112000.29946  20052582.672                    20052589.590
 109992614.356 8  85708560.79446  20930896.953                    20930903.125
 11  8 24 16  9 30.0000000  0 11G10G23G08G07G16G11G28G06G03G13G19
 126535843.173 6  98599440.39443  24078983.297                    24078993.309
 109013029.238 8  84945234.22446  20744492.953                    20744499.156
 124639173.139 6  97121618.90144  23718075.641                    23718086.023
 114921090.325 7  89548942.400 7  21868753.000                    21868761.020
 125055179.225 6  97445617.45643  23797215.266                    23797222.426
 127601731.360 6  99430021.31243  24281813.750                    24281824.813
 127513068.313 6  99360970.60742  24264953.117                    24264963.746
 122348822.962 7  95336776.93144  23282209.203                    23282219.188
 112534669.797 7  87689389.90645  21414637.195                    21414645.285
 105389653.953 8  82121838.96846  20054985.195                    20054992.512
 109981220.639 8  85699682.57846  20928728.648                    20928735.152
 11  8 24 16 10  0.0000000  0 11G10G23G08G07G16G11G28G06G03G13G19
 126564290.613 6  98621607.19543  24084396.820                    24084406.906
 109080259.974 8  84997621.77746  20757286.211                    20757292.875
 124570469.418 6  97068083.56644  23705002.008                    23705011.727
 114866470.316 7  89506381.362 7  21858358.852                    21858367.266
 125144249.386 7  97515022.72144  23814164.547                    23814173.031
 127524880.031 6  99370137.22443  24267189.523                    24267199.785
 127447213.719 6  99309655.30543  24252420.805                    24252432.184
 122428382.219 7  95398771.10644  23297348.695                    23297357.934
 112596967.847 7  87737933.81645  21426492.078                    21426500.719
 105402876.196 8  82132141.99646  20057501.266                    20057508.480
 109970438.746 8  85691281.10446  20926676.891                    20926683.121
 11  8 24 16 10 30.0000000  0 11G10G23G08G07G16G11G28G06G03G13G19
 126593119.856 6  98644071.49043  24089882.242                    24089893.000
 109147980.626 8  85050391.07046  20770173.234                    20770179.777
 124501699.877 7  97014496.92943  23691915.391                    23691925.227
 114811903.545 7  89463861.803 7  21847975.313                    21847983.188
 125233281.615 7  97584398.42244  23831107.023                    23831115.020
 127447950.330 6  99310192.00043  24252550.750                    24252561.090
 127381583.637 6  99258515.07343  24239932.484                    24239942.988
 122508295.716 7  95461041.32444  23312555.945                    23312564.973
 112659781.732 7  87786879.67345  21438444.547                    21438453.684
 105416694.636 8  82142909.60146  20060130.906                    20060137.902
 109960269.698 8  85683357.17346  20924741.867                    20924748.051
 11  8 24 16 11  0.0000000  0 11G10G23G08G07G16G11G28G06G03G13G19
 126622328.741 6  98666831.62343  24095440.633                    24095451.168
 109216189.224 8  85103540.58546  20783152.680                    20783159.184
 124432864.772 7  96960859.20844  23678817.289                    23678826.059
 114757390.958 7  89421384.472 7  21837601.906                    21837609.969
 125322274.474 7  97653743.42144  23848041.297                    23848049.617
 127370944.521 6  99250187.55043  24237896.570                    24237906.934
 127316178.105 6  99207549.69543  24227485.617                    24227496.590
 122588561.077 7  95523585.71543  23327830.227                    23327839.082
 112723109.076 7  87836225.59945  21450496.000                    21450504.871
 105431109.075 8  82154141.61346  20062873.633                    20062881.129
 109950714.198 8  85675911.32646  20922923.828                    20922930.074
 11  8 24 16 11 30.0000000  0 11G10G23G08G07G16G11G28G06G03G13G19
 126651914.859 6  98689885.69343  24101070.484                    24101081.094
 109284883.985 8  85157068.93046  20796224.867                    20796231.367
 124363964.451 7  96907170.66044  23665705.563                    23665714.805
 114702933.622 7  89378950.189 7  21827239.117                    21827247.207
 125411226.565 7  97723056.65344  23864968.219                    23864976.918
 127293865.246 6  99190125.80443  24223229.203                    24223239.613
 127250997.192 6  99156759.36243  24215082.477                    24215092.738
 122669175.783 7  95586402.30944  23343170.828                    23343179.813
 112786947.281 7  87885969.62245  21462643.992                    21462652.664
 105446119.422 8  82165837.97246  20065730.008                    20065737.488
 109941772.528 8  85668943.80346  20921221.961                    20921228.633
 11  8 24 16 12  0.0000000  0 11G10G23G08G07G16G11G28G06G03G13G19
 126681876.401 6  98713232.27643  24106772.242                    24106782.355
 109354062.697 8  85210974.38646  20809388.961                    20809395.629
 124294999.160 7  96853431.51044  23652581.727                    23652591.266
 114648532.733 7  89336559.895 7  21816887.461                    21816895.047
 125500136.738 7  97792337.22044  23881887.156                    23881895.816
 127216715.149 6  99130008.87543  24208547.617                    24208558.359
 127186041.069 6  99106144.21843  24202721.563                    24202731.691
 122750137.357 7  95649489.19944  23358576.984                    23358586.102
 112851293.984 7  87936109.86345  21474888.703                    21474897.652
 105461726.008 8  82177998.92546  20068699.875                    20068706.969
 109933445.470 8  85662455.18946  20919637.367                    20919643.617
 11  8 24 16 12 30.0000000  0 11G10G23G08G07G16G11G28G06G03G13G19
 126712211.479 6  98736870.00343  24112545.172                    24112554.996
 109423723.743 8  85265255.67746  20822645.320                    20822651.730
 124225969.485 7  96799642.19744  23639445.508                    23639455.438
 114594189.195 8  89294214.281 7  21806545.711                    21806553.871
 125589003.520 6  97861583.99044  23898798.242                    23898807.324
 127139496.511 6  99069838.56043  24193853.508                    24193864.211
 127121309.921 6  99055704.39843  24190404.195                    24190413.762
 122831443.444 7  95712844.54844  23374049.625                    23374058.336
 112916146.824 7  87986644.50645  21487230.141                    21487238.781
 105477928.916 8  82190624.54946  20071783.141                    20071790.840
 109925733.472 8  85656445.84246  20918169.945                    20918176.254
 11  8 24 16 13  0.0000000  0 11G10G23G08G07G16G11G28G06G03G13G19
 126742917.695 6  98760796.88743  24118387.180                    24118397.941
 109493865.537 8  85319911.58946  20835992.695                    20835999.043
 124156875.576 6  96745802.83144  23626297.383                    23626307.277
 114539904.361 8  89251914.417 7  21796215.969                    21796224.367
 125677825.764 6  97930796.06343  23915699.930                    23915709.418
 127062212.273 6  99009617.10843  24179146.656                    24179156.953
 127056803.927 6  99005440.00043  24178128.406                    24178138.805
 122913091.524 6  95776466.37644  23389586.422                    23389596.027
 112981503.984 8  88037572.12445  21499667.547                    21499675.730
 105494728.458 8  82203715.08846  20074980.078                    20074987.805
 109918637.329 8  85650916.38446  20916819.438                    20916825.855
 11  8 24 16 13 30.0000000  0 11G10G23G08G07G16G11G28G06G03G13G19
 126773992.710 6  98785011.12743  24124301.375                    24124311.637
 109564485.685 8  85374940.23446  20849431.336                    20849437.680
 124087717.295 6  96691913.30144  23613137.117                    23613147.020
 114485678.967 8  89209660.874 7  21785897.094                    21785905.074
 125766602.048 6  97999972.26043  23932594.828                    23932602.891
 126984864.920 6  98949346.49443  24164427.477                    24164438.305
 126992522.976 6  98955350.95143  24165896.805                    24165906.348
 122995079.544 6  95840353.06444  23405188.617                    23405198.191
 113047362.585 7  88088890.46445  21512199.695                    21512208.266
 105512124.162 8  82217270.15146  20078290.398                    20078297.809
 109912157.550 8  85645867.20946  20915586.531                    20915592.879
 11  8 24 16 14  0.0000000  0 11G10G23G08G07G16G11G28G06G03G13G19
 126805434.607 6  98809511.29043  24130284.680                    24130294.668
 109635582.164 8  85430340.05046  20862960.734                    20862967.250
 124018495.525 6  96637974.30844  23599964.750                    23599974.398
 114431514.087 8  89167454.483 7  21775590.063                    21775598.043
 125855331.066 6  98069111.66243  23949478.250                    23949487.152
 126907456.976 6  98889028.64643  24149697.578                    24149708.234
 126928467.176 6  98905437.36943  24153707.813                    24153716.941
 123077404.607 6  95904502.40544  23420853.953                    23420863.484
 113113720.505 7  88140597.89045  21524827.320                    21524835.805
 105530116.220 8  82231289.90446  20081714.273                    20081721.441
 109906294.315 8  85641298.44546  20914470.844                    20914477.164
 11  8 24 16 14 30.0000000  0 11G10G23G08G07G16G11G28G06G03G13G19
 126837241.109 6  98834295.56143  24136337.602                    24136347.637
 109707152.946 8  85486109.44546  20876580.484                    20876586.734
 123949210.463 7  96583985.99744  23586780.508                    23586790.121
 114377410.811 8  89125296.092 7  21765294.414                    21765302.555
 125944011.346 6  98138213.09743  23966354.086                    23966362.949
 126829990.886 6  98828665.49043  24134956.391                    24134966.469
 126864636.546 6  98855699.26243  24141560.367                    24141571.051
 123160064.513 6  95968912.64444  23436584.180                    23436593.875
 113180575.182 7  88192692.39945  21537549.164                    21537557.672
 105548704.278 8  82245774.09946  20085251.461                    20085259.172
 109901048.127 8  85637210.49846  20913472.109                    20913478.469
 11  8 24 16 15  0.0000000  0 11G10G23G08G07G16G11G28G06G03G13G19
 126869409.818 6  98859362.01243  24142458.859                    24142469.586
 109779195.990 8  85542246.84146  20890289.805                    20890296.281
 123879862.638 7  96529948.77044  23573584.484                    23573593.480
 114323370.393 7  89083186.686 7  21755010.906                    21755018.758
 126032641.771 6  98207275.73743  23983219.906                    23983228.402
 126752469.589 6  98768259.32443  24120204.383                    24120214.809
 126801031.212 6  98806136.69643  24129456.570                    24129466.883
 123243056.619 6  96033581.74144  23452377.078                    23452387.023
 113247924.615 7  88245172.43945  21550365.031                    21550374.055
 105567888.570 8  82260722.88346  20088901.922                    20088909.523
 109896419.557 8  85633603.82446  20912591.391                    20912598.238
 11  8 24 16 15 30.0000000  0 11G10G23G08G07G16G11G28G06G03G13G19
 126901938.396 6  98884708.92344  24148649.336                    24148659.730
 109851709.442 8  85598750.78646  20904088.539                    20904094.891
 123810452.565 7  96475863.05344  23560375.836                    23560385.277
 114269393.737 8  89041126.959 7  21744739.070                    21744747.453
 126121220.979 6  98276298.45243  24000076.375                    24000084.598
 126674895.422 7  98707811.96743  24105442.984                    24105452.988
 126737650.928 7  98756749.51043  24117395.695                    24117406.117
 123326378.520 6  96098507.84144  23468232.961                    23468242.695
 113315766.160 7  88298035.92745  21563274.844                    21563283.879
 105587668.611 8  82276135.88046  20092666.352                    20092673.820
 109892409.154 8  85630478.81846  20911828.688                    20911835.000
 11  8 24 16 16  0.0000000  0 11G10G23G08G07G16G11G28G06G03G13G19
 126934824.983 6  98910334.78343  24154907.055                    24154918.094
 109924691.016 8  85655619.50046  20917976.547                    20917982.316
 123740980.270 7  96421728.82444  23547155.320                    23547164.352
 114215482.006 7  88999117.825 7  21734479.703                    21734487.816
 126209747.716 6  98345280.26843  24016922.031                    24016930.363
 126597271.157 6  98647325.57843  24090671.656                    24090681.926
 126674496.162 7  98707538.03743  24105378.180                    24105387.879
 123410027.901 7  96163689.09044  23484150.547                    23484160.656
 113384097.389 7  88351280.99145  21576278.211                    21576287.125
 105608044.828 8  82292013.42346  20096543.555                    20096551.324
 109889016.945 8  85627835.52646  20911182.688                    20911189.297
 11  8 24 16 16 30.0000000  0 11G10G23G08G07G16G11G28G06G03G13G19
 126968067.153 6  98936237.73143  24161232.883                    24161244.051
 109998138.532 8  85712851.27646  20931953.055                    20931959.594
 123671445.909 7  96367546.24444  23533923.102                    23533932.809
 114161636.229 8  88957160.084 7  21724233.859                    21724241.391
 126298220.853 7  98414220.31844  24033757.930                    24033766.762
 126519599.403 6  98586802.18343  24075890.195                    24075901.523
 126611566.604 7  98658502.06243  24093402.930                    24093412.547
 123494001.681 6  96229123.14444  23500130.711                    23500140.063
 113452915.599 7  88404905.52545  21589373.984                    21589382.680
 105629016.426 8  82308354.89546  20100534.242                    20100541.566
 109886243.362 8  85625674.29146  20910655.281                    20910661.563
 11  8 24 16 17  0.0000000  0 11G10G23G08G07G16G11G28G06G03G13G19
 127001662.510 6  98962415.86344  24167625.406                    24167636.988
 110072050.649 8  85770445.07946  20946018.023                    20946024.480
 123601850.388 7  96313316.00644  23520679.438                    23520689.320
 114107857.702 8  88915254.746 7  21713999.969                    21714007.891
 126386639.174 6  98483117.64243  24050583.969                    24050593.137
 126441882.604 6  98526243.72343  24061101.758                    24061112.172
 126548862.576 6  98609641.84843  24081470.391                    24081480.695
 123578298.143 6  96294808.66944  23516171.461                    23516180.223
 113522218.515 7  88458907.74845  21602561.758                    21602570.430
 105650583.598 8  82325160.46746  20104638.617                    20104646.223
 109884088.825 8  85623995.42346  20910245.508                    20910251.492
 11  8 24 16 17 30.0000000  0 11G10G23G08G07G16G11G28G06G03G13G19
 127035609.192 6  98988867.76843  24174085.688                    24174097.117
 110146424.816 8  85828398.93146  20960170.711                    20960177.496
 123532194.306 7  96259038.61344  23507424.555                    23507433.973
 114054147.763 8  88873402.857 7  21703778.852                    21703787.094
 126475001.491 6  98551971.31643  24067398.469                    24067407.988
 126364123.755 6  98465652.44543  24046304.281                    24046314.711
 126486383.777 6  98560957.11044  24069580.547                    24069591.539
 123662914.574 6  96360743.50143  23532273.750                    23532282.547
 113592004.171 7  88513286.12845  21615841.742                    21615850.645
 105672746.418 8  82342430.18046  20108855.984                    20108863.395
 109882553.843 8  85622799.32446  20909953.109                    20909959.309
 11  8 24 16 18  0.0000000  0 11G10G23G08G07G16G11G28G06G03G13G19
 127069904.532 6  99015591.35143  24180611.984                    24180623.453
 110221258.577 8  85886710.90446  20974411.352                    20974418.113
 123462477.465 7  96204713.82744  23494157.852                    23494167.418
 114000507.000 8  88831604.864 7  21693571.820                    21693579.680
 126563306.497 6  98620780.32644  24084201.883                    24084211.715
 126286325.366 6  98405030.41343  24031499.797                    24031510.828
 126424130.266 6  98512447.90943  24057735.305                    24057744.383
 123747848.045 6  96426925.34843  23548435.328                    23548445.469
 113662269.386 7  88568038.19945  21629212.344                    21629221.156
 105695503.812 8  82360163.19546  20113186.844                    20113194.398
 109881638.240 8  85622085.85346  20909779.273                    20909784.934
 11  8 24 16 18 30.0000000  0 11G10G23G08G07G16G11G28G06G03G13G19
 127104546.490 6  99042585.03843  24187204.008                    24187215.301
 110296550.201 8  85945379.64946  20988738.852                    20988745.730
 123392700.637 7  96150342.32444  23480879.531                    23480889.168
 113946936.857 8  88789861.909 7  21683377.742                    21683385.629
 126651553.065 6  98689543.79743  24100995.188                    24101004.363
 126208489.992 6  98344379.52643  24016688.086                    24016698.734
 126362101.995 6  98464114.21643  24045931.383                    24045940.578
 123833096.705 6  96493352.80843  23564658.258                    23564667.492
 113733012.144 7  88623162.37745  21642674.211                    21642683.840
 105718856.139 8  82378359.78546  20117630.563                    20117637.945
 109881342.566 8  85621855.45646  20909722.742                    20909728.574
 11  8 24 16 19  0.0000000  0 11G10G23G08G07G16G11G28G06G03G13G19
 127139532.612 6  99069846.90243  24193861.422                    24193873.230
 110372297.453 8  86004403.44246  21003153.227                    21003159.973
 123322864.394 7  96095924.50144  23467590.203                    23467599.496
 113893438.786 8  88748175.112 7  21673197.391                    21673205.473
 126739739.853 6  98758260.64643  24117776.414                    24117785.961
 126130620.527 7  98283702.11643  24001869.602                    24001880.563
 126300299.095 6  98415956.12943  24034170.750                    24034180.391
 123918657.759 6  96560023.66943  23580940.227                    23580949.410
 113804229.797 7  88678656.61645  21656226.930                    21656235.410
 105742803.120 8  82397019.74546  20122187.188                    20122194.805
 109881666.865 8  85622108.15346  20909784.039                    20909790.719
 11  8 24 16 19 30.0000000  0 11G10G23G08G07G16G11G28G06G03G13G19
 127174860.727 6  99097375.20743  24200584.227                    24200595.133
 110448498.052 8  86063780.47746  21017653.703                    21017660.434
 123252969.052 7  96041460.63544  23454289.922                    23454299.398
 113840013.667 8  88706545.148 7  21663030.516                    21663038.699
 126827865.941 6  98826930.21943  24134547.039                    24134555.730
 126052719.580 7  98223000.13543  23987045.633                    23987056.457
 126238721.411 6  98367973.54343  24022452.602                    24022462.109
 124004528.711 6  96626936.03344  23597280.570                    23597290.469
 113875919.399 7  88734518.58745  21669868.766                    21669877.711
 105767344.124 8  82416142.57746  20126857.453                    20126864.820
 109882611.150 8  85622843.94946  20909963.883                    20909970.461
 11  8 24 16 20  0.0000000  0 11G10G23G08G07G16G11G28G06G03G13G19
 127210528.177 6  99125167.94743  24207371.461                    24207383.004
 110525149.749 8  86123509.02846  21032240.141                    21032246.941
 123183015.069 7  95986951.05244  23440977.789                    23440987.066
 113786662.731 8  88664972.997 7  21652877.977                    21652886.809
 126915930.037 6  98895551.46443  24151305.219                    24151314.355
 125974789.673 7  98162275.59643  23972216.281                    23972227.148
 126177368.864 6  98320166.37043  24010777.375                    24010787.473
 124090707.028 6  96694087.87244  23613679.820                    23613690.113
 113948078.608 7  88790746.49945  21683600.484                    21683609.352
 105792478.726 8  82435727.96746  20131640.094                    20131647.809
 109884175.611 8  85624062.99446  20910261.891                    20910268.348
 11  8 24 16 20 30.0000000  0 11G10G23G08G07G16G11G28G06G03G13G19
 127246532.656 6  99153223.33243  24214223.313                    24214234.660
 110602250.496 8  86183587.48546  21046912.047                    21046919.277
 123113003.119 7  95932396.31644  23427654.797                    23427664.531
 113733387.005 8  88623459.451 7  21642740.633                    21642748.492
 127003930.947 6  98964123.50943  24168051.664                    24168059.918
 125896833.616 7  98101530.69043  23957381.617                    23957391.836
 126116241.209 6  98272534.46043  23999145.836                    23999155.613
 124177190.156 7  96761477.23644  23630137.664                    23630147.199
 114020705.124 7  88847338.54344  21697420.852                    21697429.227
 105818206.732 8  82455775.73846  20136536.047                    20136543.961
 109886360.635 8  85625765.60346  20910677.391                    20910684.117
 11  8 24 16 21  0.0000000  0 11G10G23G08G07G16G11G28G06G03G13G19
 127282872.078 6  99181539.69643  24221138.750                    24221149.617
 110679798.135 8  86244014.16946  21061668.875                    21061675.621
 123042933.515 7  95877796.64344  23414321.297                    23414330.867
 113680187.969 8  88582005.655 7  21632617.289                    21632624.809
 127091867.432 6  99032645.36943  24184785.328                    24184793.824
 125818854.208 6  98040767.57243  23942542.703                    23942552.770
 126055338.723 6  98225078.01743  23987556.359                    23987566.293
 124263975.478 7  96829102.09544  23646651.992                    23646662.262
 114093796.316 7  88904292.68645  21711329.617                    21711338.430
 105844527.967 8  82476285.76746  20141545.281                    20141552.934
 109889166.142 8  85627951.71146  20911211.680                    20911217.668
 11  8 24 16 21 30.0000000  0 11G10G23G08G07G16G11G28G06G03G13G19
 127319543.887 6  99210115.08543  24228116.766                    24228128.137
 110757790.427 8  86304787.32546  21076510.367                    21076516.879
 122972806.710 7  95823152.40344  23400976.523                    23400985.945
 113627066.666 7  88540612.436 7  21622508.266                    21622516.391
 127179738.367 6  99101116.13543  24201506.453                    24201515.785
 125740853.741 6  97979988.09243  23927699.063                    23927710.020
 125994661.084 6  98177796.78143  23976009.555                    23976019.727
 124351060.786 7  96896960.71844  23663224.172                    23663233.816
 114167349.437 7  88961606.75745  21725326.773                    21725335.508
 105871441.377 8  82497257.23246  20146666.695                    20146674.141
 109892592.047 8  85630621.23346  20911863.227                    20911869.941
 11  8 24 16 22  0.0000000  0 11G10G23G08G07G16G11G28G06G03G13G19
 127356545.744 6  99238947.64343  24235158.594                    24235169.320
 110836225.057 8  86365905.16346  21091436.281                    21091443.090
 122902623.394 7  95768464.13444  23387620.633                    23387629.988
 113574024.406 7  88499280.810 7  21612414.391                    21612422.773
 127267542.719 6  99169535.05443  24218215.008                    24218223.715
 125662835.394 6  97919194.61743  23912852.414                    23912863.313
 125934208.336 6  98130690.79143  23964505.313                    23964515.469
 124438443.593 7  96965051.14744  23679852.414                    23679862.301
 114241362.065 7  89019278.89345  21739410.469                    21739419.758
 105898947.046 8  82518690.20446  20151900.750                    20151908.215
 109896638.537 8  85633774.33246  20912633.297                    20912639.609
 11  8 24 16 22 30.0000000  0 11G10G23G08G07G16G11G28G06G03G13G19
 127393875.214 6  99268035.49843  24242262.453                    24242273.074
 110915099.522 8  86427365.73246  21106445.359                    21106452.113
 122832384.069 7  95713732.20944  23374254.688                    23374263.656
 113521062.184 8  88458011.546 7  21602336.359                    21602344.008
 127355279.296 6  99237901.12943  24234910.727                    24234919.355
 125584801.764 6  97858389.28443  23898003.703                    23898014.273
 125873980.125 6  98083759.75543  23953045.008                    23953054.988
 124526121.198 6  97033371.29544  23696537.016                    23696546.410
 114315831.460 8  89077306.95145  21753581.508                    21753590.695
 105927044.108 8  82540583.99646  20157247.477                    20157254.848
 109901305.331 8  85637410.78346  20913521.930                    20913528.102
 11  8 24 16 23  0.0000000  0 11G10G23G08G07G16G11G28G06G03G13G19
 127431529.839 6  99297376.69743  24249427.477                    24249438.031
 110994412.001 8  86489167.61846  21121538.031                    21121544.813
 122762089.203 7  95658957.02044  23360878.250                    23360887.336
 113468181.728 8  88416806.003 7  21592273.625                    21592281.641
 127442947.421 6  99306213.86543  24251593.602                    24251602.355
 125506755.649 6  97797574.25943  23883151.375                    23883162.684
 125813976.750 6  98037003.92443  23941626.094                    23941636.273
 124614091.148 6  97101919.25643  23713276.969                    23713287.242
 114390755.307 7  89135689.10645  21767839.320                    21767848.035
 105955732.460 8  82562938.53446  20162706.648                    20162714.363
 109906592.948 8  85641530.99246  20914527.742                    20914534.012
 11  8 24 16 23 30.0000000  0 11G10G23G08G07G16G11G28G06G03G13G19
 127469507.338 6  99326969.53043  24256654.375                    24256665.770
 111074160.163 8  86551308.99646  21136713.508                    21136720.488
 122691739.055 7  95604138.75744  23347491.305                    23347500.102
 113415383.926 8  88375664.867 7  21582226.578                    21582234.617
 127530545.667 6  99374472.19243  24268262.875                    24268271.227
 125428699.922 6  97736751.71543  23868297.719                    23868309.391
 125754198.180 6  97990423.26643  23930250.758                    23930261.035
 124702350.928 6  97170693.02043  23730071.820                    23730081.543
 114466131.182 7  89194423.50045  21782183.195                    21782191.582
 105985011.586 8  82585753.41046  20168278.305                    20168286.273
 109912500.992 8  85646134.64046  20915652.281                    20915658.359
 11  8 24 16 24  0.0000000  0 11G10G23G08G07G16G11G28G06G03G13G19
 127507805.421 6  99356812.13543  24263942.359                    24263953.656
 111154341.214 8  86613787.67346  21151971.766                    21151978.613
 122621334.501 7  95549278.10244  23334093.867                    23334102.473
 113362670.378 8  88334589.389 7  21572195.484                    21572203.695
 127618073.235 6  99442675.37743  24284919.156                    24284927.355
 125350637.104 7  97675923.65543  23853443.727                    23853454.664
 125694643.829 7  97944017.32143  23918917.695                    23918927.621
 124790897.973 6  97239690.64843  23746921.867                    23746931.695
 114541956.197 7  89253507.87445  21796611.984                    21796620.992
 106014880.570 8  82609027.91746  20173961.781                    20173969.664
 109919029.166 8  85651221.51946  20916894.141                    20916901.004
 11  8 24 16 24 30.0000000  0 11G10G23G08G07G16G11G28G06G03G13G19
 127546421.777 6  99386902.73843  24271290.258                    24271301.559
 111234953.449 8  86676602.35046  21167311.883                    21167318.742
 122550876.383 7  95494375.71644  23320685.109                    23320694.828
 113310042.211 8  88293580.426 7  21562180.359                    21562188.578
 127705528.772 6  99510822.50243  24301560.938                    24301569.531
 125272569.862 7  97615092.10644  23838588.422                    23838598.484
 125635313.735 7  97897786.12243  23907627.313                    23907637.574
 124879729.790 6  97308910.17943  23763825.750                    23763836.258
 114618227.609 7  89312940.09445  21811126.203                    21811135.066
 106045339.086 8  82632761.80646  20179758.438                    20179765.957
 109926177.866 8  85656791.92246  20918254.500                    20918260.844
 11  8 24 16 25  0.0000000  0 11G10G23G08G07G16G11G28G06G03G13G19
 127585353.473 6  99417239.08243  24278699.328                    24278710.484
 111315993.998 8  86739750.77746  21182733.211                    21182739.965
 122480364.952 7  95439431.77244  23307267.563                    23307277.781
 113257500.528 8  88252638.857 7  21552182.500                    21552190.531
 127792911.245 6  99578912.64943  24318190.156                    24318198.504
 125194501.101 7  97554259.37344  23823731.891                    23823742.254
 125576207.434 7  97851729.29544  23896379.859                    23896390.391
 124968843.746 6  97378349.55643  23780784.500                    23780793.762
 114694942.560 7  89372717.92044  21825724.438                    21825733.375
 106076386.184 8  82656954.32446  20185666.180                    20185673.598
 109933946.345 8  85662845.28046  20919732.797                    20919739.363
 11  8 24 16 25 30.0000000  0 11G10G23G08G07G16G11G28G06G03G13G19
 127624598.230 6  99447819.32543  24286166.664                    24286178.473
 111397460.922 8  86803231.45346  21198236.211                    21198242.648
 122409800.606 7  95384446.59844  23293840.047                    23293849.398
 113205046.597 8  88211765.682 7  21542200.516                    21542208.602
 127880219.794 6  99646945.14542  24334804.375                    24334812.816
 125116433.540 7  97493427.56844  23808876.406                    23808886.098
 125517324.990 7  97805846.91044  23885174.945                    23885185.223
 125058237.202 6  97448006.69344  23797795.984                    23797805.816
 114772098.753 7  89432839.57345  21840406.641                    21840416.023
 106108021.143 8  82681604.90446  20191686.438                    20191693.992
 109942334.862 8  85669381.76946  20921329.328                    20921335.902
 11  8 24 16 26  0.0000000  0 11G10G23G08G07G16G11G28G06G03G13G19
 127664153.322 6  99478641.39643  24293694.672                    24293705.375
 111479351.652 8  86867042.35345  21213819.094                    21213825.797
 122339183.896 7  95329420.62844  23280402.109                    23280411.176
 113152681.608 8  88170961.796 7  21532235.977                    21532243.973
 127967452.931 6  99714918.93843  24351403.453                    24351412.789
 125038370.035 7  97432598.92244  23794021.117                    23794031.578
 125458666.402 7  97760138.96844  23874012.914                    23874022.543
 125147907.577 6  97517879.65344  23814859.242                    23814868.832
 114849693.224 7  89493302.75245  21855172.578                    21855181.742
 106140243.401 8  82706713.13146  20197818.227                    20197826.066
 109951342.896 8  85676401.01746  20923043.289                    20923049.820
 11  8 24 16 26 30.0000000  0 11G10G23G08G07G16G11G28G06G03G13G19
 127704016.540 6  99509703.57243  24301279.828                    24301291.379
 111561663.673 8  86931181.53746  21229482.922                    21229489.809
 122268515.926 7  95274354.72244  23266954.359                    23266963.945
 113100407.285 8  88130228.563 7  21522288.570                    21522296.414
 128054610.089 6  99782833.51043  24367988.961                    24367999.043
 124960313.265 7  97371775.53744  23779167.484                    23779177.977
 125400231.257 6  97714605.15243  23862892.813                    23862902.512
 125237852.671 6  97587966.67944  23831975.578                    23831985.250
 114927723.716 7  89554105.68045  21870021.477                    21870030.016
 106173052.607 8  82732278.72546  20204061.336                    20204068.703
 109960970.007 8  85683902.65846  20924875.383                    20924881.543
 11  8 24 16 27  0.0000000  0 11G10G23G08G07G16G11G28G06G03G13G19
 127744185.396 6  99541003.91343  24308923.711                    24308935.438
 111644394.543 8  86995647.08745  21245226.070                    21245232.840
 122197797.244 7  95219249.29244  23253496.391                    23253506.566
 113048224.879 8  88089566.960 7  21512358.164                    21512366.512
 128141690.356 6  99850688.16943  24384560.078                    24384569.559
 124882266.159 7  97310959.65043  23764316.047                    23764325.930
 125342019.563 6  97669245.43443  23851815.414                    23851825.094
 125328069.816 6  97658265.69244  23849143.328                    23849153.098
 115006187.370 7  89615246.14845  21884952.789                    21884960.895
 106206448.054 8  82758301.12446  20210416.156                    20210423.984
 109971216.491 8  85691886.92646  20926825.352                    20926831.703
 11  8 24 16 27 30.0000000  0 11G10G23G08G07G16G11G28G06G03G13G19
 127784657.456 5  99572540.48743  24316624.930                    24316636.367
 111727542.521 8  87060437.66545  21261048.852                    21261055.512
 122127028.414 7  95164104.78944  23240030.211                    23240038.777
 112996135.615 8  88048977.930 7  21502445.984                    21502454.207
 128228692.275 6  99918481.78043  24401115.883                    24401125.625
 124804231.573 6  97250153.54943  23749466.164                    23749476.027
 125284031.169 6  97624059.71143  23840780.688                    23840789.906
 125418556.393 6  97728774.62544  23866362.469                    23866372.684
 115085081.437 7  89676721.99445  21899965.844                    21899974.691
 106240428.868 8  82784779.65146  20216882.734                    20216890.406
 109982081.853 8  85700353.44546  20928892.656                    20928899.637
 11  8 24 16 28  0.0000000  0 11G10G23G08G07G16G11G28G06G03G13G19
 127825430.293 6  99604311.46743  24324384.211                    24324396.223
 111811104.764 8  87125551.05545  21276950.180                    21276956.676
 122056210.100 7  95108921.72744  23226553.797                    23226562.902
 112944140.920 8  88008462.603 7  21492552.023                    21492560.023
 128315615.010 6  99986213.70043  24417656.914                    24417666.914
 124726211.974 6  97189359.10843  23734619.156                    23734629.273
 125226265.547 6  97579047.61743  23829787.758                    23829797.094
 125509309.918 6  97799491.56544  23883632.719                    23883642.445
 115164403.201 7  89738531.10745  21915059.477                    21915068.965
 106274993.907 8  82811713.41746  20223460.078                    20223467.988
 109993565.625 8  85709301.83146  20931078.266                    20931084.363
 11  8 24 16 28 30.0000000  0 11G10G23G08G07G16G11G28G06G03G13G19
 127866501.322 6  99636314.74543  24332200.266                    24332212.031
 111895078.610 8  87190985.16645  21292929.461                    21292936.551
 121985342.565 7  95053700.29244  23213067.516                    23213077.152
 112892241.783 8  87968021.734 7  21482675.695                    21482683.746
 128402457.756 6 100053883.29743  24434182.445                    24434192.016
 124648210.453 6  97128578.72243  23719775.656                    23719785.285
 125168722.448 6  97534208.89943  23818837.906                    23818847.242
 125600327.599 6  97870414.36443  23900952.344                    23900962.371
 115244149.983 7  89800671.40944  21930235.063                    21930244.332
 106310142.458 8  82839101.87146  20230148.750                    20230156.605
 110005667.516 8  85718731.87046  20933381.039                    20933387.773
 11  8 24 16 29  0.0000000  0 11G10G23G08G07G16G11G28G06G03G13G19
 127907867.735 6  99668548.22943  24340071.680                    24340083.520
 111979461.803 8  87256738.24646  21308987.117                    21308994.090
 121914426.840 7  94998441.32144  23199572.820                    23199582.641
 112840439.796 8  87927656.553 7  21472817.914                    21472826.082
 128489219.661 6 100121489.89043  24450693.289                    24450702.063
 124570229.689 6  97067814.52543  23704936.047                    23704945.738
 125111401.845 6  97489543.54243  23807929.570                    23807939.820
 125691607.176 6  97941541.21143  23918321.625                    23918332.559
 115324318.957 7  89863140.67544  21945491.227                    21945499.965
 106345873.924 8  82866944.53746  20236948.133                    20236955.859
 110018387.221 8  85728643.32446  20935801.492                    20935808.516
 11  8 24 16 29 30.0000000  0 11G10G23G08G07G16G11G28G06G03G13G19
 127949527.420 6  99701010.23943  24347999.125                    24348011.277
 112064252.000 8  87322808.45145  21325122.617                    21325129.008
 121843463.424 7  94943145.18044  23186069.125                    23186078.570
 112788736.519 8  87887368.286 7  21462978.953                    21462986.934
 128575899.519 6 100189032.56043  24467187.508                    24467197.098
 124492272.693 6  97007068.83043  23690101.766                    23690111.430
 125054303.605 6  97445051.43543  23797064.094                    23797073.672
 125783146.143 6  98012870.18443  23935741.625                    23935751.461
 115404907.525 7  89925936.91345  21960826.164                    21960835.629
 106382187.548 8  82895240.83746  20243858.094                    20243866.484
 110031724.448 8  85739035.94946  20938339.469                    20938346.227
 11  8 24 16 30  0.0000000  0 11G10G23G08G07G16G11G28G06G03G13G19
 127991477.947 6  99733698.89643  24355982.227                    24355993.992
 112149446.387 8  87389193.62746  21341334.539                    21341341.527
 121772453.060 7  94887812.45544  23172556.102                    23172565.543
 112737133.205 8  87847157.917 7  21453159.430                    21453167.273
 128662496.560 6 100256510.72743  24483666.891                    24483676.047
 124414342.214 6  96946343.82943  23675272.430                    23675282.004
 124997427.327 6  97400732.28043  23786241.117                    23786251.031
 125874941.685 6  98084399.07743  23953209.211                    23953220.063
 115485912.676 7  89989057.75944  21976241.359                    21976250.902
 106419082.476 8  82923990.09546  20250879.469                    20250887.246
 110045678.532 8  85749909.23946  20940994.742                    20941001.297
 11  8 24 16 30 30.0000000  0 11G10G23G08G07G16G11G28G06G03G13G19
 128033716.341 6  99766611.82543  24364020.555                    24364031.793
 112235042.532 8  87455891.86246  21357622.844                    21357629.941
 121701396.636 7  94832443.83244  23159034.367                    23159043.879
 112685630.981 8  87807026.316 7  21443358.648                    21443366.664
 128749009.548 6 100323923.33943  24500129.445                    24500139.203
 124336440.829 6  96885641.49644  23660447.805                    23660457.645
 124940772.396 7  97356585.61843  23775459.977                    23775470.090
 125966991.064 6  98156125.82143  23970725.977                    23970736.141
 115567331.793 7  90052501.17544  21991734.828                    21991743.824
 106456556.991 8  82953190.98646  20258010.648                    20258018.508
 110060248.801 8  85761262.68046  20943767.570                    20943773.953
 11  8 24 16 31  0.0000000  0 11G10G23G08G07G16G11G28G06G03G13G19
 128076240.090 6  99799747.13643  24372113.102                    24372124.039
 112321038.440 8  87522901.59745  21373987.281                    21373994.277
 121630294.620 7  94777039.69744  23145504.250                    23145513.441
 112634231.401 8  87766974.712 7  21433578.133                    21433585.852
 128835437.794 6 100391269.96143  24516576.664                    24516585.457
 124258571.875 6  96824964.45943  23645630.031                    23645640.168
 124884339.027 7  97312611.59243  23764721.484                    23764731.563
 126059292.240 6  98228048.80043  23988290.719                    23988299.965
 115649162.085 7  90116264.99844  22007306.469                    22007315.152
 106494610.899 8  82982843.34346  20265251.961                    20265259.801
 110075434.954 8  85773096.03046  20946657.734                    20946663.859
 11  8 24 16 31 30.0000000  0 11G10G23G08G07G16G11G28G06G03G13G19
 128119046.612 6  99833102.80443  24380258.969                    24380269.887
 112407431.247 8  87590220.60646  21390427.773                    21390434.223
 121559147.761 7  94721600.62444  23131965.789                    23131975.023
 112582935.779 8  87727004.125 7  21423816.242                    21423824.523
 128921780.418 6 100458549.89043  24533007.281                    24533017.145
 124180737.830 6  96764314.57944  23630819.156                    23630828.723
 124828126.522 7  97268809.65943  23754024.289                    23754034.191
 126151842.223 6  98300165.60443  24005902.445                    24005911.527
 115731400.978 7  90180347.20344  22022956.523                    22022965.328
 106533242.999 8  83012946.24146  20272603.672                    20272611.598
 110091236.145 8  85785408.63046  20949664.352                    20949671.176
 11  8 24 16 32  0.0000000  0 11G10G23G08G07G16G11G28G06G03G13G19
 128162133.567 6  99866676.97443  24388458.078                    24388468.820
 112494218.305 8  87657846.81746  21406942.453                    21406948.957
 121487956.902 7  94666127.27444  23118418.211                    23118428.113
 112531745.995 8  87687116.001 7  21414075.672                    21414083.539
 129008036.574 6 100525762.33043  24549420.156                    24549430.680
 124102941.699 6  96703694.27844  23616014.227                    23616024.605
 124772135.132 7  97225180.03643  23743369.758                    23743379.160
 126244638.731 6  98372474.52544  24023560.320                    24023571.270
 115814045.649 7  90244745.59644  22038682.578                    22038691.797
 106572452.240 8  83043498.86346  20280064.844                    20280072.918
 110107652.592 8  85798200.65146  20952788.242                    20952794.668
 11  8 24 16 32 30.0000000  0 11G10G23G08G07G16G11G28G06G03G13G19
 128205498.388 6  99900467.67843  24396709.398                    24396720.816
 112581397.183 8  87725778.34946  21423532.133                    21423539.215
 121416722.815 7  94610620.22944  23104863.141                    23104871.676
 112480662.944 8  87647311.034 7  21404354.922                    21404362.805
 129094205.191 6 100592906.71143  24565818.906                    24565827.766
 124025186.213 6  96643105.61943  23601217.781                    23601227.902
 124716364.249 7  97181722.24244  23732756.633                    23732766.582
 126337679.131 6  98444973.44443  24041265.258                    24041275.973
 115897093.269 7  90309457.99244  22054486.219                    22054495.848
 106612237.836 8  83074500.59146  20287635.898                    20287643.395
 110124683.119 8  85811471.17046  20956029.281                    20956036.156
 11  8 24 16 33  0.0000000  0 11G10G23G08G07G16G11G28G06G03G13G19
 128249138.299 6  99934472.71043  24405014.391                    24405025.434
 112668965.480 8  87794013.31645  21440195.648                    21440203.020
 121345446.429 7  94555080.20844  23091299.695                    23091308.547
 112429688.344 8  87607590.583 7  21394654.773                    21394662.559
 129180285.505 6 100659982.18343  24582198.758                    24582208.461
 123947474.372 6  96582550.97744  23586430.680                    23586439.734
 124660813.631 7  97138436.06144  23722185.352                    23722195.371
 126430960.828 6  98517660.41443  24059016.867                    24059027.281
 115980541.145 7  90374482.25744  22070365.898                    22070375.984
 106652598.766 8  83105950.62646  20295316.211                    20295324.203
 110142327.400 8  85825219.94946  20959386.594                    20959393.125
 11  8 24 16 33 30.0000000  0 11G10G23G08G07G16G11G28G06G03G13G19
 128293050.671 7  99968690.03743  24413370.688                    24413382.082
 112756920.485 7  87862549.60745  21456933.594                    21456940.453
 121274128.441 7  94499507.77944  23077728.016                    23077737.340
 112378823.649 8  87567955.753 7  21384975.477                    21384983.480
 129266276.753 6 100726988.24543  24598562.453                    24598572.512
 123869809.101 6  96522032.62144  23571650.844                    23571660.898
 124605482.869 7  97095321.20144  23711656.438                    23711666.637
 126524481.460 6  98590533.52043  24076812.969                    24076823.465
 116064386.643 7  90439816.34145  22086321.328                    22086331.008
 106693533.920 8  83137848.10046  20303106.117                    20303113.926
 110160584.859 8  85839446.50746  20962860.961                    20962867.234
 11  8 24 16 34  0.0000000  0 11G10G23G08G07G16G11G28G06G03G13G19
 128337232.892 6 100003117.64843  24421778.281                    24421789.277
 112845259.737 8  87931385.33145  21473743.625                    21473750.746
 121202769.350 7  94443903.31944  23064148.734                    23064158.215
 112328070.153 7  87528407.581 7  21375317.406                    21375325.676
 129352178.021 6 100793924.19043  24614909.055                    24614918.746
 123792193.389 6  96461552.87243  23556880.367                    23556891.063
 124550371.617 7  97052377.38344  23701169.641                    23701179.215
 126618238.305 6  98663590.70643  24094653.563                    24094665.188
 116148626.641 7  90505457.85044  22102351.961                    22102361.402
 106735042.132 8  83170192.11846  20311004.867                    20311012.305
 110179454.574 8  85854150.17146  20966451.680                    20966458.207
 11  8 24 16 34 30.0000000  0 11G10G23G08G07G16G11G28G06G03G13G19
 128381682.561 7 100037753.65343  24430236.906                    24430247.797
 112933980.707 8  88000518.46545  21490626.859                    21490633.629
 121131370.285 7  94388267.72544  23050562.164                    23050571.375
 112277429.403 8  87488947.274 7  21365680.828                    21365688.453
 129437988.325 6 100860789.27943  24631238.484                    24631248.348
 123714629.857 6  96401113.81144  23542120.852                    23542130.840
 124495479.762 7  97009604.54844  23690723.914                    23690733.586
 126712228.863 6  98736829.98043  24112540.547                    24112550.664
 116233258.546 7  90571404.73744  22118457.234                    22118466.129
 106777122.322 8  83202981.84446  20319012.336                    20319020.539
 110198935.836 8  85869330.36446  20970159.109                    20970165.348
 11  8 24 16 35  0.0000000  0 11G10G23G08G07G16G11G28G06G03G13G19
 128426396.892 6 100072595.95542  24438745.953                    24438756.578
 113023080.518 8  88069946.81145  21507581.844                    21507588.918
 121059931.793 7  94332601.37844  23036967.906                    23036976.996
 112226902.780 8  87449575.877 7  21356066.227                    21356073.559
 129523706.830 6 100927582.82743  24647550.344                    24647560.020
 123637121.614 7  96340717.83344  23527371.383                    23527381.473
 124440806.753 7  96967002.23344  23680320.211                    23680329.598
 126806450.366 6  98810249.22043  24130470.125                    24130480.691
 116318279.570 7  90637654.81944  22134636.367                    22134645.422
 106819773.338 8  83236216.36546  20327128.492                    20327136.770
 110219027.904 8  85884986.51146  20973982.383                    20973988.820
 11  8 24 16 35 30.0000000  0 11G10G23G08G07G16G11G28G06G03G13G19
 128471373.614 6 100107642.71343  24447305.023                    24447315.395
 113112557.074 8  88139668.73845  21524608.805                    21524615.988
 120988454.674 7  94276904.96744  23023366.656                    23023375.293
 112176492.127 8  87410294.856 7  21346472.953                    21346480.535
 129609332.994 6 100994304.41043  24663844.930                    24663854.020
 123559671.508 7  96280367.15844  23512633.641                    23512643.398
 124386352.564 7  96924570.41444  23669957.461                    23669967.320
 126900900.681 6  98883846.78143  24148444.422                    24148454.309
 116403686.680 7  90704205.77144  22150888.656                    22150897.246
 106862994.388 8  83269895.07346  20335353.406                    20335361.223
 110239730.680 8  85901118.54146  20977921.867                    20977928.484
 11  8 24 16 36  0.0000000  0 11G10G23G08G07G16G11G28G06G03G13G19
 128516609.687 6 100142891.56443  24455912.281                    24455923.926
 113202407.443 8  88209681.95045  21541706.828                    21541713.859
 120916939.675 7  94221179.02344  23009756.852                    23009766.313
 112126198.259 8  87371104.849 7  21336902.453                    21336910.133
 129694865.798 6 101060953.26543  24680120.477                    24680130.680
 123482282.194 7  96220063.86744  23497906.383                    23497916.730
 124332116.223 7  96882308.35443  23659636.563                    23659646.168
 126995576.892 6  98957620.36543  24166460.219                    24166470.648
 116489477.060 7  90771055.38544  22167213.797                    22167222.750
 106906783.653 8  83304016.54446  20343686.141                    20343694.148
 110261042.380 8  85917725.05146  20981977.273                    20981983.668
 11  8 24 16 36 30.0000000  0 11G10G23G08G07G16G11G28G06G03G13G19
 128562102.707 6 100178340.53343  24464569.836                    24464581.184
 113292628.935 8  88279984.33245  21558875.945                    21558882.754
 120845387.581 7  94165424.17044  22996141.477                    22996150.742
 112076022.924 8  87332007.192 7  21327354.164                    21327361.898
 129780304.091 6 101127528.50743  24696379.031                    24696389.324
 123404956.608 7  96159810.20544  23483191.945                    23483201.641
 124278097.622 7  96840215.97044  23649357.414                    23649366.738
 127090476.188 6  99031567.81143  24184518.414                    24184529.277
 116575647.785 7  90838201.35244  22183611.656                    22183620.500
 106951139.589 8  83338579.57346  20352126.414                    20352134.539
 110282962.497 8  85934805.65546  20986148.570                    20986155.238
 11  8 24 16 37  0.0000000  0 11G10G23G08G07G16G11G28G06G03G13G19
 128607849.991 6 100213987.68443  24473274.617                    24473286.371
 113383219.096 7  88350573.98745  21576114.273                    21576121.148
 120773799.560 7  94109641.33744  22982518.391                    22982527.645
 112025967.677 8  87293003.114 7  21317829.367                    21317837.027
 129865647.683 6 101194029.93143  24712619.086                    24712629.266
 123327697.866 6  96099608.64144  23468490.688                    23468500.117
 124224296.566 6  96798293.07343  23639119.188                    23639128.711
 127185596.531 6  99105687.52643  24202619.633                    24202630.031
 116662196.263 7  90905641.68944  22200081.148                    22200090.535
 106996061.894 8  83373583.92846  20360675.313                    20360682.832
 110305490.432 8  85952359.89346  20990435.484                    20990442.035
 11  8 24 16 37 30.0000000  0 11G10G23G08G07G16G11G28G06G03G13G19
 128653848.911 6 100249830.95342  24482027.633                    24482039.738
 113474175.131 8  88421448.73945  21593422.656                    21593429.871
 120702176.430 7  94053831.14544  22968888.844                    22968898.469
 111976034.294 8  87254093.988 7  21308326.961                    21308335.074
 129950895.627 6 101260456.85542  24728841.000                    24728851.461
 123250508.975 6  96039461.53244  23453801.820                    23453811.602
 124170712.569 7  96756539.34743  23628922.719                    23628932.746
 127280935.449 6  99179977.49743  24220762.695                    24220772.977
 116749119.831 7  90973374.29144  22216622.609                    22216631.348
 107041549.118 8  83409028.48146  20369331.453                    20369339.020
 110328625.351 8  85970387.08846  20994837.961                    20994844.551
 11  8 24 16 38  0.0000000  0 11G10G23G08G07G16G11G28G06G03G13G19
 128700096.818 6 100285868.20642  24490829.711                    24490840.965
 113565494.403 8  88492606.54345  21610800.156                    21610807.141
 120630519.188 7  93997994.36344  22955253.461                    22955262.512
 111926224.035 8  87215280.808 7  21298848.453                    21298856.691
 130036046.919 6 101326808.43942  24745045.297                    24745054.590
 123173392.708 6  95979371.02144  23439127.063                    23439136.938
 124117345.311 7  96714954.51544  23618767.109                    23618777.016
 127376490.062 6  99254435.58543  24238945.570                    24238956.473
 116836415.358 7  91041396.73344  22233234.047                    22233242.938
 107087599.712 8  83444912.02346  20378094.180                    20378102.488
 110352366.169 8  85988886.41346  20999355.977                    20999362.168
 11  8 24 16 38 30.0000000  0 11G10G23G08G07G16G11G28G06G03G13G19
 128746590.803 6 100322097.25543  24499677.078                    24499688.215
 113657174.196 8  88564045.26345  21628246.578                    21628253.266
 120558828.375 7  93942131.44344  22941610.914                    22941619.922
 111876538.413 8  87176564.753 7  21289393.555                    21289401.316
 130121101.060 6 101393084.34742  24761230.781                    24761240.523
 123096352.036 6  95919339.41243  23424465.617                    23424476.070
 124064194.360 7  96673538.24844  23608652.656                    23608662.801
 127472257.850 6  99329059.75243  24257169.891                    24257180.285
 116924080.168 7  91109706.92944  22249916.234                    22249925.523
 107134212.559 8  83481233.68346  20386964.313                    20386972.379
 110376711.991 8  86007857.18246  21003988.211                    21003994.676
 11  8 24 16 39  0.0000000  0 11G10G23G08G07G16G11G28G06G03G13G19
 128793328.365 6 100358516.03843  24508571.477                    24508582.367
 113749212.097 8  88635763.03945  21645760.664                    21645767.859
 120487104.846 7  93886243.01044  22927962.344                    22927971.254
 111826978.972 8  87137947.019 7  21279962.648                    21279970.488
 130206057.458 6 101459284.01942  24777397.508                    24777407.309
 123019390.031 6  95859369.12644  23409820.570                    23409830.398
 124011259.120 7  96632290.05144  23598579.367                    23598588.824
 127568236.310 6  99403848.10043  24275433.563                    24275444.391
 117012111.096 7  91178302.39744  22266668.508                    22266677.324
 107181386.117 8  83517992.26146  20395941.625                    20395949.207
 110401662.052 8  86027298.77646  21008736.352                    21008742.934
 11  8 24 16 39 30.0000000  0 11G10G23G08G07G16G11G28G06G03G13G19
 128840306.807 6 100395122.51843  24517510.969                    24517522.145
 113841605.304 8  88707757.67245  21663342.547                    21663349.648
 120415349.494 7  93830329.78144  22914307.617                    22914316.770
 111777547.094 8  87099428.686 7  21270556.289                    21270564.184
 130290915.278 6 101525406.91942  24793545.258                    24793555.051
 122942509.314 7  95799462.18043  23395190.539                    23395200.598
 123958539.260 7  96591209.70244  23588546.859                    23588556.910
 127664422.893 6  99478798.63943  24293737.820                    24293748.219
 117100505.477 7  91247181.08644  22283489.195                    22283498.539
 107229119.098 8  83555186.76646  20405024.758                    20405032.824
 110427215.142 8  86047210.26646  21013598.961                    21013605.738
 11  8 24 16 40  0.0000000  0 11G10G23G08G07G16G11G28G06G03G13G19
 128887523.402 6 100431914.57843  24526496.117                    24526507.188
 113934350.954 8  88780026.92745  21680991.508                    21680998.961
 120343563.481 7  93774392.65844  22900647.281                    22900656.770
 111728244.328 8  87061010.956 7  21261174.234                    21261182.395
 130375673.508 6 101591452.26543  24809674.453                    24809684.336
 122865713.069 7  95739621.02044  23380577.031                    23380586.367
 123906034.354 7  96550296.83744  23578555.602                    23578565.457
 127760814.854 6  99553909.16443  24312080.172                    24312091.773
 117189260.298 7  91316340.63844  22300378.359                    22300387.969
 107277410.051 8  83592816.04746  20414214.109                    20414221.969
 110453370.330 8  86067590.90946  21018576.414                    21018582.594
 11  8 24 16 40 30.0000000  0 11G10G23G08G07G16G11G28G06G03G13G19
 128934975.782 6 100468890.37243  24535525.664                    24535536.762
 114027446.587 8  88852568.90445  21698706.938                    21698714.242
 120271747.988 7  93718432.57444  22886980.961                    22886990.434
 111679072.771 8  87022695.461 7  21251816.891                    21251825.137
 130460331.573 6 101657419.50343  24825784.672                    24825793.938
 122789004.107 7  95679847.85744  23365979.648                    23365989.238
 123853744.036 6  96509551.16644  23568605.281                    23568614.418
 127857409.915 6  99629177.91743  24330461.719                    24330472.918
 117278372.905 7  91385778.98544  22317336.258                    22317345.555
 107326257.817 8  83630879.19546  20423509.734                    20423517.535
 110480126.831 8  86088440.12446  21023667.961                    21023674.273
 11  8 24 16 41  0.0000000  0 11G10G23G08G07G16G11G28G06G03G13G19
 128982660.848 6 100506047.51143  24544600.188                    24544611.074
 114120889.369 8  88925381.37745  21716488.961                    21716496.105
 120199903.738 7  93662450.06844  22873309.375                    22873318.426
 111630033.618 8  86984483.135 7  21242485.477                    21242493.441
 130544888.826 6 101723308.22743  24841874.922                    24841885.344
 122712385.361 7  95620144.99444  23351399.836                    23351409.086
 123801667.809 7  96468972.33344  23558695.414                    23558705.379
 127954205.591 6  99704603.02143  24348881.836                    24348891.941
 117367840.613 7  91455494.02944  22334360.766                    22334370.520
 107375660.825 8  83669375.00746  20432910.508                    20432918.648
 110507483.466 8  86109756.96946  21028873.492                    21028880.613
 11  8 24 16 41 30.0000000  0 11G10G23G08G07G16G11G28G06G03G13G19
 129030576.254 6 100543384.07543  24553717.313                    24553728.910
 114214676.518 8  88998462.19145  21734336.117                    21734343.223
 120128031.168 7  93606445.49544  22859632.742                    22859641.723
 111581128.217 8  86946375.032 7  21233178.766                    21233186.645
 130629344.555 6 101789117.86043  24857946.797                    24857957.055
 122635859.953 7  95560514.85844  23336837.133                    23336846.691
 123749805.014 7  96428559.82243  23548825.859                    23548835.813
 128051199.077 6  99780182.25543  24367338.602                    24367349.672
 117457660.266 7  91525483.30544  22351453.148                    22351463.023
 107425617.532 8  83708302.27546  20442417.344                    20442425.262
 110535438.905 8  86131540.40746  21034193.242                    21034199.949
 11  8 24 16 42  0.0000000  0 11G10G23G08G07G16G11G28G06G03G13G19
 129078719.101 6 100580897.91943  24562879.336                    24562890.805
 114308805.243 8  89071809.16445  21752248.055                    21752255.832
 120056131.381 7  93550419.71244  22845950.805                    22845959.438
 111532358.418 8  86908372.599 7  21223898.164                    21223906.172
 130713698.136 6 101854847.84943  24873998.313                    24874008.883
 122559430.629 7  95500959.59244  23322293.250                    23322302.547
 123698155.473 7  96388313.44044  23538997.250                    23539006.852
 128148388.184 6  99855913.98243  24385833.984                    24385843.484
 117547829.122 7  91595744.71044  22368611.563                    22368621.250
 107476126.582 8  83747659.94046  20452028.781                    20452036.563
 110563992.390 8  86153789.85646  21039627.039                    21039633.598
 11  8 24 16 42 30.0000000  0 10G10G23G08G07G11G28G06G03G13G19
 129127086.763 6 100618586.90243  24572084.078                    24572095.324
 114403273.348 8  89145420.59445  21770224.844                    21770232.324
 119984205.882 7  93494373.89144  22832263.656                    22832272.453
 111483726.097 8  86870477.285 7  21214643.969                    21214652.055
 122483100.547 7  95441481.65844  23307768.039                    23307777.195
 123646718.843 7  96348232.97744  23529210.008                    23529219.000
 128245770.062 6  99931795.88943  24404364.625                    24404375.313
 117638344.407 7  91666276.03644  22385836.234                    22385845.547
 107527186.609 8  83787446.93146  20461745.234                    20461753.078
 110593142.886 8  86176504.51946  21045174.313                    21045181.059
 11  8 24 16 43  0.0000000  0 10G10G23G08G07G11G28G06G03G13G19
 129175676.435 6 100656448.92343  24581329.547                    24581341.570
 114498077.832 8  89219294.12945  21788265.758                    21788272.863
 119912255.670 7  93438308.81544  22818572.102                    22818580.719
 111435232.582 8  86832690.138 7  21205415.836                    21205423.512
 122406872.548 7  95382083.28544  23293261.688                    23293272.008
 123595494.597 7  96308317.98844  23519462.023                    23519471.207
 128343342.579 6 100007826.36243  24422931.500                    24422942.340
 117729203.013 7  91737074.91244  22403126.234                    22403135.586
 107578795.986 8  83827661.98046  20471566.086                    20471574.156
 110622889.106 8  86199683.37646  21050834.734                    21050841.313
 11  8 24 16 43 30.0000000  0 10G10G23G08G07G11G28G06G03G13G19
 129224485.259 6 100694481.68843  24590618.188                    24590629.887
 114593215.855 8  89293427.55845  21806369.625                    21806377.461
 119840281.526 7  93382225.09644  22804876.164                    22804884.754
 111386879.310 8  86795012.260 7  21196214.539                    21196222.242
 122330749.931 7  95322767.02544  23278776.258                    23278786.402
 123544481.781 6  96268567.77744  23509754.672                    23509763.465
 128441102.619 6 100084002.92843  24441535.031                    24441545.855
 117820402.031 7  91808139.01744  22420480.852                    22420489.961
 107630952.932 8  83868303.71946  20481491.039                    20481499.238
 110653229.672 8  86223325.35746  21056608.234                    21056614.695
 11  8 24 16 44  0.0000000  0 10G10G23G08G07G11G28G06G03G13G19
 129273510.748 6 100732683.29543  24599947.859                    24599958.691
 114688684.542 8  89367818.65445  21824536.789                    21824544.188
 119768284.243 7  93326123.33944  22791175.258                    22791183.855
 111338668.045 8  86757445.041 7  21187039.867                    21187048.168
 122254735.253 7  95263534.88844  23264311.258                    23264321.164
 123493680.133 7  96228982.11943  23500087.016                    23500096.945
 128539048.062 6 100160323.96243  24460174.070                    24460184.523
 117911938.536 7  91879466.11444  22437899.453                    22437909.129
 107683655.891 8  83909370.92046  20491520.617                    20491528.609
 110684163.345 8  86247429.50246  21062494.742                    21062501.535
 11  8 24 16 44 30.0000000  0 10G10G23G08G07G11G28G06G03G13G19
 129322750.033 6 100771051.48043  24609317.180                    24609328.813
 114784481.198 8  89442465.30445  21842766.570                    21842773.535
 119696264.826 7  93270004.34045  22777469.680                    22777479.156
 111290600.138 8  86719989.528 7  21177893.313                    21177901.277
 122178831.569 7  95204389.22644  23249866.945                    23249877.430
 123443089.095 7  96189560.56844  23490460.328                    23490469.305
 128637176.036 6 100236787.29542  24478846.930                    24478857.113
 118003809.718 7  91951053.98444  22455382.570                    22455391.371
 107736903.370 8  83950862.42146  20501653.344                    20501661.441
 110715688.923 8  86271994.87946  21068493.805                    21068500.379
 11  8 24 16 45  0.0000000  0 10G10G23G08G07G11G28G06G03G13G19
 129372200.541 6 100809584.26143  24618726.883                    24618739.246
 114880602.963 8  89517365.31245  21861058.305                    21861065.191
 119624224.620 7  93213869.15745  22763761.211                    22763770.332
 111242677.553 8  86682647.264 7  21168773.914                    21168782.156
 122103042.286 6  95145332.70344  23235444.352                    23235454.832
 123392708.162 7  96150302.71844  23480873.148                    23480882.465
 128735484.159 6 100313390.94643  24497554.477                    24497564.813
 118096013.016 7  92022900.67444  22472927.938                    22472937.457
 107790694.141 8  83992777.26446  20511889.250                    20511897.492
 110747805.286 8  86297020.60146  21074605.570                    21074611.844
 11  8 24 16 45 30.0000000  0 10G10G23G08G07G11G28G06G03G13G19
 129421859.496 6 100848279.46243  24628176.883                    24628189.711
 114977047.285 8  89592516.65245  21879411.148                    21879418.547
 119552164.627 7  93157718.54544  22750048.672                    22750057.543
 111194902.024 8  86645419.592 7  21159682.430                    21159690.512
 122027370.042 7  95086367.37444  23221045.023                    23221055.453
 123342537.004 7  96111208.29444  23471325.617                    23471335.051
 128833970.140 5 100390133.17842  24516295.469                    24516306.180
 118188545.210 7  92095003.60644  22490536.391                    22490546.824
 107845026.014 8  84035113.75146  20522228.031                    20522236.188
 110780511.335 8  86322505.82146  21080829.352                    21080835.488
 11  8 24 16 46  0.0000000  0 10G10G23G08G07G11G28G06G03G13G19
 129471724.112 6 100887134.90543  24637665.828                    24637678.258
 115073811.464 8  89667917.22645  21897824.516                    21897831.855
 119480085.843 7  93101553.28344  22736332.781                    22736342.043
 111147275.081 8  86608307.691 7  21150619.500                    21150627.578
 121951817.950 7  95027495.68544  23206667.922                    23206677.520
 123292575.289 7  96072277.07644  23461818.555                    23461827.539
 128932631.482 6 100467012.09943  24535070.414                    24535081.160
 118281403.310 7  92167360.49844  22508206.781                    22508216.551
 107899897.666 8  84077870.83746  20532670.094                    20532678.102
 110813805.889 8  86348449.61546  21087165.039                    21087171.621
 11  8 24 16 46 30.0000000  0 10G10G23G08G07G11G28G06G03G13G19
 129521791.865 6 100926148.62343  24647193.336                    24647205.563
 115170892.485 8  89743564.67645  21916298.516                    21916305.793
 119407989.460 7  93045374.30744  22722613.258                    22722622.090
 111099798.251 8  86571312.760 7  21141584.688                    21141592.688
 121876388.784 6  94968719.76444  23192314.180                    23192324.035
 123242822.037 7  96033508.30244  23452350.797                    23452359.789
 129031465.416 6 100544025.42643  24553878.250                    24553889.148
 118374584.547 7  92239969.17844  22525938.531                    22525948.203
 107955307.135 8  84121047.00146  20543214.516                    20543222.676
 110847687.344 8  86374850.74746  21093612.508                    21093619.160
 11  8 24 16 47  0.0000000  0 10G10G23G08G07G11G28G06G03G13G19
 129572059.822 6 100965318.35043  24656759.813                    24656771.531
 115268287.393 7  89819456.71545  21934832.234                    21934839.938
 119335876.509 7  92989182.42944  22708890.219                    22708899.617
 111052473.216 8  86534436.120 7  21132578.938                    21132587.348
 121801085.555 7  94910041.97444  23177984.844                    23177994.254
 123193276.990 7  95994901.81444  23442922.617                    23442932.047
 129130469.500 6 100621171.40743  24572717.594                    24572729.113
 118468086.183 7  92312827.52544  22543731.164                    22543740.797
 108011253.158 8  84164641.26146  20553860.289                    20553868.832
 110882154.174 8  86401707.99646  21100171.398                    21100177.730
 11  8 24 16 47 30.0000000  0 10G10G23G08G07G11G28G06G03G13G19
 129622525.227 6 101004641.98043  24666362.063                    24666374.867
 115365993.573 7  89895591.29445  21953424.680                    21953432.520
 119263748.046 7  92932978.44544  22695164.805                    22695174.020
 111005301.541 8  86497678.976 7  21123602.383                    21123610.836
 121725911.227 7  94851464.60644  23163678.766                    23163688.359
 123143939.136 6  95956456.76644  23433533.633                    23433543.547
 129229641.041 6 100698447.79843  24591590.102                    24591601.125
 118561905.138 7  92385933.14444  22561584.664                    22561594.121
 108067733.432 8  84208651.81046  20564607.664                    20564616.816
 110917204.931 8  86429020.26846  21106841.195                    21106847.754
 11  8 24 16 48  0.0000000  0 10G10G23G08G07G11G28G06G03G13G19
 129673185.380 6 101044117.34843  24676003.266                    24676015.391
 115464008.229 7  89971966.24445  21972076.953                    21972084.082
 119191604.986 7  92876763.10544  22681436.195                    22681445.176
 110958285.153 8  86461042.831 7  21114655.445                    21114663.668
 121650869.298 7  94792990.44644  23149398.773                    23149408.805
 123094808.275 6  95918173.04344  23424183.789                    23424194.043
 129328977.735 6 100775852.94943  24610493.195                    24610503.773
 118656038.645 7  92459283.85544  22579498.016                    22579507.000
 108124746.802 8  84253077.76646  20575457.547                    20575465.957
 110952838.570 8  86456786.72146  21113622.070                    21113629.035
 11  8 24 16 48 30.0000000  0 10G10G23G08G07G11G28G06G03G13G19
 129724037.575 6 101083742.33143  24685680.070                    24685692.094
 115562328.287 7  90048579.17145  21990786.664                    21990794.547
 119119448.207 7  92820537.07744  22667705.797                    22667714.434
 110911425.239 8  86424528.614 7  21105738.547                    21105746.938
 121575961.940 7  94734621.10844  23135145.336                    23135154.176
 123045883.812 7  95880050.14044  23414874.070                    23414884.137
 129428476.815 6 100853384.61743  24629427.117                    24629438.020
 118750483.645 7  92532877.30644  22597470.242                    22597479.543
 108182290.858 8  84297917.25146  20586407.617                    20586416.262
 110989053.270 8  86485005.95446  21120513.359                    21120520.250
 11  8 24 16 49  0.0000000  0 10G10G23G08G07G11G28G06G03G13G19
 129775079.038 6 101123514.79643  24695393.469                    24695404.496
 115660951.387 7  90125428.24845  22009553.992                    22009562.020
 119047279.252 7  92764301.55445  22653971.906                    22653981.344
 110864723.990 8  86388138.038 7  21096851.531                    21096859.602
 121501192.696 7  94676359.41444  23120916.797                    23120925.969
 122997165.054 7  95842087.50644  23405603.445                    23405613.148
 129528136.171 6 100931041.14743  24648391.727                    24648402.855
 118845237.167 7  92606711.17544  22615500.969                    22615510.207
 108240364.064 8  84343169.04946  20597459.086                    20597467.000
 111025848.066 8  86513677.21646  21127515.453                    21127521.699
 11  8 24 16 49 30.0000000  0 10G10G23G08G07G11G28G06G03G13G19
 129826306.783 6 101163432.42543  24705141.813                    24705153.141
 115759874.473 7  90202511.07245  22028378.984                    22028385.996
 118975099.363 7  92708057.50945  22640236.797                    22640246.004
 110818183.021 8  86351872.346 7  21087995.211                    21088002.969
 121426564.624 7  94618207.68944  23106715.164                    23106724.699
 122948651.551 7  95804284.79544  23396371.273                    23396381.191
 129627953.346 6 101008820.72343  24667386.031                    24667396.832
 118940296.471 7  92680783.30144  22633590.289                    22633598.938
 108298964.857 8  84388831.95846  20608610.133                    20608618.629
 111063221.383 8  86542799.26646  21134627.469                    21134633.832
 11  8 24 16 50  0.0000000  0 10G10G23G08G07G11G28G06G03G13G19
 129877718.314 6 101203493.29543  24714925.141                    24714936.641
 115859094.624 7  90279825.37145  22047259.445                    22047266.625
 118902909.700 7  92651805.85045  22626499.375                    22626508.316
 110771804.121 8  86315732.952 7  21079170.211                    21079177.766
 121352080.809 7  94560168.37844  23092541.594                    23092550.359
 122900342.830 7  95766641.68044  23387178.852                    23387188.137
 129727925.482 6 101086721.00943  24686410.313                    24686421.598
 119035658.803 7  92755091.58244  22651736.805                    22651745.836
 108358091.381 8  84434904.53346  20619861.609                    20619869.805
 111101171.599 8  86572370.85046  21141848.898                    21141855.680
 11  8 24 16 50 30.0000000  0 10G10G23G08G07G11G28G06G03G13G19
 129929310.922 6 101243695.23043  24724743.102                    24724754.887
 115958608.901 7  90357368.84845  22066196.703                    22066204.477
 118830711.468 7  92595547.51045  22612760.203                    22612769.758
 110725588.739 8  86279720.969 7  21070374.875                    21070383.063
 121277744.094 7  94502243.71244  23078395.008                    23078405.039
 122852238.173 6  95729157.57843  23378024.305                    23378034.094
 129828050.416 5 101164740.37843  24705463.094                    24705475.504
 119131321.146 7  92829633.59044  22669941.500                    22669950.805
 108417741.991 8  84481385.48746  20631212.898                    20631221.391
 111139697.379 8  86602390.91846  21149180.313                    21149186.707
 11  8 24 16 51  0.0000000  0 10G10G23G08G07G11G28G06G03G13G19
 129981081.743 6 101284036.07743  24734594.789                    24734606.035
 116058414.853 7  90435139.61645  22085189.414                    22085197.281
 118758505.446 7  92539283.11144  22599020.102                    22599029.289
 110679538.678 8  86243837.816 7  21061611.984                    21061619.879
 121203557.343 7  94444435.90744  23064278.398                    23064288.090
 122804336.873 7  95691831.92144  23368909.258                    23368918.246
 129928325.488 5 101242876.70442  24724544.789                    24724556.965
 119227280.184 7  92904406.79244  22688200.867                    22688212.039
 108477913.947 8  84528272.68446  20642663.102                    20642671.469
 111178796.928 8  86632858.09046  21156620.594                    21156627.012
 11  8 24 16 51 30.0000000  0 10G10G23G08G07G11G28G06G03G13G19
 130033027.867 6 101324513.48043  24744479.445                    24744491.348
 116158509.500 7  90513135.34745  22104236.516                    22104244.461
 118686292.887 7  92483013.61445  22585278.172                    22585287.559
 110633655.712 8  86208084.857 7  21052880.953                    21052888.891
 121129524.043 7  94386747.64144  23050190.406                    23050199.648
 122756638.178 6  95654664.15244  23359832.336                    23359841.629
 130028748.193 6 101321128.06643  24743654.906                    24743666.785
 119323533.408 7  92979409.21144  22706518.289                    22706528.371
 108538605.977 8  84575565.12146  20654212.492                    20654220.836
 111218468.591 8  86663771.06946  21164170.172                    21164176.324
 11  8 24 16 52  0.0000000  0 10G10G23G08G07G11G28G06G03G13G19
 130085146.436 6 101365125.24543  24754397.586                    24754409.246
 116258889.606 7  90591353.50245  22123338.453                    22123346.035
 118614074.902 7  92426739.87045  22571535.992                    22571545.098
 110587941.545 8  86172463.431 7  21044181.773                    21044189.605
 121055646.767 7  94329180.97344  23036132.195                    23036141.000
 122709141.593 6  95617653.85044  23350794.016                    23350803.539
 130129315.719 6 101399492.30743  24762792.273                    24762804.082
 119420078.125 7  93054638.77444  22724890.461                    22724900.164
 108599815.609 8  84623260.88746  20665860.266                    20665868.473
 111258710.907 8  86695128.70746  21171827.820                    21171834.203
 11  8 24 16 52 30.0000000  0 11G10G23G08G07G01G11G28G06G03G13G19
 130137434.789 6 101405869.32743  24764347.703                    24764359.871
 116359552.533 7  90669792.05045  22142493.758                    22142501.059
 118541852.895 7  92370463.00145  22557792.219                    22557801.445
 110542397.836 8  86136974.824 7  21035515.234                    21035522.715
 129674713.78416 101045281.29416  24676285.211                    24676300.668
 120981928.521 7  94271738.20744  23022103.930                    23022112.535
 122661846.684 6  95580800.72544  23341794.664                    23341803.215
 130230026.196 6 101477967.97143  24781957.438                    24781968.055
 119516910.872 7  93130092.77444  22743316.469                    22743326.660
 108661541.459 8  84671358.89846  20677606.469                    20677614.609
 111299522.391 8  86726929.84346  21179593.977                    21179600.809
 11  8 24 16 53  0.0000000  0 11G10G23G08G07G01G11G28G06G03G13G19
 130189890.055 6 101446743.43543  24774329.750                    24774342.148
 116460495.456 7  90748448.76745  22161702.563                    22161709.648
 118469628.198 7  92314184.03444  22544048.523                    22544057.461
 110497026.470 8  86101620.517 7  21026881.297                    21026888.984
 129600349.174 6 100987334.961 5  24662133.977                    24662149.121
 120908372.610 7  94214421.95844  23008106.875                    23008115.883
 122614752.544 7  95544104.03244  23332832.469                    23332841.426
 130330876.787 6 101556552.81743  24801147.961                    24801159.246
 119614028.737 7  93205768.96444  22761797.984                    22761807.277
 108723781.392 8  84719857.50146  20689450.250                    20689458.590
 111340901.111 8  86759172.98946  21187468.156                    21187474.410
 11  8 24 16 53 30.0000000  0 11G10G23G08G07G01G11G28G06G03G13G19
 130242509.589 7 101487745.58643  24784342.852                    24784354.570
 116561715.312 7  90827321.27245  22180964.797                    22180972.188
 118397402.268 7  92257904.13244  22530304.453                    22530313.207
 110451828.940 7  86066401.677 7  21018280.164                    21018288.203
 129525868.913 6 100929298.502 6  24647961.367                    24647976.582
 120834981.889 7  94157234.41744  22994140.406                    22994149.453
 122567858.508 7  95507563.27044  23323908.922                    23323918.332
 130431864.977 6 101635244.86643  24820366.828                    24820377.156
 119711429.260 7  93281665.42344  22780332.492                    22780341.711
 108786533.529 8  84768755.22946  20701391.516                    20701400.203
 111382845.554 7  86791856.95446  21195450.055                    21195456.727
 11  8 24 16 54  0.0000000  0 11G10G23G08G07G01G11G28G06G03G13G19
 130295290.576 6 101528873.52943  24794386.820                    24794399.500
 116663209.268 7  90906407.35945  22200278.156                    22200286.277
 118325175.902 7  92201623.86245  22516559.922                    22516568.750
 110406806.985 8  86031319.651 7  21009712.820                    21009720.676
 129451275.515 5 100871173.878 6  24633766.875                    24633782.316
 120761759.216 7  94100177.83644  22980206.664                    22980215.852
 122521164.034 7  95471178.01344  23315022.719                    23315032.254
 130532988.412 6 101714042.31043  24839609.414                    24839620.781
 119809109.551 7  93357779.90644  22798920.305                    22798929.664
 108849795.674 8  84818050.36246  20713430.258                    20713438.605
 111425354.155 8  86824980.53246  21203539.148                    21203545.664
 11  8 24 16 54 30.0000000  0 11G10G23G08G07G01G11G28G06G03G13G19
 130348230.582 6 101570125.37543  24804460.930                    24804472.965
 116764974.682 7  90985704.95545  22219643.414                    22219651.449
 118252950.534 7  92145344.38345  22502816.109                    22502825.145
 110361962.660 7  85996376.037 7  21001179.250                    21001187.363
 129376571.479 5 100812963.092 6  24619550.133                    24619566.922
 120688708.051 7  94043254.92244  22966305.289                    22966315.082
 122474668.845 7  95434948.04144  23306175.172                    23306184.789
 130634244.751 6 101792943.31543  24858877.227                    24858888.840
 119907066.617 7  93434110.03043  22817560.461                    22817570.746
 108913566.267 8  84867741.67446  20725565.430                    20725573.629
 111468425.454 7  86858542.56546  21211735.328                    21211741.828
 11  8 24 16 55  0.0000000  0 10G10G23G08G07G01G11G28G03G13G19
 130401326.467 6 101611498.73943  24814565.328                    24814577.242
 116867008.859 7  91065211.98745  22239060.305                    22239067.797
 118180727.450 7  92089066.67945  22489072.188                    22489081.586
 110317297.641 8  85961572.132 7  20992680.125                    20992687.469
 129301759.532 6 100754668.243 6  24605313.859                    24605330.145
 120615831.404 7  93986467.97444  22952437.586                    22952447.367
 122428371.891 6  95398872.56044  23297364.648                    23297375.359
 120005297.448 6  93510653.45744  22836253.305                    22836263.395
 108977842.920 8  84917827.32646  20737796.766                    20737805.352
 111512057.513 8  86892541.56346  21220038.070                    21220044.383
 11  8 24 16 55 30.0000000  0 10G10G23G08G07G01G11G28G03G13G19
 130454575.955 6 101652991.73043  24824697.836                    24824709.965
 116969308.803 7  91144926.10845  22258527.188                    22258534.973
 118108508.040 7  92032791.83945  22475329.609                    22475338.617
 110272814.325 7  85926909.814 7  20984214.898                    20984222.539
 129226842.257 6 100696291.319 6  24591055.828                    24591073.066
 120543132.480 7  93929819.52044  22938603.477                    22938612.434
 122382272.979 7  95362951.39644  23288592.469                    23288602.352
 120103799.697 6  93587408.34743  22854997.414                    22855007.996
 109042624.039 8  84968306.07246  20750124.070                    20750132.211
 111556249.142 8  86926976.59746  21228447.781                    21228454.242
 11  8 24 16 56  0.0000000  0 10G10G23G08G07G01G11G28G03G13G19
 130507975.757 6 101694601.87943  24834860.148                    24834871.879
 117071871.346 7  91224844.84845  22278044.305                    22278051.859
 118036293.220 7  91976520.57845  22461587.367                    22461596.270
 110228513.732 8  85892389.880 7  20975784.547                    20975792.488
 129151821.840 5 100637834.019 6  24576781.813                    24576797.301
 120470613.773 7  93873311.50344  22924803.234                    22924812.891
 122336370.924 7  95327183.60544  23279858.469                    23279867.094
 120202569.866 6  93664372.04043  22873793.367                    22873803.703
 109107906.856 8  85019175.74746  20762546.992                    20762555.500
 111600997.604 8  86961845.50746  21236962.938                    21236969.699
 11  8 24 16 56 30.0000000  0 11G10G23G08G07G01G11G28G24G03G13G19
 130561523.102 6 101736326.95743  24845049.508                    24845061.805
 117174693.578 7  91304965.95845  22297610.867                    22297619.105
 117964084.462 7  91920254.03945  22447846.492                    22447855.594
 110184397.549 7  85858013.651 7  20967389.664                    20967397.504
 129076701.404 6 100579298.814 6  24562486.789                    24562502.605
 120398278.426 7  93816946.31844  22911038.727                    22911047.641
 122290665.078 7  95291568.68744  23271160.586                    23271169.129
 128103629.54616  99821109.70452  24377322.492                    24377335.301
 120301605.273 6  93741542.40143  22892638.922                    22892649.359
 109173689.740 8  85070435.09046  20775065.336                    20775073.719
 111646301.247 7  86997147.03846  21245583.469                    21245590.285
 11  8 24 16 57  0.0000000  0 11G10G23G08G07G01G11G28G24G03G13G19
 130615215.178 6 101778164.82243  24855267.180                    24855279.699
 117277772.178 7  91385286.84045  22317225.836                    22317234.520
 117891882.944 7  91863993.14545  22434106.883                    22434116.098
 110140467.584 8  85823782.521 7  20959030.102                    20959038.094
 129001482.786 6 100520687.117 6  24548172.445                    24548188.613
 120326129.404 7  93760726.36144  22897308.641                    22897318.813
 122245154.670 7  95256106.07344  23262500.281                    23262509.285
 128032268.965 6  99765504.22842  24363742.859                    24363757.023
 120400902.732 6  93818916.96944  22911535.305                    22911544.758
 109239970.126 8  85122082.10146  20787678.133                    20787686.508
 111692158.448 8  87032879.91346  21254310.656                    21254316.078
 11  8 24 16 57 30.0000000  0 11G10G23G08G07G01G11G28G24G03G13G19
 130669049.350 6 101820113.41743  24865511.047                    24865524.043
 117381104.846 7  91465805.67245  22336889.438                    22336897.625
 117819690.309 7  91807739.17445  22420369.508                    22420378.691
 110096725.676 8  85789697.932 7  20950706.711                    20950714.516
 128926169.063 6 100462001.288 6  24533841.242                    24533856.531
 120254169.748 7  93704653.94544  22883615.242                    22883624.879
 122199839.127 7  95220795.28444  23253876.555                    23253885.512
 127960830.974 6  99709838.47643  24350148.492                    24350162.836
 120500459.320 6  93896493.44944  22930480.508                    22930490.250
 109306745.978 8  85174115.17946  20800385.383                    20800393.227
 111738567.428 8  87069042.74646  21263141.539                    21263147.770
 11  8 24 16 58  0.0000000  0 11G10G23G08G07G01G11G28G24G03G13G19
 130723022.562 6 101862170.33343  24875782.734                    24875794.406
 117484688.583 7  91546520.16945  22356600.797                    22356609.094
 117747507.803 7  91751493.09945  22406633.344                    22406642.137
 110053173.888 8  85755761.485 7  20942418.727                    20942426.902
 128850762.824 6 100403243.387 6  24519491.727                    24519507.445
 120182402.701 7  93648731.60944  22869958.734                    22869967.867
 122154717.763 6  95185635.85144  23245290.055                    23245300.094
 127889318.423 6  99654114.57143  24336540.984                    24336554.590
 120600272.419 7  93974269.84544  22949474.469                    22949483.918
 109374015.278 8  85226532.77046  20813186.141                    20813194.438
 111785526.192 8  87105633.98346  21272077.156                    21272083.984
 11  8 24 16 58 30.0000000  0 11G10G23G08G07G01G11G28G24G03G13G19
 130777132.102 6 101904333.51043  24886078.727                    24886090.668
 117588520.219 7  91627427.81745  22376359.656                    22376368.113
 117675336.753 7  91695255.94945  22392899.555                    22392909.039
 110009813.816 8  85721974.427 7  20934167.398                    20934175.398
 128775266.978 6 100344415.674 6  24505124.516                    24505140.266
 120110831.231 6  93592961.68844  22856338.836                    22856348.445
 122109789.956 7  95150627.21244  23236740.781                    23236750.402
 127817733.811 6  99598334.56243  24322918.320                    24322932.500
 120700339.075 7  94052243.80044  22968516.258                    22968526.527
 109441776.020 8  85279333.30846  20826080.734                    20826088.762
 111833033.073 8  87142652.32046  21281117.680                    21281124.293
 11  8 24 16 59  0.0000000  0 11G10G23G08G07G01G11G28G24G03G13G19
 130831375.521 6 101946600.94842  24896400.742                    24896413.133
 117692597.212 7  91708526.64545  22396165.250                    22396173.012
 117603178.400 7  91639028.69545  22379168.414                    22379177.434
 109966647.526 8  85688338.361 7  20925953.484                    20925961.391
 128699683.627 6 100285519.721 6  24490741.484                    24490757.027
 120039458.421 7  93537346.54144  22842756.672                    22842766.523
 122065054.947 6  95115768.80044  23228227.930                    23228237.059
 127746080.374 6  99542500.87143  24309282.883                    24309296.914
 120800656.391 7  94130413.08043  22987605.578                    22987615.805
 109510025.945 8  85332515.01746  20839067.641                    20839076.195
 111881086.252 8  87180096.33846  21290262.156                    21290268.953
 11  8 24 16 59 30.0000000  0 11G10G23G08G07G01G11G28G24G03G13G19
 130885750.032 6 101988970.61643  24906748.117                    24906760.910
 117796916.456 7  91789814.24745  22416016.758                    22416024.711
 117531034.355 7  91582812.58645  22365439.820                    22365448.984
 109923676.806 8  85654854.700 7  20917776.063                    20917783.969
 128624016.048 6 100226558.175 6  24476342.211                    24476358.402
 119968287.291 7  93481888.56544  22829213.086                    22829222.711
 122020511.858 7  95081059.91444  23219751.578                    23219761.008
 127674360.453 6  99486615.36743  24295635.039                    24295649.121
 120901221.661 6  94208775.52543  23006742.469                    23006753.363
 109578762.803 8  85386076.15646  20852148.445                    20852156.906
 111929683.815 7  87217964.56346  21299509.742                    21299516.359
 11  8 24 17  0  0.0000000  0 11G10G23G08G07G01G11G28G24G03G13G19
 130940252.532 6 102031439.96242  24917120.258                    24917132.805
 117901475.041 7  91871288.34345  22435913.508                    22435921.469
 117458905.723 7  91526608.48345  22351713.586                    22351722.938
 109880903.404 8  85621524.780 7  20909636.672                    20909644.371
 128548266.640 6 100167532.817 6  24461927.883                    24461942.848
 119897320.944 7  93426590.16944  22815709.688                    22815718.480
 121976160.368 7  95046500.34744  23211311.984                    23211321.145
 127602576.608 6  99430680.04843  24281974.914                    24281989.035
 121002032.067 6  94287329.02243  23025925.836                    23025936.441
 109647984.346 8  85440014.96946  20865321.055                    20865329.418
 111978823.763 7  87256255.42246  21308860.734                    21308867.398
 11  8 24 17  0 30.0000000  0 10G23G08G07G01G11G28G24G03G13G19
 118006270.808 7  91952947.26545  22455855.164                    22455863.223
 117386794.942 7  91470418.29245  22337991.789                    22338001.203
 109838329.664 7  85588350.452 7  20901535.156                    20901542.902
 128472438.632 6 100108446.189 6  24447497.773                    24447513.559
 119826563.099 6  93371454.21344  22802244.148                    22802253.379
 121932000.135 7  95012089.83044  23202908.352                    23202917.707
 127530732.337 6  99374697.61543  24268302.984                    24268316.961
 121103085.164 6  94366071.59643  23045156.453                    23045166.215
 109717689.066 8  85494330.29146  20878585.125                    20878593.387
 112028504.814 7  87294967.90546  21318315.063                    21318321.176
 11  8 24 17  1  0.0000000  0 10G23G08G07G01G11G28G24G03G13G19
 118111300.130 7  92034788.16844  22475841.625                    22475849.980
 117314702.703 7  91414242.55545  22324273.273                    22324282.047
 109795957.118 8  85555332.899 7  20893471.945                    20893479.949
 128396534.249 6 100049300.080 6  24433053.492                    24433069.289
 119756016.135 7  93316482.58244  22788819.742                    22788828.809
 121888029.883 7  94977827.34644  23194541.453                    23194550.703
 127458829.789 6  99318669.81143  24254620.477                    24254634.621
 121204377.561 6  94445000.69543  23064431.563                    23064441.570
 109787873.921 8  85549019.74446  20891941.156                    20891949.582
 112078724.480 7  87334100.09646  21327871.281                    21327877.625
 11  8 24 17  1 30.0000000  0 10G23G08G07G01G11G28G24G03G13G19
 118216559.817 7  92116808.57045  22495872.328                    22495880.328
 117242629.994 7  91358082.01345  22310557.977                    22310567.145
 109753786.911 8  85522472.998 7  20885447.547                    20885455.168
 128320554.853 6  99990095.466 6  24418594.758                    24418610.531
 119685682.655 7  93261677.30844  22775435.367                    22775444.598
 121844248.418 7  94943711.97544  23186209.594                    23186219.133
 127386871.472 6  99262598.50043  24240926.766                    24240941.125
 121305906.066 7  94524113.74143  23083752.109                    23083761.801
 109858536.659 8  85604081.57246  20905387.531                    20905396.031
 112129480.210 7  87373650.00246  21337529.672                    21337536.320
 11  8 24 17  2  0.0000000  0 10G23G08G07G01G11G28G24G03G13G19
 118322046.969 7  92199006.23044  22515946.203                    22515954.199
 117170578.311 7  91301937.87045  22296847.102                    22296855.984
 109711821.119 8  85489772.390 7  20877461.555                    20877469.250
 128244504.694 5  99930835.699 6  24404123.344                    24404138.762
 119615565.770 7  93207040.82744  22762092.531                    22762102.230
 121800655.133 6  94909743.21944  23177914.250                    23177923.496
 127314859.917 6  99206485.68742  24227222.352                    24227237.188
 121407667.757 7  94603408.47844  23103116.945                    23103127.539
 109929674.676 8  85659513.73846  20918924.930                    20918933.434
 112180770.095 7  87413616.12446  21347289.859                    21347296.707
 11  8 24 17  2 30.0000000  0 10G23G08G07G01G11G28G24G03G13G19
 118427758.589 7  92281378.79244  22536062.273                    22536071.125
 117098549.405 7  91245811.46945  22283140.508                    22283149.535
 109670061.631 8  85457232.542 7  20869514.625                    20869522.438
 128168385.824 6  99871522.393 6  24389638.273                    24389653.711
 119545668.710 7  93152575.60944  22748791.594                    22748800.879
 121757249.331 6  94875920.57644  23169654.484                    23169663.629
 127242798.095 6  99150333.74442  24213510.391                    24213524.566
 121509659.891 7  94682882.79244  23122525.828                    23122535.668
 110001285.989 8  85715314.70746  20932551.711                    20932560.281
 112232592.360 8  87453997.08746  21357151.648                    21357158.180
 11  8 24 17  3  0.0000000  0 10G23G08G07G01G11G28G24G03G13G19
 118533691.798 7  92363924.02444  22556220.617                    22556229.238
 117026544.779 7  91189703.99745  22269438.656                    22269447.629
 109628510.566 8  85424855.088 7  20861608.008                    20861616.211
 128092200.974 6  99812157.669 6  24375140.555                    24375155.953
 119475994.481 7  93098284.03644  22735532.805                    22735542.180
 121714030.408 7  94842243.52844  23161429.992                    23161439.520
 127170688.947 5  99094144.96342  24199787.531                    24199802.434
 121611879.810 7  94762534.59444  23141977.484                    23141987.895
 110073368.325 8  85771482.71246  20946269.156                    20946277.547
 112284945.238 8  87494791.51946  21367113.633                    21367120.441
 11  8 24 17  3 30.0000000  0 10G23G08G07G01G11G28G24G03G13G19
 118639843.851 7  92446639.78444  22576420.852                    22576429.516
 116954565.957 7  91133616.63645  22255741.258                    22255750.281
 109587169.712 8  85392641.455 7  20853740.953                    20853748.961
 128015953.248 6  99752743.967 6  24360630.953                    24360646.465
 119406546.089 7  93044168.41844  22722317.648                    22722326.746
 121670997.864 7  94808711.71844  23153241.117                    23153250.320
 127098535.227 6  99037921.30842  24186057.938                    24186072.070
 121714324.294 7  94842361.39344  23161472.109                    23161482.000
 110145919.349 8  85828015.92846  20960075.023                    20960083.988
 112337826.346 8  87535997.56346  21377176.898                    21377183.430
 11  8 24 17  4  0.0000000  0 10G23G08G07G01G11G28G24G03G13G19
 118746211.408 7  92529523.45345  22596662.141                    22596670.566
 116882613.790 7  91077550.03245  22242049.586                    22242058.465
 109546040.317 8  85360592.578 7  20845914.375                    20845921.984
 127939644.302 6  99693282.532 7  24346110.008                    24346125.063
 119337326.173 7  92990230.84244  22709145.484                    22709154.332
 121628150.239 7  94775324.00144  23145087.648                    23145096.258
 127026339.099 6  98981664.69143  24172319.156                    24172333.410
 121816990.809 6  94922361.14243  23181008.352                    23181018.902
 110218936.140 8  85884912.08446  20973969.414                    20973978.586
 112391233.164 8  87577613.24746  21387339.500                    21387346.367
 11  8 24 17  4 30.0000000  0 10G23G08G07G01G11G28G24G03G13G19
 118852791.983 7  92612573.13544  22616943.867                    22616951.938
 116810690.183 7  91021505.68445  22228363.031                    22228371.633
 109505125.035 8  85328710.548 7  20838128.570                    20838136.207
 127863277.951 6  99633776.402 7  24331578.063                    24331593.168
 119268338.344 7  92936474.13544  22696017.648                    22696026.855
 121585487.139 7  94742080.04944  23136969.094                    23136977.730
 126954104.058 6  98925377.69043  24158573.656                    24158587.305
 121919876.395 6  95002531.63143  23200587.047                    23200597.574
 110292416.914 8  85942169.77746  20987952.039                    20987961.203
 112445164.322 8  87619637.50746  21397602.492                    21397608.957
 11  8 24 17  5  0.0000000  0 10G23G08G07G01G11G28G24G03G13G19
 118959582.375 7  92695786.29344  22637265.172                    22637274.047
 116738796.558 7  90965484.70745  22214681.875                    22214691.172
 109464425.196 8  85296996.398 7  20830383.633                    20830391.152
 127786856.571 6  99574227.391 6  24317035.375                    24317050.781
 119199585.435 7  92882900.46544  22682934.117                    22682942.996
 121543007.451 7  94708979.03044  23128885.766                    23128894.254
 126881832.586 6  98869062.34943  24144820.867                    24144835.082
 122022978.251 7  95082870.62543  23220207.156                    23220216.328
 110366359.013 8  85999786.94246  21002023.047                    21002031.723
 112499617.432 8  87662068.48246  21407964.516                    21407971.363
 11  8 24 17  5 30.0000000  0 10G23G08G07G01G11G28G24G03G13G19
 119066579.619 7  92779160.63044  22657626.367                    22657635.262
 116666934.668 7  90909488.46445  22201006.961                    22201015.730
 109423943.133 8  85265451.931 7  20822680.133                    20822687.648
 127710383.103 6  99514637.791 6  24302482.609                    24302497.859
 119131070.654 7  92829512.34544  22669896.313                    22669905.258
 121500710.768 7  94676020.60544  23120836.406                    23120845.625
 126809527.751 6  98812720.98043  24131062.203                    24131075.738
 122126293.532 6  95163375.98343  23239867.164                    23239876.781
 110440760.272 8  86057761.90046  21016181.398                    21016190.086
 112554590.602 8  87704904.70946  21418425.805                    21418431.895
 11  8 24 17  6  0.0000000  0 10G23G08G07G01G11G28G24G03G13G19
 119173780.559 7  92862693.67245  22678026.539                    22678035.297
 116595105.466 7  90853517.68445  22187337.977                    22187346.879
 109383680.104 8  85234078.141 7  20815018.070                    20815025.863
 127633860.114 6  99455009.596 6  24287920.766                    24287935.891
 119062796.618 7  92776311.82044  22656904.305                    22656913.301
 121458596.132 6  94643204.07144  23112821.781                    23112830.969
 126737192.182 6  98756355.68843  24117296.758                    24117310.438
 122229819.279 7  95244045.32443  23259567.445                    23259576.992
 110515618.028 8  86116092.56346  21030426.438                    21030435.043
 112610081.210 8  87748144.12746  21428985.297                    21428991.859
 11  8 24 17  6 30.0000000  0 10G23G08G07G01G11G28G24G03G13G19
 119281182.393 7  92946383.27745  22698464.250                    22698472.934
 116523310.756 7  90797573.77745  22173675.898                    22173684.293
 109343638.343 8  85202876.779 7  20807398.617                    20807406.348
 127557289.835 6  99395344.584 6  24273349.227                    24273364.984
 118994766.452 7  92723301.32444  22643958.109                    22643967.547
 121416662.822 7  94610528.80744  23104842.594                    23104851.395
 126664828.665 6  98699968.60544  24103526.414                    24103540.016
 122333553.010 6  95324876.76543  23279308.336                    23279316.691
 110590930.054 8  86174777.20146  21044757.906                    21044766.781
 112666086.964 8  87791784.97746  21439643.039                    21439649.504
 11  8 24 17  7  0.0000000  0 10G23G08G07G01G11G28G24G03G13G19
 119388782.403 7  93030227.27545  22718939.711                    22718949.195
 116451552.402 7  90741658.20645  22160020.672                    22160029.746
 109303819.854 8  85171849.384 7  20799820.789                    20799828.891
 127480675.990 6  99335645.573 6  24258770.367                    24258785.887
 118926983.431 7  92670483.40644  22631059.492                    22631068.965
 121374910.150 7  94577994.30044  23096897.539                    23096906.137
 126592440.292 6  98643562.16644  24089751.320                    24089765.004
 122437491.778 7  95405867.93243  23299087.086                    23299096.230
 110666693.978 8  86233813.97146  21059175.289                    21059183.961
 112722606.450 8  87835826.11446  21450398.383                    21450404.934
 11  8 24 17  7 30.0000000  0 10G23G08G07G01G11G28G24G03G13G19
 119496577.932 7  93114223.62744  22739452.477                    22739461.488
 116379831.964 7  90685772.17445  22146372.656                    22146381.586
 109264226.716 8  85140997.580 7  20792286.531                    20792294.902
 127404021.198 6  99275914.662 6  24244183.633                    24244198.934
 118859450.626 7  92617860.46544  22618208.625                    22618217.691
 121333337.566 6  94545600.09844  23088986.180                    23088994.762
 126520029.751 6  98587138.44543  24075972.117                    24075985.691
 122541632.690 6  95487016.63444  23318904.531                    23318914.156
 110742907.418 8  86293201.01846  21073678.250                    21073687.121
 112779637.447 7  87880265.83046  21461250.742                    21461257.617
 11  8 24 17  8  0.0000000  0 10G23G08G07G01G11G28G24G03G13G19
 119604565.671 7  93198369.76844  22760002.711                    22760011.082
 116308150.945 7  90629916.85445  22132732.422                    22132741.063
 109224860.908 8  85110322.933 7  20784796.211                    20784804.070
 127327327.670 6  99216153.541 6  24229589.461                    24229604.238
 118792170.886 7  92565434.72144  22605405.875                    22605415.070
 121291943.864 7  94513345.31344  23081109.469                    23081118.457
 126447599.778 5  98530699.56543  24062188.094                    24062202.320
 122645973.231 6  95568320.85143  23338759.375                    23338769.371
 110819567.532 8  86352936.11545  21088266.641                    21088275.125
 112837177.285 8  87925102.05346  21472200.133                    21472206.590
 11  8 24 17  8 30.0000000  0 10G23G08G07G01G11G28G24G03G13G19
 119712742.747 7  93282663.46044  22780588.180                    22780596.230
 116236511.070 7  90574093.60045  22119099.805                    22119108.734
 109185724.141 8  85079826.746 7  20777348.266                    20777356.027
 127250599.166 6  99156365.155 6  24214988.172                    24215003.039
 118725147.416 7  92513208.67044  22592650.922                    22592660.445
 121250728.574 7  94481229.54544  23073266.430                    23073275.160
 126375153.568 5  98474248.11343  24048402.211                    24048416.523
 122750510.419 6  95649778.30543  23358651.438                    23358662.941
 110896672.544 8  86413017.89046  21102939.039                    21102947.520
 112895224.177 8  87970333.38446  21483246.367                    21483252.453
 11  8 24 17  9  0.0000000  0 10G23G08G07G01G11G28G24G03G13G19
 119821106.326 7  93367102.47944  22801209.023                    22801217.355
 116164913.877 7  90518303.60245  22105475.219                    22105484.516
 109146818.451 7  85049510.632 7  20769944.813                    20769952.707
 127173838.236 6  99096551.504 6  24200380.875                    24200396.145
 118658383.113 7  92461184.56944  22579946.406                    22579955.426
 121209690.725 7  94449252.03644  23065457.188                    23065465.891
 126302693.98315  98417786.20953  24034613.078                    24034627.301
 122855241.272 6  95731386.66043  23378581.258                    23378592.230
 110974219.141 8  86473443.76146  21117695.602                    21117704.148
 112953775.825 8  88015958.02246  21494388.516                    21494395.074
 11  8 24 17  9 30.0000000  0 10G23G08G07G01G11G28G24G03G13G19
 119929652.863 7  93451684.04744  22821864.758                    22821873.168
 116093360.570 7  90462547.79545  22091859.406                    22091867.754
 109108144.812 8  85019375.326 7  20762585.516                    20762593.211
 127097046.815 6  99036714.086 6  24185767.859                    24185782.938
 118591880.949 7  92409364.71544  22567291.773                    22567300.680
 121168829.343 7  94417412.03244  23057681.586                    23057690.922
 126230223.131 6  98361315.51543  24020823.195                    24020837.035
 122960162.792 6  95813143.54843  23398546.820                    23398558.590
 111052204.764 8  86534211.72246  21132535.734                    21132544.504
 113012829.428 8  88061973.78946  21505626.000                    21505632.801
 11  8 24 17 10  0.0000000  0 10G23G08G07G01G11G28G24G03G13G19
 120038379.973 7  93536406.30444  22842554.813                    22842564.250
 116021853.001 7  90406827.63445  22078251.875                    22078260.570
 109069706.111 8  84989423.091 7  20755271.070                    20755278.797
 127020228.503 6  98976855.721 6  24171150.109                    24171165.848
 118525643.886 7  92357751.44744  22554687.008                    22554696.391
 121128143.711 7  94385709.00644  23049939.242                    23049948.402
 126157744.639 6  98304838.83943  24007031.180                    24007044.449
 123065272.672 6  95895047.24543  23418549.141                    23418560.098
 111130627.504 8  86595320.29746  21147459.414                    21147467.445
 113072383.014 8  88108379.16746  21516958.906                    21516965.383
 11  8 24 17 10 30.0000000  0 10G23G08G07G01G11G28G24G03G13G19
 120147284.509 7  93621266.79044  22863278.773                    22863288.352
 115950392.671 7  90351144.28545  22064653.094                    22064661.785
 109031503.984 7  84959655.205 7  20748001.492                    20748009.152
 126943385.733 6  98916978.303 7  24156526.773                    24156542.852
 118459674.765 7  92306346.97544  22542133.563                    22542143.207
 121087632.698 6  94354142.02644  23042229.492                    23042239.047
 126085261.240 6  98248358.34542  23993237.688                    23993251.293
 123170567.860 6  95977095.33243  23438587.102                    23438597.289
 111209484.220 8  86656767.03645  21162465.234                    21162473.617
 113132434.272 8  88155172.34446  21528385.688                    21528392.313
 11  8 24 17 11  0.0000000  0 10G23G08G07G01G11G28G24G03G13G19
 120256363.505 7  93706263.22344  22884036.297                    22884045.480
 115878981.696 7  90295499.38845  22051064.234                    22051073.336
 108993540.462 8  84930073.241 7  20740777.016                    20740784.625
 126866521.315 6  98857084.054 7  24141900.680                    24141916.215
 118393976.912 7  92255153.88044  22529631.617                    22529640.824
 121047295.814 7  94322710.76244  23034553.922                    23034563.738
 126012775.739 6  98191876.12443  23979444.773                    23979457.305
 123276045.645 6  96059285.77043  23458658.875                    23458668.902
 111288773.078 8  86718550.51146  21177553.328                    21177562.359
 113192980.973 7  88202351.56446  21539907.203                    21539914.230
 11  8 24 17 11 30.0000000  0 10G23G08G07G01G11G28G24G03G13G19
 120365613.889 7  93791393.22844  22904825.898                    22904834.984
 115807621.345 7  90239893.94245  22037484.484                    22037493.840
 108955816.989 8  84900678.331 7  20733598.453                    20733606.531
 126789637.896 6  98797175.012 7  24127269.852                    24127285.184
 118328552.809 7  92204174.07944  22517182.133                    22517191.230
 121007131.851 7  94291414.22244  23026911.227                    23026920.426
 125940290.689 6  98135394.31043  23965650.414                    23965663.781
 123381703.072 6  96141616.15143  23478764.523                    23478774.813
 111368490.548 8  86780667.96546  21192723.109                    21192732.203
 113254020.548 8  88249914.84146  21551523.078                    21551529.461
 11  8 24 17 12  0.0000000  0 10G23G08G07G01G11G28G24G03G13G19
 120475032.762 7  93876654.50744  22925647.750                    22925656.203
 115736313.366 7  90184329.30945  22023915.438                    22023924.219
 108918335.694 7  84871472.137 7  20726466.180                    20726474.254
 126712738.579 6  98737253.591 7  24112636.273                    24112651.680
 118263405.735 7  92153410.16244  22504784.594                    22504794.402
 120967140.140 7  94260251.89844  23019301.133                    23019310.059
 125867809.252 6  98078915.36443  23951858.117                    23951870.887
 123487537.473 6  96224084.42843  23498904.563                    23498915.160
 111448634.462 7  86843117.71346  21207974.117                    21207983.234
 113315550.640 8  88297860.34246  21563231.648                    21563238.816
 11  8 24 17 12 30.0000000  0 10G23G08G07G01G11G28G24G03G13G19
 120584617.056 7  93962044.72244  22946501.195                    22946509.563
 115665059.215 7  90128806.62545  22010355.828                    22010364.941
 108881098.608 7  84842456.222 7  20719380.156                    20719387.813
 126635826.157 6  98677322.000 7  24097999.469                    24098015.773
 118198538.693 7  92102864.45144  22492441.570                    22492450.340
 120927320.127 7  94229223.36344  23011723.531                    23011732.160
 125795334.303 6  98022441.48843  23938066.461                    23938079.332
 123593545.961 7  96306688.36143  23519076.492                    23519087.609
 111529201.891 8  86905897.47046  21223305.719                    21223314.668
 113377568.984 7  88346186.29446  21575033.430                    21575040.512
 11  8 24 17 13  0.0000000  0 10G23G08G07G01G11G28G24G03G13G19
 120694364.372 7  94047561.94444  22967385.477                    22967394.164
 115593861.219 7  90073327.68145  21996807.367                    21996816.555
 108844107.597 7  84813632.065 7  20712341.125                    20712349.016
 126558904.137 6  98617382.906 7  24083362.008                    24083378.039
 118133954.494 7  92052539.14945  22480151.266                    22480160.320
 120887670.474 7  94198327.55644  23004178.586                    23004186.953
 125722868.906 6  97965975.07443  23924276.031                    23924290.055
 123699725.855 6  96389425.83143  23539282.555                    23539293.043
 111610190.810 7  86969005.65446  21238717.344                    21238726.223
 113440073.639 8  88394891.20046  21586927.945                    21586934.328
 11  8 24 17 13 30.0000000  0 10G23G08G07G01G11G28G24G03G13G19
 120804271.010 7  94133203.32044  22988300.102                    22988309.137
 115522720.506 7  90017893.37445  21983269.594                    21983278.582
 108807364.524 8  84785001.095 7  20705348.766                    20705356.668
 126481974.755 7  98557438.063 7  24068723.203                    24068738.688
 118069656.266 7  92002436.67744  22467915.516                    22467924.781
 120848190.665 7  94167564.11244  22996665.445                    22996674.145
 125650415.874 6  97909518.30443  23910488.852                    23910502.480
 123806074.408 6  96472294.76843  23559519.438                    23559530.453
 111691598.260 8  87032439.95946  21254208.992                    21254217.813
 113503061.779 8  88443972.84346  21598914.203                    21598921.020
 11  8 24 17 14  0.0000000  0 10G23G08G07G01G11G28G24G03G13G19
 120914334.185 7  94218966.64444  23009244.633                    23009253.391
 115451639.090 7  89962505.27745  21969743.352                    21969752.418
 108770871.528 8  84756564.997 7  20698404.492                    20698412.543
 126405041.158 7  98497489.909 7  24054083.102                    24054097.992
 118005646.917 7  91952559.29844  22455734.789                    22455743.895
 120808879.783 7  94136932.28744  22989185.227                    22989193.590
 125577978.146 6  97853073.44843  23896704.078                    23896718.035
 123912589.028 6  96555293.07843  23579788.609                    23579799.492
 111773421.675 8  87096198.39645  21269779.422                    21269788.004
 113566531.085 8  88493429.41446  21610991.781                    21610998.523
 11  8 24 17 14 30.0000000  0 10G23G08G07G01G11G28G24G03G13G19
 121024551.333 7  94304849.96244  23030218.164                    23030227.203
 115380618.579 7  89907164.63245  21956228.563                    21956237.457
 108734630.748 8  84728325.430 7  20691507.938                    20691516.031
 126328106.296 7  98437540.759 6  24039443.305                    24039457.938
 117941929.760 7  91902909.60344  22443610.313                    22443618.754
 120769736.839 7  94106431.32844  22981736.047                    22981744.641
 125505559.007 6  97796643.11843  23882923.375                    23882937.230
 124019267.109 6  96638418.74243  23600089.859                    23600099.941
 111855658.640 8  87160279.09145  21285428.359                    21285437.473
 113630479.607 8  88543259.40846  21623161.070                    21623167.863
 11  8 24 17 15  0.0000000  0 10G23G08G07G01G11G28G24G03G13G19
 121134919.380 7  94390850.85044  23051220.398                    23051229.977
 115309660.450 7  89851872.60045  21942726.125                    21942734.762
 108698643.444 8  84700283.365 7  20684659.875                    20684668.000
 126251172.052 7  98377592.112 6  24024802.844                    24024817.316
 117878507.134 7  91853489.41945  22431540.633                    22431549.914
 120730760.788 7  94076060.42844  22974319.227                    22974328.438
 125433160.775 6  97740229.02843  23869147.148                    23869159.453
 124126105.313 6  96721669.16743  23620420.008                    23620430.406
 111938305.961 7  87224679.53145  21301155.563                    21301164.520
 113694904.067 8  88593460.26646  21635420.555                    21635426.879
 11  8 24 17 15 30.0000000  0 10G23G08G07G01G11G28G24G03G13G19
 121245435.108 7  94476966.81444  23072251.711                    23072260.676
 115238767.007 7  89796630.96645  21929235.484                    21929244.168
 108662911.875 8  84672440.587 7  20677860.633                    20677868.105
 126174242.469 7  98317647.069 6  24010164.234                    24010177.766
 117815382.335 7  91804301.30144  22419528.195                    22419537.551
 120691951.227 7  94045819.23744  22966933.828                    22966942.766
 125360786.576 6  97683833.67843  23855374.148                    23855387.125
 124233101.002 6  96805042.33043  23640780.406                    23640791.359
 112021361.335 8  87289397.94445  21316960.836                    21316969.625
 113759802.488 7  88644030.45146  21647770.086                    21647777.371
 11  8 24 17 16  0.0000000  0 10G23G08G07G01G11G28G24G03G13G19
 121356095.852 7  94563195.77244  23093309.797                    23093318.590
 115167939.667 7  89741440.83345  21915757.195                    21915765.879
 108627438.082 8  84644798.667 7  20671110.172                    20671118.063
 126097319.908 7  98257707.490 6  23995525.211                    23995539.836
 117752558.158 7  91755347.44544  22407574.094                    22407582.848
 120653307.326 7  94015707.14044  22959580.391                    22959589.039
 125288439.269 6  97627459.30243  23841606.070                    23841619.945
 124340251.497 6  96888536.11143  23661170.789                    23661181.426
 112104821.916 8  87354432.09545  21332842.836                    21332851.660
 113825172.385 7  88694968.01646  21660209.789                    21660216.910
 11  8 24 17 16 30.0000000  0 10G23G08G07G01G11G28G24G03G13G19
 121466898.509 7  94649535.31444  23114395.180                    23114403.941
 115097180.284 7  89686303.67345  21902292.320                    21902300.957
 108592223.835 8  84617359.001 7  20664409.055                    20664416.820
 126020407.195 6  98197775.555 6  23980889.516                    23980902.816
 117690037.680 7  91706630.23445  22395676.695                    22395685.563
 120614827.827 7  93985723.14944  22952257.625                    22952266.656
 125216121.810 6  97571108.15943  23827844.578                    23827858.105
 124447554.502 6  96972148.76443  23681590.031                    23681600.535
 112188685.049 8  87419779.93045  21348801.352                    21348810.215
 113891011.446 7  88746271.15045  21672738.227                    21672745.305
 11  8 24 17 17  0.0000000  0 10G23G08G07G01G11G28G24G03G13G19
 121577840.032 7  94735983.04244  23135506.313                    23135515.793
 115026490.529 7  89631220.76245  21888840.383                    21888849.355
 108557270.906 8  84590122.956 8  20657757.648                    20657765.875
 125943507.311 6  98137853.644 6  23966255.422                    23966270.637
 117627823.648 7  91658151.80845  22383837.172                    22383846.500
 120576511.833 7  93955866.57444  22944966.328                    22944975.375
 125143837.071 7  97514782.45343  23814090.203                    23814102.910
 124555006.982 6  97055877.89443  23702037.773                    23702047.484
 112272948.065 8  87485439.35145  21364836.430                    21364845.168
 113957316.720 8  88797937.56546  21685356.117                    21685362.586
 11  8 24 17 17 30.0000000  0 10G23G08G07G01G11G28G24G03G13G19
 121688917.705 7  94822536.86944  23156643.773                    23156653.508
 114955872.378 8  89576193.64945  21875402.164                    21875410.473
 108522581.718 8  84563092.426 7  20651156.617                    20651164.586
 125866623.205 6  98077944.049 6  23951625.102                    23951639.910
 117565919.280 7  91609914.66945  22372057.398                    22372066.250
 120538358.492 7  93926136.73844  22937705.969                    22937715.305
 125071588.450 7  97458484.91643  23800341.078                    23800354.004
 124662606.414 6  97139721.53143  23722512.859                    23722523.621
 112357607.956 8  87551408.03046  21380946.672                    21380955.441
 114024086.382 8  88849965.84946  21698061.602                    21698068.254
 11  8 24 17 18  0.0000000  0 10G23G08G07G01G11G28G24G03G13G19
 121800128.360 7  94909194.31944  23177806.641                    23177815.730
 114885327.461 7  89521223.60945  21861978.023                    21861986.500
 108488157.788 8  84536268.592 7  20644605.867                    20644613.793
 125789757.722 6  98018048.959 6  23936997.891                    23937012.508
 117504327.324 7  91561920.98544  22360336.828                    22360345.230
 120500366.830 7  93896532.88344  22930476.547                    22930485.898
 124999378.529 6  97402217.50143  23786600.508                    23786613.082
 124770349.799 6  97223677.33543  23743015.938                    23743026.418
 112442662.013 8  87617683.84645  21397131.930                    21397140.926
 114091317.313 8  88902353.55646  21710855.281                    21710862.379
 11  8 24 17 18 30.0000000  0 10G23G08G07G01G11G28G24G03G13G19
 121911468.879 7  94995952.94644  23198994.070                    23199003.133
 114814857.369 8  89466311.86845  21848568.117                    21848577.020
 108454001.298 8  84509653.148 8  20638106.180                    20638114.121
 125712913.525 6  97958170.464 6  23922374.680                    23922389.707
 117443050.455 7  91514172.81044  22348675.445                    22348684.922
 120462536.308 7  93867054.58644  22923277.625                    22923286.313
 124927210.371 6  97345982.63743  23772867.305                    23772879.574
 124878234.838 6  97307743.48943  23763546.867                    23763557.199
 112528107.662 8  87684264.80545  21413391.367                    21413400.512
 114159007.156 8  88955098.87646  21723736.281                    21723743.422
 11  8 24 17 19  0.0000000  0 10G23G08G07G01G11G28G24G03G13G19
 122022936.691 7  95082810.77044  23220206.203                    23220215.457
 114744464.335 8  89411460.17145  21835172.750                    21835181.461
 108420114.033 8  84483247.488 7  20631657.281                    20631665.531
 125636093.951 6  97898311.151 6  23907756.453                    23907771.285
 117382091.858 7  91466672.65944  22337076.047                    22337085.281
 120424865.751 7  93837700.94545  22916109.398                    22916118.234
 124855086.912 6  97289782.65343  23759142.211                    23759155.512
 124986258.625 6  97391917.79843  23784102.570                    23784112.906
 112613942.123 8  87751148.73745  21429725.273                    21429734.309
 114227153.652 8  89008200.00646  21736704.258                    21736711.172
 11  8 24 17 19 30.0000000  0 10G23G08G07G01G11G28G24G03G13G19
 122134528.255 7  95169765.03944  23241441.406                    23241450.980
 114674149.582 8  89356669.47545  21821792.141                    21821801.035
 108386496.877 8  84457052.310 7  20625260.305                    20625268.344
 125559301.665 6  97838473.086 6  23893143.023                    23893157.902
 117321454.010 7  91419422.42945  22325537.047                    22325545.691
 120387353.933 7  93808470.98845  22908971.258                    22908979.590
 124783010.715 6  97233619.47043  23745425.898                    23745439.414
 125094418.096 6  97476197.79943  23804683.891                    23804695.488
 112700162.401 8  87818333.29945  21446132.539                    21446141.766
 114295753.787 8  89061654.63946  21749758.477                    21749764.934
 11  8 24 17 20  0.0000000  0 10G23G08G07G01G11G28G24G03G13G19
 122246241.297 7  95256813.95044  23262699.867                    23262709.230
 114603915.614 7  89301941.72445  21808426.922                    21808435.879
 108353153.292 8  84431070.289 7  20618915.313                    20618923.348
 125482539.987 6  97778658.851 7  23878536.656                    23878550.906
 117261140.194 7  91372424.67944  22314059.688                    22314068.516
 120350000.373 7  93779364.35645  22901862.695                    22901871.434
 124710985.527 6  97177496.03943  23731720.453                    23731733.930
 125202711.226 6  97560582.00543  23825292.625                    23825302.883
 112786766.181 8  87885816.69745  21462612.633                    21462621.629
 114364805.411 8  89115461.07145  21762898.727                    21762905.391
 11  8 24 17 20 30.0000000  0 10G23G08G07G01G11G28G24G03G13G19
 122358073.074 7  95343955.37344  23283980.906                    23283990.457
 114533764.422 7  89247278.47745  21795077.695                    21795086.277
 108320085.416 8  84405303.116 7  20612622.953                    20612630.871
 125405811.717 6  97718870.675 6  23863934.938                    23863949.750
 117201153.538 7  91325681.87244  22302644.430                    22302653.285
 120312804.454 7  93750380.56045  22894784.375                    22894793.484
 124639014.350 7  97121414.64743  23718024.352                    23718037.375
 125311135.021 6  97645067.98443  23845924.258                    23845935.605
 112873750.333 7  87953596.47445  21479165.570                    21479174.574
 114434306.228 8  89169617.52245  21776123.953                    21776130.738
 11  8 24 17 21  0.0000000  0 10G23G08G07G01G11G28G24G03G13G19
 122470020.490 7  95431186.88744  23305284.336                    23305293.984
 114463697.635 8  89192680.99145  21781744.367                    21781752.836
 108287294.615 8  84379751.843 7  20606383.086                    20606390.777
 125329120.078 6  97659111.011 7  23849340.844                    23849355.961
 117141496.800 7  91279196.14744  22291291.938                    22291301.148
 120275764.842 7  93721518.58244  22887736.031                    22887745.324
 124567099.954 7  97065377.51344  23704340.508                    23704352.609
 125419686.940 6  97729653.81643  23866581.938                    23866591.613
 112961112.141 7  88021670.53245  21495790.188                    21495799.227
 114504253.616 8  89224121.95845  21789434.633                    21789441.035
 11  8 24 17 21 30.0000000  0 10G23G08G07G01G11G28G24G03G13G19
 122582080.427 7  95518506.09644  23326608.656                    23326618.176
 114393717.086 8  89138150.72045  21768427.555                    21768436.254
 108254782.922 8  84354418.057 8  20600196.406                    20600204.211
 125252467.906 6  97599382.106 7  23834755.141                    23834769.566
 117082172.685 7  91232969.61544  22280003.031                    22280011.965
 120238881.048 7  93692778.02044  22880717.070                    22880726.008
 124495245.294 7  97009386.97244  23690666.633                    23690679.254
 125528364.485 6  97814337.49743  23887262.250                    23887273.305
 113048849.050 8  88090036.88445  21512485.586                    21512494.840
 114574644.683 8  89278972.11945  21802829.641                    21802836.383
 11  8 24 17 22  0.0000000  0 10G23G08G07G01G11G28G24G03G13G19
 122694250.113 7  95605910.81344  23347954.195                    23347963.953
 114323824.590 8  89083689.04845  21755127.414                    21755135.926
 108222552.313 8  84329303.298 8  20594063.125                    20594071.316
 125175857.802 6  97539685.976 7  23820177.227                    23820190.648
 117023184.258 7  91187004.63244  22268777.664                    22268786.949
 120202151.900 7  93664157.95844  22873727.695                    22873736.949
 124423453.286 7  96953445.23443  23677004.273                    23677017.688
 125637165.093 6  97899117.08443  23907966.180                    23907976.836
 113136958.080 7  88158693.19845  21529252.203                    21529261.336
 114645476.832 8  89334165.98145  21816308.594                    21816315.711
 11  8 24 17 22 30.0000000  0 10G23G08G07G01G11G28G24G03G13G19
 122806526.524 7  95693398.68444  23369319.523                    23369329.352
 114254022.005 7  89029297.44945  21741844.156                    21741853.344
 108190604.468 8  84304408.869 7  20587983.602                    20587991.129
 125099292.980 7  97480025.122 7  23805606.914                    23805621.355
 116964534.269 7  91141303.40245  22257617.195                    22257626.105
 120165576.490 7  93635657.69344  22866767.680                    22866776.895
 124351727.035 7  96897554.71343  23663355.234                    23663368.258
 125746085.765 6  97983990.28443  23928693.336                    23928704.141
 113225436.226 7  88227637.13145  21546089.250                    21546098.535
 114716747.365 8  89389701.43945  21829871.039                    21829878.012
 11  8 24 17 23  0.0000000  0 10G23G08G07G01G11G28G24G03G13G19
 122918906.477 7  95780967.21544  23390704.547                    23390714.355
 114184311.525 8  88974977.62145  21728578.664                    21728587.363
 108158941.419 8  84279736.363 7  20581958.203                    20581966.016
 125022776.237 7  97420401.773 7  23791045.805                    23791059.930
 116906225.407 7  91095867.97745  22246521.305                    22246530.117
 120129153.755 7  93607276.38745  22859836.828                    22859846.012
 124280069.537 7  96841717.77043  23649719.586                    23649731.797
 125855124.113 6  98068955.11943  23949442.797                    23949454.047
 113314280.697 8  88296866.51345  21562996.281                    21563005.281
 114788454.170 8  89445576.85145  21843516.547                    21843523.125
 11  8 24 17 23 30.0000000  0 10G23G08G07G01G11G28G24G03G13G19
 123031387.077 6  95868614.20443  23412109.078                    23412119.324
 114114694.804 8  88920730.84845  21715331.125                    21715340.027
 108127564.811 8  84255287.055 8  20575987.453                    20575995.445
 124946310.416 7  97360818.068 6  23776494.664                    23776509.398
 116848260.599 7  91050700.63245  22235490.992                    22235499.648
 120092882.752 7  93579013.32445  22852934.727                    22852943.500
 124208483.718 7  96785936.66243  23636097.461                    23636109.543
 125964277.301 6  98154009.52943  23970214.055                    23970224.715
 113403488.681 8  88366379.14845  21579971.781                    21579981.184
 114860594.388 8  89501789.98446  21857244.172                    21857251.090
 11  8 24 17 24  0.0000000  0 10G23G08G07G01G11G28G24G03G13G19
 123143965.762 7  95956337.62443  23433532.414                    23433542.387
 114045173.875 8  88866558.72845  21702101.477                    21702110.523
 108096477.158 8  84231062.916 7  20570071.813                    20570079.734
 124869898.991 7  97301276.766 7  23761954.539                    23761968.625
 116790642.750 7  91005803.64945  22224526.391                    22224535.984
 120056762.804 7  93550867.95544  22846061.117                    22846070.039
 124136972.840 7  96730213.95343  23622489.516                    23622501.563
 126073542.805 6  98239151.35642  23991005.750                    23991017.293
 113493057.455 8  88436172.91845  21597016.109                    21597025.754
 114933165.492 8  89558338.85746  21871053.922                    21871061.199
 11  8 24 17 24 30.0000000  0 10G23G08G07G01G11G28G24G03G13G19
 123256639.393 7  96044135.00944  23454973.977                    23454983.734
 113975750.698 7  88812462.77145  21688890.922                    21688899.582
 108065679.989 8  84207065.115 7  20564211.117                    20564218.730
 124793544.485 7  97241779.819 7  23747424.508                    23747438.707
 116733374.440 7  90961179.04645  22213628.602                    22213637.504
 120020792.836 7  93522839.46744  22839216.055                    22839225.328
 124065539.515 6  96674551.71143  23608896.047                    23608908.305
 126182917.935 6  98324378.68942  24011819.961                    24011830.789
 113582983.805 7  88506245.32845  21614128.273                    21614138.070
 115006164.565 8  89615221.20945  21884944.906                    21884952.363
 11  8 24 17 25  0.0000000  0 10G23G08G07G01G11G28G24G03G13G19
 123369404.858 7  96132003.98144  23476432.398                    23476442.930
 113906426.932 7  88758444.28845  21675698.695                    21675707.672
 108035175.230 8  84183295.178 7  20558406.133                    20558413.629
 124717250.177 7  97182329.764 6  23732905.984                    23732920.188
 116676458.564 7  90916829.06045  22202798.219                    22202806.523
 119984971.806 7  93494927.01644  22832399.672                    22832408.359
 123994186.898 7  96618952.36143  23595318.133                    23595330.578
 126292400.349 6  98409689.50642  24032653.188                    24032664.578
 113673265.200 7  88576594.38845  21631308.516                    21631318.063
 115079588.756 8  89672434.83945  21898917.656                    21898924.043
 11  8 24 17 25 30.0000000  0 10G23G08G07G01G11G28G24G03G13G19
 123482259.739 7  96219942.59344  23497909.016                    23497918.668
 113837204.909 8  88704505.05945  21662526.484                    21662535.359
 108004965.558 8  84159755.176 8  20552657.508                    20552665.363
 124641019.161 6  97122929.057 6  23718399.695                    23718413.555
 116619898.054 7  90872755.97345  22192035.086                    22192043.617
 119949298.980 7  93467130.05144  22825611.289                    22825619.855
 123922918.474 6  96563418.62443  23581754.875                    23581768.188
 126401987.614 6  98495082.09643  24053507.469                    24053518.836
 113763898.578 7  88647217.71545  21648555.430                    21648565.148
 115153435.927 8  89729978.07845  21912970.117                    21912976.941
 11  8 24 17 26  0.0000000  0 10G23G08G07G01G11G28G24G03G13G19
 123595200.751 7  96307948.33044  23519400.594                    23519410.758
 113768086.342 8  88650646.45045  21649374.000                    21649382.395
 107975052.123 8  84136446.018 7  20546965.070                    20546972.652
 124564854.026 6  97063579.643 6  23703905.516                    23703919.820
 116563695.730 7  90828962.00245  22181340.109                    22181348.551
 119913773.186 7  93439447.63244  22818851.242                    22818859.707
 123851736.767 6  96507952.47143  23568209.695                    23568222.660
 126511676.546 6  98580553.98542  24074380.484                    24074391.680
 113854880.899 7  88718112.94245  21665869.031                    21665878.340
 115227703.055 8  89787848.54045  21927103.047                    21927109.730
 11  8 24 17 26 30.0000000  0 10G23G08G07G01G11G28G24G03G13G19
 123708224.906 7  96396018.83344  23540908.656                    23540918.695
 113699073.271 8  88596870.04745  21636241.313                    21636249.641
 107945436.713 8  84113369.075 7  20541329.680                    20541336.977
 124488757.642 6  97004283.847 6  23689424.867                    23689438.711
 116507854.349 7  90785449.28245  22170713.656                    22170722.531
 119878393.517 7  93411879.09144  22812118.516                    22812126.695
 123780644.869 6  96452556.27843  23554681.984                    23554694.266
 126621464.593 6  98666103.03443  24095272.469                    24095283.457
 113946209.096 7  88789277.67545  21683248.586                    21683257.637
 115302387.405 8  89846044.12145  21941314.492                    21941321.465
 11  8 24 17 27  0.0000000  0 10G23G08G07G01G11G28G24G03G13G19
 123821329.490 6  96484152.03044  23562431.758                    23562442.781
 113630167.831 8  88543177.50845  21623128.617                    21623137.141
 107916121.507 8  84090526.062 7  20535751.109                    20535758.563
 124412733.486 6  96945044.312 6  23674958.234                    23674972.629
 116452376.385 7  90742219.75045  22160156.250                    22160165.242
 119843159.108 7  93384423.74444  22805413.555                    22805422.488
 123709646.068 7  96397232.62643  23541170.359                    23541183.160
 126731349.245 6  98751727.37642  24116182.867                    24116193.473
 114037880.480 7  88860709.83845  21700693.133                    21700702.219
 115377486.621 7  89904562.96845  21955605.742                    21955612.539
 11  8 24 17 27 30.0000000  0 10G23G08G07G01G11G28G24G03G13G19
 123934511.822 6  96572345.76643  23583970.109                    23583980.871
 113561372.333 8  88489570.64345  21610037.289                    21610046.141
 107887108.824 8  84067918.778 8  20530229.844                    20530237.934
 124336784.447 7  96885863.293 6  23660505.453                    23660519.355
 116397264.985 7  90699275.83245  22149669.734                    22149677.473
 119808069.165 7  93357080.95744  22798736.008                    22798744.695
 123638743.413 6  96341983.88144  23527678.305                    23527691.031
 126841328.270 6  98837425.31843  24137111.750                    24137122.328
 114129892.485 7  88932407.43345  21718202.688                    21718211.523
 115452998.132 8  89963403.09045  21969974.797                    21969981.473
 11  8 24 17 28  0.0000000  0 10G23G08G07G01G11G28G24G03G13G19
 124047769.061 6  96660597.86043  23605522.617                    23605532.973
 113492688.445 8  88436050.73845  21596966.953                    21596975.508
 107858400.528 8  84045548.685 8  20524767.117                    20524774.453
 124260913.952 6  96826743.492 6  23646067.273                    23646081.828
 116342523.169 7  90656619.91745  22139252.023                    22139260.754
 119773123.035 7  93329850.23744  22792086.102                    22792094.828
 123567940.198 7  96286812.61344  23514204.648                    23514217.227
 126951399.343 6  98923194.88943  24158056.617                    24158068.633
 114222242.549 7  89004368.43145  21735775.922                    21735785.262
 115528919.277 7  90022562.40245  21984422.172                    21984429.023
 11  8 24 17 28 30.0000000  0  9G23G08G07G01G11G28G24G13G19
 124161098.760 7  96748906.45044  23627087.969                    23627099.141
 113424118.953 8  88382619.98445  21583918.820                    21583927.664
 107829999.488 8  84023418.010 7  20519362.391                    20519370.246
 124185125.092 6  96767687.314 6  23631645.438                    23631660.043
 116288153.890 7  90614254.28445  22128905.891                    22128914.813
 119738320.170 7  93302731.15044  22785463.188                    22785471.496
 123497239.905 7  96231721.57344  23500751.625                    23500763.754
 114314927.857 7  89076590.66745  21753413.336                    21753423.090
 115605248.068 7  90082039.35045  21998946.977                    21998954.457
 11  8 24 17 29  0.0000000  0  9G23G08G07G01G11G28G24G13G19
 124274497.112 7  96837268.51844  23648667.508                    23648678.035
 113355665.132 8  88329279.35945  21570892.914                    21570901.164
 107801905.978 8  84001526.959 7  20514016.539                    20514024.074
 124109419.990 6  96708696.385 7  23617239.125                    23617253.883
 116234159.089 7  90572180.44945  22118630.797                    22118639.668
 119703658.443 7  93275722.06045  22778867.258                    22778875.695
 123426644.455 6  96176712.22044  23487317.359                    23487330.285
 114407944.335 7  89149070.95145  21771113.891                    21771123.484
 115681980.298 7  90141830.66445  22013548.766                    22013556.148
 11  8 24 17 29 30.0000000  0  9G23G08G07G01G11G28G24G13G19
 124387961.035 7  96925681.67943  23670259.289                    23670269.973
 113287328.641 8  88276030.15645  21557888.469                    21557896.973
 107774121.970 8  83979877.084 7  20508729.414                    20508736.844
 124033801.623 6  96649773.069 7  23602848.734                    23602863.719
 116180541.330 7  90530400.40245  22108427.844                    22108437.086
 119669137.327 7  93248822.53444  22772297.922                    22772306.441
 123356156.981 6  96121787.01244  23473904.172                    23473916.938
 114501289.031 7  89221806.98045  21788876.945                    21788886.023
 115759113.365 7  90201934.30745  22028227.148                    22028234.004
 11  8 24 17 30  0.0000000  0  9G23G08G07G01G11G28G24G13G19
 124501488.045 7  97014144.04043  23691863.008                    23691873.590
 113219111.666 8  88222874.08346  21544907.180                    21544915.684
 107746649.876 8  83958470.262 7  20503501.414                    20503509.379
 123958273.818 6  96590920.325 7  23588476.789                    23588491.266
 116127303.690 7  90488916.55745  22098296.969                    22098306.133
 119634755.734 7  93222031.71544  22765755.352                    22765763.988
 123285780.949 7  96066948.63644  23460511.891                    23460524.652
 114594959.395 7  89294796.78845  21806701.742                    21806711.402
 115836645.079 7  90262348.60745  22042981.172                    22042988.008
 11  8 24 17 30 30.0000000  0  9G23G08G07G01G11G28G24G13G19
 124615075.123 7  97102653.21744  23713477.750                    23713488.988
 113151016.192 8  88169812.69546  21531949.180                    21531957.754
 107719491.202 8  83937307.659 8  20498333.594                    20498341.145
 123882838.891 7  96532139.959 7  23574121.945                    23574136.352
 116074448.677 7  90447730.88045  22088239.242                    22088247.770
 119600512.618 7  93195348.80744  22759239.414                    22759248.012
 123215519.156 7  96012199.26544  23447141.172                    23447153.227
 114688952.222 7  89368037.85545  21824588.031                    21824597.602
 115914572.318 7  90323071.10645  22057809.984                    22057816.523
 11  8 24 17 31  0.0000000  0  9G23G08G07G01G11G28G24G13G19
 124728719.704 7  97191207.15643  23735104.070                    23735114.867
 113083045.210 8  88116848.30746  21519014.602                    21519023.398
 107692648.834 8  83916391.521 7  20493225.781                    20493233.297
 123807500.257 7  96473434.611 7  23559785.141                    23559800.266
 116021979.312 7  90406845.68645  22078254.531                    22078263.520
 119566407.497 7  93168773.42044  22752748.805                    22752757.465
 123145374.944 7  95957541.52543  23433793.461                    23433805.859
 114783265.014 7  89441528.24845  21842535.336                    21842545.016
 115992892.931 8  90384100.13745  22072713.617                    22072720.402
 11  8 24 17 31 30.0000000  0  9G23G08G07G01G11G28G24G13G19
 124842418.791 7  97279803.59443  23756740.453                    23756751.180
 113015199.938 8  88063981.87645  21506103.992                    21506112.453
 107666123.679 8  83895722.566 8  20488177.852                    20488185.914
 123732261.229 7  96414806.863 7  23545468.141                    23545482.641
 115969898.144 7  90366262.99145  22068343.586                    22068352.801
 119532438.846 7  93142304.38645  22746285.094                    22746293.832
 123075350.930 6  95902977.43543  23420467.930                    23420480.332
 114877894.444 7  89515265.37145  21860542.969                    21860552.375
 116071603.625 7  90445433.12445  22087692.180                    22087698.582
 11  8 24 17 32  0.0000000  0  9G23G08G07G01G11G28G24G13G19
 124956169.257 6  97368440.04543  23778386.672                    23778397.508
 112947482.683 8  88011215.20446  21493218.063                    21493226.773
 107639917.921 8  83875302.501 7  20483191.422                    20483199.203
 123657124.046 7  96356258.459 7  23531169.773                    23531184.293
 115918207.763 7  90325984.80845  22058507.414                    22058516.031
 119498606.117 7  93115941.26745  22739847.383                    22739855.582
 123005450.327 6  95848509.50243  23407166.875                    23407178.039
 114972837.547 7  89589246.91545  21878610.039                    21878619.316
 116150701.820 7  90507068.03945  22102743.633                    22102750.285
 11  8 24 17 32 30.0000000  0 10G17G23G08G07G01G11G28G24G13G19
 129476145.66616 100890573.30816  24638497.727                    24638512.316
 125069968.665 6  97457114.58443  23800041.922                    23800052.734
 112879895.668 8  87958550.01545  21480356.758                    21480365.121
 107614033.713 8  83855132.975 8  20478265.719                    20478273.406
 123582091.960 7  96297791.958 7  23516891.492                    23516906.711
 115866911.160 7  90286013.46545  22048745.578                    22048754.762
 119464908.394 7  93089683.34245  22733434.398                    22733443.137
 122935676.282 7  95794140.16044  23393888.617                    23393900.512
 115068091.355 7  89663470.57045  21896736.297                    21896745.742
 116230184.804 7  90569002.79445  22117869.164                    22117875.719
 11  8 24 17 33  0.0000000  0 10G17G23G08G07G01G11G28G24G13G19
 129371709.507 6 100809194.668 6  24618623.742                    24618639.109
 125183814.425 6  97545825.25643  23821706.273                    23821717.582
 112812441.018 8  87905987.98145  21467520.148                    21467528.906
 107588473.371 8  83835215.823 7  20473401.328                    20473409.527
 123507169.062 7  96239410.539 7  23502634.109                    23502648.992
 115816010.845 7  90246350.91945  22039059.867                    22039069.117
 119431344.580 7  93063529.77245  22727047.688                    22727055.969
 122866032.352 7  95739872.22943  23380635.594                    23380647.883
 115163653.296 7  89737934.31445  21914920.883                    21914930.250
 116310050.261 7  90631235.58745  22133066.602                    22133073.219
 11  8 24 17 33 30.0000000  0 10G17G23G08G07G01G11G28G24G13G19
 129267375.750 6 100727895.819 6  24598770.422                    24598784.758
 125297703.673 6  97634569.82243  23843379.094                    23843390.664
 112745121.350 8  87853531.11046  21454709.688                    21454718.570
 107563239.162 8  83815552.794 8  20468599.719                    20468607.988
 123432358.339 7  96181116.534 7  23488398.047                    23488412.738
 115765509.743 8  90206999.43945  22029450.000                    22029458.516
 119397914.424 7  93037480.34445  22720685.695                    22720694.695
 122796521.743 6  95685708.16543  23367408.938                    23367420.414
 115259520.588 7  89812635.99745  21933164.445                    21933174.012
 116390295.318 7  90693764.17745  22148337.266                    22148343.672
 11  8 24 17 34  0.0000000  0 10G17G23G08G07G01G11G28G24G13G19
 129163145.450 6 100646677.552 6  24578936.367                    24578950.477
 125411632.534 6  97723345.24244  23865058.961                    23865070.539
 112677937.774 8  87801180.28145  21441925.055                    21441933.594
 107538331.276 8  83796144.060 8  20463859.984                    20463867.742
 123357661.257 6  96122911.085 7  23474183.484                    23474197.602
 115715409.483 7  90167960.30945  22019915.992                    22019925.297
 119364615.882 7  93011533.47544  22714348.867                    22714358.070
 122727146.581 7  95631649.64643  23354206.672                    23354218.953
 115355688.929 7  89887572.26645  21951464.516                    21951474.516
 116470916.489 7  90756585.81645  22163678.875                    22163686.305
 11  8 24 17 34 30.0000000  0 10G17G23G08G07G01G11G28G24G13G19
 129059021.135 6 100565541.871 6  24559122.258                    24559136.008
 125525598.796 6  97812149.81443  23886746.805                    23886758.305
 112610892.540 8  87748937.25946  21429166.984                    21429175.250
 107513752.162 8  83776991.496 8  20459182.836                    20459190.445
 123283081.604 7  96064797.155 7  23459991.195                    23460006.059
 115665713.224 8  90129235.98345  22010459.188                    22010467.969
 119331448.305 7  92985688.65145  22708037.875                    22708046.262
 122657910.420 6  95577699.44743  23341031.820                    23341043.793
 115452156.178 7  89962741.44345  21969821.859                    21969831.449
 116551911.335 7  90819698.64445  22179091.969                    22179099.402
 11  8 24 17 35  0.0000000  0 10G17G23G08G07G01G11G28G24G13G19
 128955005.445 6 100484490.817 6  24539328.555                    24539342.410
 125639599.717 6  97900981.41343  23908440.039                    23908452.625
 112543988.284 8  87696804.08645  21416435.117                    21416443.871
 107489504.493 8  83758097.198 8  20454568.836                    20454576.539
 123208623.208 7  96006777.704 7  23445822.531                    23445837.148
 115616423.861 8  90090828.71045  22001079.734                    22001088.723
 119298411.276 7  92959945.54045  22701750.703                    22701759.559
 122588816.580 6  95523860.13743  23327882.750                    23327895.387
 115548919.438 7  90038141.27745  21988235.219                    21988245.000
 116633277.278 7  90883100.64445  22194575.039                    22194582.031
 11  8 24 17 35 30.0000000  0 10G17G23G08G07G01G11G28G24G13G19
 128851099.803 6 100403525.507 6  24519555.039                    24519569.750
 125753632.313 7  97989837.67143  23930140.430                    23930151.910
 112477227.240 8  87644782.51145  21403731.195                    21403740.156
 107465589.437 8  83739462.095 8  20450017.453                    20450025.828
 123134288.009 7  95948854.249 7  23431677.023                    23431691.703
 115567543.684 8  90052740.29045  21991777.586                    21991786.684
 119265502.985 7  92934302.74345  22695488.883                    22695497.578
 122519867.650 6  95470133.79443  23314762.117                    23314774.766
 115645975.384 7  90113769.18245  22006704.602                    22006714.051
 116715011.319 7  90946789.48045  22210128.563                    22210135.430
 11  8 24 17 36  0.0000000  0 10G17G23G08G07G01G11G28G24G13G19
 128747306.708 6 100322647.899 6  24499803.586                    24499818.480
 125867693.891 6  98078716.51443  23951845.852                    23951857.461
 112410611.398 8  87592874.07445  21391054.500                    21391063.191
 107442009.394 8  83721088.031 7  20445530.875                    20445538.395
 123060080.053 7  95891029.938 7  23417555.852                    23417569.855
 115519075.537 8  90014972.92745  21982554.742                    21982563.465
 119232723.180 7  92908760.07745  22689250.523                    22689259.273
 122451067.250 6  95416523.15743  23301669.813                    23301682.266
 115743321.092 7  90189622.86945  22025228.555                    22025238.734
 116797110.804 7  91010763.06845  22225751.680                    22225757.930
 11  8 24 17 36 30.0000000  0 10G17G23G08G07G01G11G28G24G13G19
 128643628.068 7 100241859.480 6  24480074.531                    24480088.531
 125981781.455 6  98167615.64143  23973555.563                    23973567.699
 112344142.592 8  87541080.21145  21378405.938                    21378414.688
 107418765.884 8  83702976.200 8  20441107.594                    20441115.320
 122986001.748 7  95833306.645 7  23403459.086                    23403473.648
 115471021.714 8  89977528.41345  21973410.094                    21973419.516
 119200070.515 7  92883316.47745  22683037.852                    22683045.840
 122382418.173 6  95363030.42744  23288607.102                    23288619.359
 115840953.440 7  90265699.92345  22043807.742                    22043817.461
 116879572.870 7  91075019.19945  22241443.727                    22241450.410
 11  8 24 17 37  0.0000000  0 10G17G23G08G07G01G11G28G24G13G19
 128540066.134 7 100161161.979 6  24460367.234                    24460381.730
 126095892.456 6  98256532.95643  23995271.000                    23995282.430
 112277823.375 8  87489402.90846  21365785.711                    21365794.074
 107395860.940 8  83685128.185 7  20436748.656                    20436756.559
 122912056.052 7  95775686.691 7  23389387.602                    23389401.996
 115423384.895 7  89940408.84545  21964345.070                    21964354.500
 119167544.310 7  92857971.39445  22676847.633                    22676856.250
 122313923.480 7  95309657.98143  23275572.766                    23275584.910
 115938869.729 7  90341998.22145  22062440.836                    22062450.250
 116962394.677 7  91139555.64545  22257203.602                    22257210.840
 11  8 24 17 37 30.0000000  0 10G17G23G08G07G01G11G28G24G13G19
 128436623.142 6 100080557.159 6  24440683.492                    24440696.676
 126210024.000 6  98345466.31543  24016989.938                    24017001.379
 112211656.343 8  87437844.19045  21353194.430                    21353203.152
 107373296.992 8  83667545.888 8  20432455.023                    20432462.789
 122838246.761 7  95718173.027 6  23375341.734                    23375355.980
 115376167.740 8  89903616.28145  21955360.352                    21955369.246
 119135143.660 7  92832724.16745  22670682.281                    22670690.199
 122245586.572 7  95256408.50644  23262568.805                    23262580.758
 116037066.921 7  90418515.40145  22081127.000                    22081136.719
 117045573.666 7  91204370.41045  22273032.227                    22273039.734
 11  8 24 17 38  0.0000000  0 10G17G23G08G07G01G11G28G24G13G19
 128333300.300 6 100000045.978 6  24421021.078                    24421035.234
 126324172.966 6  98434413.24543  24038711.875                    24038722.715
 112145642.593 8  87386404.91546  21340632.656                    21340641.051
 107351074.558 8  83650229.706 8  20428226.164                    20428233.777
 122764575.865 7  95660767.201 6  23361322.813                    23361336.859
 115329372.030 7  89867152.11845  21946455.352                    21946464.320
 119102867.071 7  92807573.60045  22664540.133                    22664548.301
 122177409.788 6  95203283.81244  23249594.734                    23249607.477
 116135540.811 7  90495248.20545  22099865.984                    22099876.105
 117129106.350 7  91269460.77845  22288928.133                    22288935.285
 11  8 24 17 38 30.0000000  0 10G17G23G08G07G01G11G28G24G13G19
 128230100.166 6  99919630.420 6  24401382.352                    24401396.855
 126438336.870 6  98523371.81143  24060437.234                    24060448.699
 112079784.903 8  87335087.24246  21328100.617                    21328109.090
 107329196.050 8  83633181.501 8  20424062.922                    20424070.559
 122691047.311 7  95603472.314 7  23347330.859                    23347345.406
 115283001.053 8  89831018.91845  21937630.938                    21937639.992
 119070713.877 7  92782519.18845  22658421.727                    22658429.887
 122109396.674 7  95150286.64344  23236651.859                    23236664.625
 116234289.555 7  90572195.16845  22118657.367                    22118667.363
 117212990.473 7  91334825.00045  22304890.969                    22304898.176
 11  8 24 17 39  0.0000000  0 10G17G23G08G07G01G11G28G24G13G19
 128127025.025 6  99839312.267 6  24381767.570                    24381782.055
 126552512.682 7  98612339.64943  24082163.609                    24082176.199
 112014085.840 8  87283893.17846  21315598.328                    21315606.457
 107307663.692 8  83616403.033 8  20419965.109                    20419972.973
 122617663.787 7  95546290.424 7  23333366.469                    23333380.133
 115237056.819 8  89795218.25045  21928888.164                    21928896.848
 119038683.157 7  92757560.20745  22652325.656                    22652334.793
 122041550.235 7  95097419.35943  23223741.625                    23223754.348
 116333309.931 7  90649353.79745  22137500.539                    22137510.551
 117297223.263 7  91400460.91945  22320919.977                    22320926.836
 11  8 24 17 39 30.0000000  0 10G17G23G08G07G01G11G28G24G13G19
 128024077.147 6  99759093.300 6  24362176.422                    24362191.535
 126666698.051 6  98701314.90143  24103892.836                    24103905.270
 111948547.476 8  87232824.33346  21303126.813                    21303135.270
 107286479.276 8  83599895.688 8  20415934.078                    20415941.598
 122544428.842 7  95489224.316 7  23319430.180                    23319444.156
 115191542.324 7  89759752.44445  21920226.883                    21920235.660
 119006774.242 7  92732696.14345  22646254.055                    22646262.566
 121973873.725 7  95044684.48644  23210863.430                    23210875.656
 116432598.826 7  90726721.64645  22156394.219                    22156405.031
 117381801.623 7  91466366.10445  22337014.750                    22337021.609
 11  8 24 17 40  0.0000000  0 10G17G23G08G07G01G11G28G24G13G19
 127921258.453 6  99678974.995 6  24342610.922                    24342625.742
 126780889.970 6  98790295.25143  24125623.148                    24125635.227
 111883172.151 8  87181882.53446  21290686.375                    21290694.793
 107265644.758 8  83583660.981 7  20411969.500                    20411977.480
 122471345.112 7  95432276.031 7  23305522.867                    23305536.445
 115146459.898 8  89724623.31445  21911648.313                    21911657.387
 118974985.844 7  92707925.98145  22640205.023                    22640213.551
 121906370.315 7  94992084.52444  23198017.148                    23198029.820
 116532153.616 7  90804296.68145  22175339.273                    22175349.184
 117466723.157 7  91532538.68845  22353174.852                    22353181.652
 11  8 24 17 40 30.0000000  0 10G17G23G08G07G01G11G28G24G13G19
 127818570.945 6  99598958.934 6  24323070.461                    24323084.668
 126895085.452 6  98879278.40643  24147353.922                    24147366.398
 111817961.783 8  87131069.27146  21278277.258                    21278285.629
 107245161.722 8  83567700.163 8  20408071.797                    20408080.074
 122398415.472 7  95375447.855 7  23291644.672                    23291659.227
 115101811.761 8  89689832.59345  21903151.906                    21903160.730
 118943317.137 7  92683249.07745  22634178.719                    22634187.348
 121839042.669 7  94939621.50644  23185205.797                    23185218.176
 116631970.465 7  90882075.94245  22194333.711                    22194344.094
 117551984.724 7  91598976.22145  22369399.633                    22369406.641
 11  8 24 17 41  0.0000000  0 10G17G23G08G07G01G11G28G24G13G19
 127716016.310 6  99519046.410 6  24303555.258                    24303569.184
 127009281.785 6  98968262.22843  24169085.195                    24169097.609
 111752918.344 8  87080386.08246  21265899.672                    21265908.602
 107225031.656 8  83552014.393 8  20404241.086                    20404249.027
 122325643.198 7  95318742.273 7  23277796.734                    23277810.547
 115057600.280 8  89655382.11445  21894738.688                    21894747.512
 118911766.850 7  92658664.45745  22628174.945                    22628183.371
 121771894.051 7  94887297.99444  23172427.430                    23172440.180
 116732046.150 7  90960056.87845  22213378.086                    22213387.945
 117637583.303 7  91665676.36645  22385688.328                    22385696.094
 11  8 24 17 41 30.0000000  0 10G17G23G08G07G01G11G28G24G13G19
 127613597.033 6  99439239.378 6  24284064.875                    24284079.258
 127123476.528 6  99057244.78743  24190816.563                    24190829.250
 111688044.672 8  87029835.18046  21253554.539                    21253563.133
 107205257.123 8  83536605.667 8  20400478.133                    20400485.781
 122253031.594 7  95262161.882 7  23263979.008                    23263992.840
 115013828.101 8  89621273.95445  21886409.031                    21886417.957
 118880334.349 7  92634171.62845  22622193.234                    22622201.793
 121704927.759 7  94835116.57044  23159684.500                    23159696.820
 116832378.321 7  91038237.68045  22232470.570                    22232480.359
 117723516.475 7  91732637.24445  22402041.258                    22402047.996
 11  8 24 17 42  0.0000000  0 10G17G23G08G07G01G11G28G24G13G19
 127511315.163 7  99359539.429 6  24264601.117                    24264615.563
 127237666.612 6  99146223.71043  24212545.742                    24212557.617
 111623342.515 8  86979417.93346  21241242.422                    21241251.207
 107185839.578 8  83521475.098 8  20396783.031                    20396790.801
 122180583.626 7  95205709.005 7  23250192.086                    23250206.000
 114970497.452 8  89587509.84645  21878163.539                    21878172.352
 118849018.630 7  92609769.79445  22616234.273                    22616242.344
 121638146.788 7  94783079.52844  23146975.844                    23146988.555
 116932963.477 7  91116615.61044  22251610.797                    22251621.426
 117809781.034 7  91799856.34645  22418456.719                    22418464.008
 11  8 24 17 42 30.0000000  0 10G17G23G08G07G01G11G28G24G13G19
 127409172.646 7  99279948.061 6  24245164.141                    24245178.109
 127351849.015 6  99235196.66543  24234274.453                    24234286.824
 111558814.236 8  86929136.17046  21228962.734                    21228971.352
 107166780.520 8  83506623.886 8  20393156.281                    20393163.973
 122108301.753 7  95149385.565 7  23236437.367                    23236451.344
 114927610.636 8  89554091.58845  21870002.438                    21870011.070
 118817818.604 7  92585458.10945  22610296.781                    22610305.355
 121571553.950 7  94731189.10444  23134304.055                    23134316.305
 117033798.590 7  91195188.29444  22270799.195                    22270809.191
 117896374.224 7  91867331.50945  22434934.773                    22434941.930
 11  8 24 17 43  0.0000000  0 10G17G23G08G07G01G11G28G24G13G19
 127307171.614 6  99200466.919 6  24225754.063                    24225767.570
 127466021.677 6  99324162.08043  24256001.203                    24256013.457
 111494462.585 7  86878992.04946  21216717.016                    21216725.508
 107148082.419 8  83492053.939 8  20389598.070                    20389605.684
 122036189.941 7  95093194.634 7  23222714.875                    23222729.051
 114885170.347 8  89521021.26845  21861926.469                    21861935.031
 118786733.402 7  92561235.90445  22604381.703                    22604389.941
 121505152.719 6  94679447.95244  23121668.211                    23121680.309
 117134881.062 7  91273953.74844  22290034.961                    22290045.309
 117983293.609 7  91935060.85145  22451475.094                    22451481.934
 11  8 24 17 43 30.0000000  0 10G17G23G08G07G01G11G28G24G13G19
 127205313.911 7  99121097.478 6  24206371.211                    24206385.168
 127580181.564 6  99413117.46043  24277725.633                    24277737.313
 111430289.776 7  86828987.26246  21204505.391                    21204514.027
 107129746.964 8  83477766.562 8  20386109.203                    20386117.027
 121964250.953 7  95037138.373 7  23209025.477                    23209039.563
 114843178.900 8  89488300.68645  21853935.297                    21853944.289
 118755762.255 7  92537102.57345  22598487.953                    22598496.211
 121438946.171 6  94627858.51044  23109068.977                    23109081.445
 117236207.499 7  91352909.27944  22309316.563                    22309327.156
 118070535.980 7  92003041.88445  22468076.930                    22468084.102
 11  8 24 17 44  0.0000000  0 10G17G23G08G07G01G11G28G24G13G19
 127103601.721 7  99041841.421 6  24187015.688                    24187029.129
 127694326.069 6  99502060.89843  24299446.297                    24299459.043
 111366298.320 8  86779123.79246  21192328.141                    21192336.414
 107111775.841 8  83463763.085 8  20382689.164                    20382696.863
 121892487.908 7  94981219.203 7  23195369.078                    23195383.527
 114801638.704 8  89455931.73945  21846030.617                    21846039.309
 118724904.046 7  92513057.24845  22592615.961                    22592624.551
 121372937.437 7  94576423.19844  23096507.742                    23096520.207
 117337774.718 7  91432052.44245  22328644.563                    22328655.148
 118158098.538 7  92071272.40245  22484739.672                    22484746.582
